[[{"header":{"parameterUnit":"m.s-1","parameterCategory":1,"la1":31.0,"la2":29.5877,"lo1":-88.7671,"lo2":-86.6584,"dy":0.0162,"dx":0.0185,"nx":115,"ny":88,"refTime":"2023-04-28T18:00:00:Z","depth":0,"parameterNumber":2,"parameterNumberName":"U-component_of_WINDS"},"data":[0.0,0.0,0.0,0.0,0.0,0.0,0.0,0.0,0.0,0.0,0.0,0.0,0.0,0.0,0.0,0.0,0.0,0.0,0.0,0.0,0.0,0.0,0.0,0.0,0.0,0.0,0.0,0.0,0.0,0.0,0.0,0.0,0.0,0.0,0.0,0.0,0.0,0.0,0.0,0.0,0.0,0.0,0.0,0.0,0.0,0.0,0.0,0.0,0.0,0.0,0.0,0.0,0.0,0.0,0.0,0.0,0.0,0.0,0.0,0.0,0.0,0.0,0.0,0.0,0.0,0.0,0.0,0.0,0.0,0.0,0.0,0.0,0.0,0.0,0.0,0.0,0.0,0.0,0.0,0.0,0.0,0.0,0.0,0.0,0.0,0.0,0.0,0.0,0.0,0.0,0.0,0.0,0.0,0.0,0.0,0.0,0.0,0.0,0.0,0.0,0.0,0.0,0.0,0.0,0.0,0.0,0.0,0.0,0.0,0.0,0.0,0.0,0.0,0.0,0.0,0.0,0.0,0.0,0.0,0.0,0.0,0.0,0.0,0.0,0.0,0.0,0.0,0.0,0.0,0.0,0.0,0.0,0.0,0.0,0.0,0.0,0.0,0.0,0.0,0.0,0.0,0.0,0.0,0.0,0.0,0.0,0.0,0.0,0.0,0.0,0.0,0.0,0.0,0.0,0.0,0.0,0.0,0.0,0.0,0.0,0.0,0.0,0.0,0.0,0.0,0.0,0.0,0.0,0.0,0.0,0.0,0.0,0.0,0.0,0.0,0.0,0.0,0.0,0.0,0.0,0.0,0.0,0.0,0.0,0.0,0.0,0.0,0.0,0.0,0.0,0.0,0.0,0.0,0.0,0.0,0.0,0.0,0.0,0.0,0.0,0.0,0.0,0.0,0.0,0.0,0.0,0.0,0.0,0.0,0.0,0.0,0.0,0.0,0.0,0.0,0.0,0.0,0.0,0.0,0.0,0.0,0.0,0.0,0.0,0.0,0.0,0.0,0.0,0.0,0.0,0.0,0.0,0.0,0.0,0.0,0.0,0.0,0.0,0.0,0.0,0.0,0.0,0.0,0.0,0.0,0.0,0.0,0.0,0.0,0.0,0.0,0.0,0.0,0.0,0.0,0.0,0.0,0.0,0.0,0.0,0.0,0.0,0.0,0.0,0.0,0.0,0.0,0.0,0.0,0.0,0.0,0.0,0.0,0.0,0.0,0.0,0.0,0.0,0.0,0.0,0.0,0.0,0.0,0.0,0.0,0.0,0.0,0.0,0.0,0.0,0.0,0.0,0.0,0.0,0.0,0.0,0.0,0.0,0.0,0.0,0.0,0.0,0.0,0.0,0.0,0.0,0.0,0.0,0.0,0.0,0.0,0.0,0.0,0.0,0.0,0.0,0.0,0.0,0.0,0.0,0.0,0.0,0.0,0.0,0.0,0.0,0.0,0.0,0.0,0.0,0.0,0.0,0.0,0.0,0.0,0.0,0.0,0.0,0.0,0.0,0.0,0.0,0.0,0.0,0.0,0.0,0.0,0.0,0.0,0.0,0.0,0.0,0.0,0.0,0.0,0.0,0.0,0.0,0.0,0.0,0.0,0.0,0.0,0.0,0.0,0.0,0.0,0.0,0.0,0.0,0.0,0.0,0.0,0.0,0.0,0.0,0.0,0.0,0.0,0.0,0.0,0.0,0.0,0.0,0.0,0.0,0.0,0.0,0.0,0.0,0.0,0.0,0.0,0.0,0.0,0.0,0.0,0.0,0.0,0.0,0.0,0.0,0.0,0.0,0.0,0.0,0.0,0.0,0.0,0.0,0.0,0.0,0.0,0.0,0.0,0.0,0.0,0.0,0.0,0.0,0.0,0.0,0.0,0.0,0.0,0.0,0.0,0.0,0.0,0.0,0.0,0.0,0.0,0.0,0.0,0.0,0.0,0.0,0.0,0.0,0.0,0.0,0.0,0.0,0.0,0.0,0.0,0.0,0.0,0.0,0.0,0.0,0.0,0.0,0.0,0.0,0.0,0.0,0.0,0.0,0.0,0.0,0.0,0.0,0.0,0.0,0.0,0.0,0.0,0.0,0.0,0.0,0.0,0.0,0.0,0.0,0.0,0.0,0.0,0.0,0.0,0.0,0.0,0.0,0.0,0.0,0.0,0.0,0.0,0.0,0.0,0.0,0.0,0.0,0.0,0.0,0.0,0.0,0.0,0.0,0.0,0.0,0.0,0.0,0.0,0.0,0.0,0.0,0.0,0.0,0.0,0.0,0.0,0.0,0.0,0.0,0.0,0.0,0.0,0.0,0.0,0.0,0.0,0.0,0.0,0.0,0.0,0.0,0.0,0.0,0.0,0.0,0.0,0.0,0.0,0.0,0.0,0.0,0.0,0.0,0.0,0.0,0.0,0.0,0.0,0.0,0.0,0.0,0.0,0.0,0.0,0.0,0.0,0.0,0.0,0.0,0.0,0.0,0.0,0.0,0.0,0.0,0.0,0.0,0.0,0.0,0.0,0.0,0.0,0.0,0.0,0.0,0.0,0.0,0.0,0.0,0.0,0.0,0.0,0.0,0.0,0.0,0.0,0.0,0.0,0.0,0.0,0.0,0.0,0.0,0.0,0.0,0.0,0.0,0.0,0.0,0.0,0.0,0.0,0.0,0.0,0.0,0.0,0.0,0.0,0.0,0.0,0.0,0.0,0.0,0.0,0.0,0.0,0.0,0.0,0.0,0.0,0.0,0.0,0.0,0.0,0.0,0.0,0.0,0.0,0.0,0.0,0.0,0.0,0.0,0.0,0.0,0.0,0.0,0.0,0.0,0.0,0.0,0.0,0.0,0.0,0.0,0.0,0.0,0.0,0.0,0.0,0.0,0.0,0.0,0.0,0.0,0.0,0.0,0.0,0.0,0.0,0.0,0.0,0.0,0.0,0.0,0.0,0.0,0.0,0.0,0.0,0.0,0.0,0.0,0.0,0.0,0.0,0.0,0.0,0.0,0.0,0.0,0.0,0.0,0.0,0.0,0.0,0.0,0.0,0.0,0.0,0.0,0.0,0.0,0.0,0.0,0.0,0.0,0.0,0.0,0.0,0.0,0.0,0.0,0.0,0.0,0.0,0.0,0.0,0.0,0.0,0.0,0.0,0.0,0.0,0.0,0.0,0.0,0.0,0.0,0.0,0.0,0.0,0.0,0.0,0.0,0.0,0.0,0.0,0.0,0.0,0.0,0.0,0.0,0.0,0.0,0.0,0.0,0.0,0.0,0.0,0.0,0.0,0.0,0.0,0.0,0.0,0.0,0.0,0.0,0.0,0.0,0.0,0.0,0.0,0.0,0.0,0.0,0.0,0.0,0.0,0.0,0.0,0.0,0.0,0.0,0.0,0.0,0.0,0.0,0.0,0.0,0.0,0.0,0.0,0.0,0.0,0.0,0.0,0.0,0.0,0.0,0.0,0.0,0.0,0.0,0.0,0.0,0.0,0.0,0.0,0.0,0.0,0.0,0.0,0.0,0.0,0.0,0.0,0.0,0.0,0.0,0.0,0.0,0.0,0.0,0.0,0.0,0.0,0.0,0.0,0.0,0.0,0.0,0.0,0.0,0.0,0.0,0.0,0.0,0.0,0.0,0.0,0.0,0.0,0.0,0.0,0.0,0.0,0.0,0.0,0.0,0.0,0.0,0.0,0.0,0.0,0.0,0.0,0.0,0.0,0.0,0.0,0.0,0.0,0.0,0.0,0.0,0.0,0.0,0.0,0.0,0.0,0.0,0.0,0.0,0.0,0.0,0.0,0.0,0.0,0.0,0.0,0.0,0.0,0.0,0.0,0.0,0.0,0.0,0.0,0.0,0.0,0.0,0.0,0.0,0.0,0.0,0.0,0.0,0.0,0.0,0.0,0.0,0.0,0.0,0.0,0.0,0.0,0.0,0.0,0.0,0.0,0.0,0.0,0.0,0.0,0.0,0.0,0.0,0.0,0.0,0.0,0.0,0.0,0.0,0.0,0.0,0.0,0.0,0.0,0.0,0.0,0.0,0.0,0.0,0.0,0.0,0.0,0.0,0.0,0.0,0.0,0.0,0.0,0.0,0.0,0.0,0.0,0.0,0.0,0.0,0.0,0.0,0.0,0.0,0.0,0.0,0.0,0.0,0.0,0.0,0.0,0.0,0.0,0.0,0.0,0.0,0.0,0.0,0.0,0.0,0.0,0.0,0.0,0.0,0.0,0.0,0.0,0.0,0.0,0.0,0.0,0.0,0.0,0.0,0.0,0.0,0.0,0.0,2.1859,0.0,0.0,0.0,0.0,0.0,0.0,0.0,0.0,0.0,0.0,0.0,0.0,0.0,0.0,0.0,0.0,0.0,0.0,0.0,0.0,0.0,0.0,0.0,0.0,0.0,0.0,0.0,0.0,0.0,0.0,0.0,0.0,0.0,0.0,0.0,0.0,0.0,0.0,0.0,0.0,0.0,0.0,0.0,0.0,0.0,0.0,0.0,0.0,0.0,0.0,0.0,0.0,0.0,0.0,0.0,0.0,0.0,0.0,0.0,0.0,0.0,0.0,0.0,0.0,0.0,0.0,0.0,0.0,0.0,0.0,0.0,0.0,0.0,0.0,0.0,0.0,0.0,0.0,0.0,0.0,0.0,0.0,0.0,0.0,0.0,0.0,0.0,0.0,0.0,0.0,0.0,0.0,0.0,0.0,0.0,0.0,0.0,0.0,0.0,0.0,0.0,0.0,0.0,0.0,0.0,0.0,0.0,0.0,0.0,0.0,2.3308,2.4116,2.4172,2.3437,2.1874,0.0,0.0,0.0,0.0,0.0,0.0,0.0,0.0,0.0,0.0,0.0,0.0,0.0,0.0,0.0,0.0,0.0,0.0,0.0,0.0,0.0,0.0,0.0,0.0,0.0,0.0,0.0,0.0,0.0,0.0,0.0,0.0,0.0,0.0,0.0,0.0,0.0,0.0,0.0,0.0,0.0,0.0,0.0,0.0,0.0,0.0,0.0,0.0,0.0,0.0,0.0,0.0,0.0,0.0,0.0,0.0,0.0,0.0,0.0,0.0,0.0,0.0,0.0,0.0,0.0,0.0,0.0,0.0,0.0,0.0,0.0,0.0,0.0,0.0,0.0,0.0,0.0,0.0,0.0,0.0,0.0,0.0,0.0,0.0,0.0,0.0,0.0,0.0,0.0,0.0,0.0,0.0,0.0,0.0,0.0,0.0,0.0,0.0,0.0,0.0,0.0,0.0,0.0,0.0,0.0,0.0,0.0,0.0,0.0,0.0,0.0,0.0,2.4229,2.3492,2.1837,0.0,0.0,0.0,0.0,0.0,0.0,0.0,0.0,0.0,0.0,0.0,0.0,0.0,0.0,0.0,0.0,0.0,0.0,0.0,0.0,0.0,0.0,0.0,0.0,0.0,0.0,0.0,0.0,0.0,0.0,0.0,0.0,0.0,0.0,0.0,0.0,0.0,0.0,0.0,0.0,0.0,0.0,0.0,0.0,0.0,0.0,0.0,0.0,0.0,0.0,0.0,0.0,0.0,0.0,0.0,0.0,0.0,0.0,0.0,0.0,0.0,0.0,0.0,0.0,0.0,0.0,0.0,0.0,0.0,0.0,0.0,0.0,0.0,0.0,0.0,0.0,0.0,0.0,0.0,0.0,0.0,0.0,0.0,0.0,0.0,0.0,0.0,0.0,0.0,0.0,0.0,0.0,0.0,0.0,0.0,0.0,0.0,0.0,0.0,0.0,0.0,0.0,0.0,0.0,0.0,0.0,0.0,0.0,0.0,0.0,2.4301,2.4372,2.4372,0.0,2.1875,0.0,0.0,0.0,0.0,0.0,0.0,0.0,0.0,0.0,0.0,0.0,0.0,0.0,0.0,0.0,0.0,0.0,0.0,0.0,0.0,0.0,0.0,0.0,0.0,0.0,0.0,0.0,0.0,0.0,0.0,0.0,0.0,0.0,0.0,0.0,0.0,0.0,0.0,0.0,0.0,0.0,0.0,0.0,0.0,0.0,0.0,0.0,0.0,0.0,0.0,0.0,0.0,0.0,0.0,0.0,0.0,0.0,0.0,0.0,0.0,0.0,0.0,0.0,0.0,0.0,0.0,0.0,0.0,0.0,0.0,0.0,0.0,0.0,0.0,0.0,0.0,0.0,0.0,0.0,0.0,0.0,0.0,0.0,0.0,0.0,0.0,0.0,0.0,0.0,0.0,0.0,0.0,0.0,0.0,0.0,0.0,0.0,0.0,0.0,0.0,0.0,0.0,0.0,0.0,0.0,0.0,0.0,0.0,0.0,0.0,2.4596,2.4626,2.3609,2.2678,0.0,0.0,0.0,0.0,0.0,0.0,0.0,0.0,0.0,0.0,0.0,0.0,0.0,0.0,0.0,0.0,0.0,0.0,0.0,0.0,0.0,0.0,0.0,0.0,0.0,0.0,0.0,0.0,0.0,0.0,0.0,0.0,0.0,0.0,0.0,0.0,0.0,0.0,0.0,0.0,0.0,0.0,0.0,0.0,0.0,0.0,0.0,0.0,0.0,0.0,0.0,0.0,0.0,0.0,0.0,0.0,0.0,0.0,0.0,0.0,0.0,0.0,0.0,0.0,0.0,0.0,0.0,0.0,0.0,0.0,0.0,0.0,0.0,0.0,0.0,0.0,0.0,0.0,0.0,0.0,0.0,0.0,0.0,0.0,0.0,0.0,0.0,0.0,0.0,0.0,0.0,0.0,0.0,0.0,0.0,0.0,0.0,0.0,0.0,0.0,0.0,0.0,0.0,0.0,0.0,0.0,0.0,0.0,0.0,0.0,2.4321,2.4798,2.4737,2.3074,2.2081,2.1948,0.0,0.0,0.0,0.0,0.0,0.0,0.0,0.0,0.0,0.0,0.0,0.0,0.0,0.0,0.0,0.0,0.0,0.0,0.0,0.0,0.0,0.0,0.0,0.0,0.0,0.0,0.0,0.0,0.0,0.0,0.0,0.0,0.0,0.0,0.0,0.0,0.0,0.0,0.0,0.0,0.0,0.0,0.0,0.0,0.0,0.0,0.0,0.0,0.0,0.0,0.0,0.0,0.0,0.0,0.0,0.0,0.0,0.0,0.0,0.0,0.0,0.0,0.0,0.0,0.0,0.0,0.0,0.0,0.0,0.0,0.0,0.0,0.0,0.0,0.0,0.0,0.0,0.0,0.0,0.0,0.0,0.0,0.0,0.0,0.0,0.0,0.0,0.0,0.0,0.0,0.0,0.0,0.0,0.0,0.0,0.0,0.0,0.0,0.0,0.0,0.0,0.0,0.0,0.0,0.0,0.0,0.0,0.0,2.3639,2.4509,2.4947,2.485,2.3199,2.2229,0.0,0.0,0.0,0.0,0.0,0.0,0.0,0.0,0.0,0.0,0.0,0.0,0.0,0.0,0.0,0.0,0.0,0.0,0.0,0.0,0.0,0.0,0.0,0.0,0.0,0.0,0.0,0.0,0.0,0.0,0.0,0.0,0.0,0.0,0.0,0.0,0.0,0.0,0.0,0.0,0.0,0.0,0.0,0.0,0.0,0.0,0.0,0.0,0.0,0.0,0.0,0.0,0.0,0.0,0.0,0.0,0.0,0.0,0.0,0.0,0.0,0.0,0.0,0.0,0.0,0.0,0.0,0.0,0.0,0.0,0.0,0.0,0.0,0.0,0.0,0.0,0.0,0.0,0.0,0.0,0.0,0.0,0.0,0.0,0.0,0.0,0.0,0.0,0.0,0.0,0.0,0.0,0.0,0.0,0.0,0.0,0.0,0.0,0.0,0.0,0.0,0.0,0.0,0.0,0.0,0.0,0.0,0.0,0.0,2.4523,2.4886,2.5044,2.4975,2.3341,2.2369,0.0,0.0,0.0,0.0,0.0,0.0,0.0,0.0,0.0,0.0,0.0,0.0,0.0,0.0,0.0,0.0,0.0,0.0,0.0,0.0,0.0,0.0,0.0,0.0,0.0,0.0,0.0,0.0,0.0,0.0,0.0,0.0,0.0,0.0,0.0,0.0,0.0,0.0,0.0,0.0,0.0,0.0,0.0,0.0,0.0,0.0,0.0,0.0,0.0,0.0,0.0,0.0,0.0,0.0,0.0,0.0,0.0,0.0,0.0,0.0,0.0,0.0,0.0,0.0,0.0,0.0,0.0,0.0,0.0,0.0,0.0,0.0,0.0,0.0,0.0,0.0,0.0,0.0,0.0,0.0,0.0,0.0,0.0,0.0,0.0,0.0,0.0,0.0,0.0,0.0,0.0,0.0,0.0,0.0,0.0,0.0,0.0,0.0,0.0,0.0,0.0,0.0,0.0,0.0,0.0,0.0,0.0,0.0,0.0,2.5076,0.0,2.5144,2.5087,2.3693,2.2855,0.0,0.0,0.0,0.0,0.0,0.0,0.0,0.0,0.0,0.0,0.0,0.0,0.0,0.0,0.0,0.0,0.0,0.0,0.0,0.0,0.0,0.0,0.0,0.0,0.0,0.0,0.0,0.0,0.0,0.0,0.0,0.0,0.0,0.0,0.0,0.0,0.0,0.0,0.0,0.0,0.0,0.0,0.0,0.0,0.0,0.0,0.0,0.0,0.0,0.0,0.0,0.0,0.0,0.0,0.0,0.0,0.0,0.0,0.0,0.0,0.0,0.0,0.0,0.0,0.0,0.0,0.0,0.0,0.0,0.0,0.0,0.0,0.0,0.0,0.0,0.0,0.0,0.0,0.0,0.0,0.0,0.0,0.0,0.0,0.0,0.0,0.0,0.0,0.0,0.0,0.0,0.0,0.0,0.0,0.0,0.0,0.0,0.0,0.0,0.0,0.0,0.0,0.0,0.0,0.0,0.0,0.0,0.0,2.5164,2.5206,2.5203,2.5191,2.5191,2.4255,2.3745,0.0,0.0,0.0,0.0,0.0,0.0,0.0,0.0,0.0,0.0,0.0,0.0,0.0,0.0,0.0,0.0,0.0,0.0,0.0,0.0,0.0,0.0,0.0,0.0,0.0,0.0,0.0,0.0,0.0,0.0,0.0,0.0,0.0,0.0,0.0,0.0,0.0,0.0,0.0,0.0,0.0,0.0,0.0,0.0,0.0,0.0,0.0,0.0,0.0,0.0,0.0,0.0,0.0,0.0,0.0,0.0,0.0,0.0,0.0,0.0,0.0,0.0,0.0,0.0,0.0,0.0,0.0,0.0,0.0,0.0,0.0,0.0,0.0,0.0,0.0,0.0,0.0,0.0,0.0,0.0,0.0,0.0,0.0,0.0,0.0,0.0,0.0,0.0,0.0,0.0,0.0,0.0,0.0,0.0,0.0,0.0,0.0,0.0,0.0,0.0,0.0,0.0,0.0,0.0,0.0,0.0,0.0,0.0,0.0,2.5187,2.5203,2.5222,2.5176,2.4335,2.3838,0.0,0.0,0.0,0.0,0.0,0.0,0.0,0.0,0.0,0.0,0.0,0.0,0.0,0.0,0.0,0.0,0.0,0.0,0.0,0.0,0.0,0.0,0.0,0.0,0.0,0.0,0.0,0.0,0.0,0.0,0.0,0.0,0.0,0.0,0.0,0.0,0.0,0.0,0.0,0.0,0.0,0.0,0.0,0.0,0.0,0.0,0.0,0.0,0.0,0.0,0.0,0.0,0.0,0.0,0.0,0.0,0.0,0.0,0.0,0.0,0.0,0.0,0.0,0.0,0.0,0.0,0.0,0.0,0.0,0.0,0.0,0.0,0.0,0.0,0.0,0.0,0.0,0.0,0.0,0.0,0.0,0.0,0.0,0.0,0.0,0.0,0.0,0.0,0.0,0.0,0.0,0.0,0.0,0.0,0.0,0.0,0.0,0.0,0.0,0.0,0.0,0.0,0.0,0.0,0.0,0.0,0.0,0.0,0.0,2.5171,2.5206,2.5214,2.5217,2.4683,2.435,2.4264,0.0,0.0,0.0,0.0,0.0,0.0,0.0,0.0,0.0,0.0,0.0,0.0,0.0,0.0,0.0,0.0,0.0,0.0,0.0,0.0,0.0,0.0,0.0,0.0,0.0,0.0,0.0,0.0,0.0,0.0,0.0,0.0,0.0,0.0,0.0,0.0,0.0,0.0,0.0,0.0,0.0,0.0,0.0,0.0,0.0,0.0,0.0,0.0,0.0,0.0,0.0,0.0,0.0,0.0,0.0,0.0,0.0,0.0,0.0,0.0,0.0,0.0,0.0,0.0,0.0,0.0,0.0,0.0,0.0,0.0,0.0,0.0,0.0,0.0,0.0,0.0,0.0,0.0,0.0,0.0,0.0,0.0,0.0,0.0,0.0,0.0,0.0,0.0,0.0,0.0,0.0,0.0,0.0,0.0,0.0,0.0,0.0,0.0,0.0,0.0,0.0,0.0,0.0,0.0,0.0,0.0,0.0,0.0,2.5203,2.5209,2.5217,2.5217,2.5184,2.5168,0.0,0.0,0.0,0.0,0.0,0.0,0.0,0.0,0.0,0.0,0.0,0.0,0.0,0.0,0.0,0.0,0.0,0.0,0.0,0.0,0.0,0.0,0.0,0.0,0.0,0.0,0.0,0.0,0.0,0.0,0.0,0.0,0.0,0.0,0.0,0.0,0.0,0.0,0.0,0.0,0.0,0.0,0.0,0.0,0.0,0.0,0.0,0.0,0.0,0.0,0.0,0.0,0.0,0.0,0.0,0.0,0.0,0.0,0.0,0.0,0.0,0.0,0.0,0.0,0.0,0.0,0.0,0.0,0.0,0.0,0.0,0.0,0.0,0.0,0.0,0.0,0.0,0.0,0.0,0.0,0.0,0.0,0.0,0.0,0.0,0.0,0.0,0.0,0.0,0.0,0.0,0.0,0.0,0.0,0.0,0.0,0.0,0.0,0.0,0.0,0.0,0.0,0.0,0.0,0.0,0.0,0.0,0.0,0.0,2.5225,2.5262,2.525,2.5217,2.5206,2.5172,0.0,0.0,0.0,0.0,0.0,0.0,0.0,0.0,0.0,0.0,0.0,0.0,0.0,0.0,0.0,0.0,0.0,0.0,0.0,0.0,0.0,0.0,0.0,0.0,0.0,0.0,0.0,0.0,0.0,0.0,0.0,0.0,0.0,0.0,0.0,0.0,0.0,0.0,0.0,0.0,0.0,0.0,0.0,0.0,0.0,0.0,0.0,0.0,0.0,0.0,0.0,0.0,0.0,0.0,0.0,0.0,0.0,0.0,0.0,0.0,0.0,0.0,0.0,0.0,0.0,0.0,0.0,0.0,0.0,0.0,0.0,0.0,0.0,0.0,0.0,0.0,0.0,0.0,0.0,0.0,0.0,0.0,0.0,0.0,0.0,0.0,0.0,0.0,0.0,0.0,0.0,0.0,0.0,0.0,0.0,0.0,0.0,0.0,0.0,0.0,0.0,0.0,0.0,0.0,0.0,0.0,0.0,0.0,2.5084,2.588,2.6256,2.6227,2.5791,2.5403,2.5168,0.0,0.0,0.0,0.0,0.0,0.0,0.0,0.0,0.0,0.0,0.0,0.0,0.0,0.0,0.0,0.0,0.0,0.0,0.0,0.0,0.0,0.0,0.0,0.0,0.0,0.0,0.0,0.0,0.0,0.0,0.0,0.0,0.0,0.0,0.0,0.0,0.0,0.0,0.0,0.0,0.0,0.0,0.0,0.0,0.0,0.0,0.0,0.0,0.0,0.0,0.0,0.0,0.0,0.0,0.0,0.0,0.0,0.0,0.0,0.0,0.0,0.0,0.0,0.0,0.0,0.0,0.0,0.0,0.0,0.0,0.0,0.0,0.0,0.0,0.0,0.0,0.0,0.0,0.0,0.0,0.0,0.0,0.0,0.0,0.0,0.0,0.0,0.0,0.0,0.0,0.0,0.0,0.0,0.0,0.0,0.0,0.0,0.0,0.0,0.0,0.0,0.0,0.0,0.0,0.0,0.0,0.0,0.0,2.5892,2.6683,2.7478,2.752,2.6756,2.5841,2.5318,0.0,0.0,0.0,0.0,0.0,0.0,0.0,0.0,0.0,0.0,0.0,0.0,0.0,0.0,0.0,0.0,0.0,0.0,0.0,0.0,0.0,0.0,0.0,0.0,0.0,0.0,0.0,0.0,0.0,0.0,0.0,0.0,0.0,0.0,0.0,0.0,0.0,0.0,0.0,0.0,0.0,0.0,0.0,0.0,0.0,0.0,0.0,0.0,0.0,0.0,0.0,0.0,0.0,0.0,0.0,0.0,0.0,0.0,0.0,0.0,0.0,0.0,0.0,0.0,0.0,0.0,0.0,0.0,0.0,0.0,0.0,0.0,0.0,0.0,0.0,0.0,0.0,0.0,0.0,0.0,0.0,0.0,0.0,0.0,0.0,0.0,0.0,0.0,0.0,0.0,0.0,0.0,0.0,0.0,0.0,0.0,0.0,0.0,0.0,0.0,0.0,0.0,0.0,0.0,0.0,0.0,0.0,0.0,2.5906,2.6767,2.6955,2.7298,2.7775,2.6822,2.5986,0.0,0.0,0.0,0.0,0.0,0.0,0.0,0.0,0.0,0.0,0.0,0.0,0.0,0.0,0.0,0.0,0.0,0.0,0.0,0.0,0.0,0.0,0.0,0.0,0.0,0.0,0.0,0.0,0.0,0.0,0.0,0.0,0.0,0.0,0.0,0.0,0.0,0.0,0.0,0.0,0.0,0.0,0.0,0.0,0.0,0.0,0.0,0.0,2.6708,0.0,0.0,0.0,0.0,0.0,0.0,0.0,0.0,0.0,0.0,0.0,0.0,0.0,0.0,0.0,0.0,0.0,0.0,0.0,0.0,0.0,0.0,0.0,0.0,0.0,0.0,0.0,0.0,0.0,0.0,0.0,0.0,0.0,0.0,0.0,0.0,0.0,0.0,0.0,0.0,0.0,0.0,0.0,0.0,0.0,0.0,0.0,0.0,0.0,0.0,0.0,0.0,0.0,0.0,0.0,0.0,0.0,0.0,0.0,2.76,2.8012,2.8432,2.8685,2.8695,2.8194,2.7282,0.0,0.0,0.0,0.0,0.0,0.0,0.0,0.0,0.0,0.0,0.0,0.0,0.0,0.0,0.0,0.0,0.0,0.0,0.0,0.0,0.0,0.0,0.0,0.0,0.0,0.0,0.0,0.0,0.0,0.0,0.0,0.0,0.0,0.0,0.0,0.0,0.0,0.0,0.0,0.0,0.0,0.0,0.0,0.0,0.0,0.0,0.0,0.0,0.0,0.0,0.0,0.0,0.0,0.0,0.0,0.0,0.0,0.0,0.0,0.0,0.0,0.0,0.0,0.0,0.0,0.0,0.0,0.0,0.0,0.0,0.0,0.0,0.0,0.0,0.0,0.0,0.0,0.0,0.0,0.0,0.0,0.0,0.0,0.0,0.0,0.0,0.0,0.0,0.0,0.0,0.0,0.0,0.0,0.0,0.0,0.0,0.0,0.0,0.0,0.0,0.0,0.0,0.0,0.0,0.0,0.0,0.0,2.8564,2.9343,2.9435,3.0189,3.0287,2.9635,2.9627,2.8838,2.7187,0.0,0.0,0.0,0.0,0.0,0.0,0.0,0.0,0.0,0.0,0.0,0.0,0.0,0.0,0.0,0.0,0.0,0.0,0.0,0.0,0.0,0.0,0.0,0.0,0.0,0.0,0.0,0.0,0.0,0.0,0.0,0.0,0.0,0.0,0.0,0.0,0.0,0.0,2.8432,2.7911,0.0,0.0,0.0,0.0,0.0,0.0,0.0,0.0,2.7117,0.0,0.0,0.0,0.0,0.0,0.0,0.0,0.0,0.0,0.0,0.0,0.0,0.0,0.0,0.0,0.0,0.0,0.0,0.0,0.0,0.0,0.0,0.0,0.0,0.0,0.0,0.0,0.0,0.0,0.0,0.0,0.0,0.0,0.0,0.0,0.0,0.0,0.0,0.0,0.0,0.0,0.0,0.0,0.0,0.0,0.0,0.0,0.0,0.0,0.0,0.0,0.0,0.0,0.0,0.0,0.0,2.8069,2.8363,2.8798,2.9455,2.9634,2.9985,3.0528,3.0574,3.0072,2.8994,0.0,0.0,0.0,0.0,0.0,0.0,0.0,0.0,0.0,0.0,0.0,0.0,0.0,0.0,0.0,0.0,0.0,0.0,0.0,0.0,0.0,0.0,0.0,0.0,0.0,0.0,0.0,0.0,0.0,0.0,0.0,0.0,0.0,0.0,0.0,0.0,0.0,0.0,0.0,2.7933,2.76,0.0,0.0,0.0,0.0,0.0,0.0,0.0,0.0,2.7201,0.0,0.0,0.0,0.0,0.0,0.0,0.0,0.0,0.0,0.0,0.0,0.0,0.0,0.0,0.0,0.0,0.0,0.0,0.0,0.0,0.0,0.0,0.0,0.0,0.0,0.0,0.0,0.0,0.0,0.0,0.0,0.0,0.0,0.0,0.0,0.0,0.0,0.0,0.0,0.0,0.0,0.0,0.0,0.0,0.0,0.0,0.0,0.0,0.0,0.0,0.0,0.0,0.0,0.0,0.0,2.8993,2.9389,2.9782,3.0147,3.0169,3.0364,3.0774,3.079,3.056,0.0,0.0,0.0,0.0,0.0,0.0,0.0,0.0,0.0,0.0,0.0,0.0,0.0,0.0,0.0,0.0,0.0,0.0,0.0,0.0,0.0,0.0,0.0,0.0,0.0,0.0,0.0,0.0,0.0,0.0,0.0,0.0,0.0,0.0,0.0,0.0,0.0,0.0,0.0,0.0,2.7961,2.763,2.7421,0.0,0.0,0.0,0.0,0.0,0.0,2.7313,2.725,0.0,0.0,0.0,0.0,0.0,0.0,0.0,0.0,0.0,0.0,0.0,0.0,0.0,0.0,0.0,0.0,0.0,0.0,0.0,0.0,0.0,0.0,0.0,0.0,0.0,0.0,0.0,0.0,0.0,0.0,0.0,0.0,0.0,0.0,0.0,0.0,0.0,0.0,0.0,0.0,0.0,0.0,0.0,0.0,0.0,0.0,0.0,0.0,0.0,0.0,0.0,0.0,0.0,0.0,0.0,2.9869,3.047,3.0799,3.0794,3.0796,3.0796,3.0794,3.0794,3.0701,0.0,0.0,0.0,0.0,0.0,0.0,0.0,0.0,0.0,0.0,0.0,0.0,0.0,0.0,0.0,0.0,0.0,0.0,0.0,0.0,0.0,0.0,0.0,0.0,0.0,0.0,0.0,0.0,0.0,0.0,0.0,0.0,0.0,0.0,0.0,0.0,0.0,0.0,0.0,0.0,0.0,2.7642,2.7417,2.7293,0.0,0.0,0.0,0.0,2.7421,2.7345,0.0,0.0,0.0,0.0,0.0,0.0,0.0,0.0,0.0,0.0,0.0,0.0,0.0,0.0,0.0,0.0,0.0,0.0,0.0,0.0,0.0,0.0,0.0,0.0,0.0,0.0,0.0,0.0,0.0,0.0,0.0,0.0,0.0,0.0,0.0,0.0,0.0,0.0,0.0,0.0,0.0,0.0,0.0,0.0,0.0,0.0,0.0,0.0,0.0,0.0,0.0,0.0,0.0,0.0,0.0,0.0,3.0655,3.0747,3.0799,3.0794,3.0794,3.0796,3.0799,3.0786,3.0443,0.0,0.0,0.0,0.0,0.0,0.0,0.0,0.0,0.0,0.0,0.0,0.0,0.0,0.0,0.0,0.0,0.0,0.0,0.0,0.0,0.0,0.0,0.0,0.0,0.0,0.0,0.0,0.0,0.0,0.0,0.0,0.0,0.0,0.0,0.0,0.0,0.0,0.0,0.0,0.0,0.0,2.7701,2.7526,2.7324,2.7261,0.0,0.0,2.7425,2.7407,2.7345,0.0,0.0,0.0,0.0,0.0,0.0,0.0,0.0,0.0,0.0,0.0,0.0,0.0,0.0,0.0,0.0,0.0,0.0,0.0,0.0,0.0,0.0,0.0,0.0,0.0,0.0,0.0,0.0,0.0,0.0,0.0,0.0,0.0,0.0,0.0,0.0,0.0,0.0,0.0,0.0,0.0,0.0,0.0,0.0,0.0,0.0,0.0,0.0,0.0,0.0,0.0,0.0,0.0,0.0,0.0,3.0819,3.0855,3.0825,3.0799,3.0796,3.0794,3.0791,3.0788,3.0802,3.0594,0.0,0.0,0.0,0.0,0.0,0.0,0.0,0.0,0.0,0.0,0.0,0.0,0.0,0.0,0.0,0.0,0.0,0.0,0.0,0.0,0.0,0.0,0.0,0.0,0.0,0.0,0.0,0.0,0.0,0.0,0.0,0.0,0.0,0.0,0.0,0.0,0.0,0.0,0.0,0.0,0.0,0.0,2.7569,2.7355,0.0,0.0,0.0,2.7407,2.7452,0.0,0.0,0.0,0.0,0.0,0.0,0.0,0.0,0.0,0.0,0.0,0.0,0.0,0.0,0.0,0.0,0.0,0.0,0.0,0.0,0.0,0.0,0.0,0.0,0.0,0.0,0.0,0.0,0.0,0.0,0.0,0.0,0.0,0.0,0.0,0.0,0.0,0.0,0.0,0.0,0.0,0.0,0.0,0.0,0.0,0.0,0.0,0.0,0.0,0.0,0.0,0.0,0.0,0.0,0.0,0.0,0.0,3.0878,3.0829,3.0801,3.0801,3.0796,3.0791,3.0801,3.0782,0.0,0.0,0.0,0.0,0.0,0.0,0.0,0.0,0.0,0.0,0.0,0.0,0.0,0.0,0.0,0.0,0.0,0.0,0.0,0.0,0.0,0.0,0.0,0.0,0.0,0.0,0.0,2.9082,0.0,0.0,0.0,0.0,0.0,0.0,0.0,0.0,0.0,0.0,0.0,0.0,0.0,0.0,2.7926,2.7777,2.7491,2.7338,0.0,0.0,2.7438,2.7452,2.7376,2.7299,0.0,0.0,0.0,0.0,0.0,0.0,0.0,0.0,0.0,0.0,0.0,0.0,0.0,0.0,0.0,0.0,0.0,0.0,0.0,0.0,0.0,0.0,0.0,0.0,0.0,0.0,0.0,0.0,0.0,0.0,0.0,0.0,0.0,0.0,0.0,0.0,0.0,0.0,0.0,0.0,0.0,0.0,0.0,0.0,0.0,0.0,0.0,0.0,0.0,0.0,0.0,0.0,0.0,0.0,0.0,3.0819,3.0793,3.0801,3.0801,3.0799,3.0796,3.0791,3.0801,3.0443,0.0,0.0,0.0,0.0,0.0,0.0,0.0,0.0,0.0,0.0,0.0,0.0,0.0,0.0,0.0,0.0,0.0,0.0,0.0,0.0,0.0,0.0,0.0,0.0,0.0,0.0,0.0,0.0,0.0,0.0,0.0,0.0,0.0,0.0,0.0,0.0,0.0,0.0,0.0,0.0,0.0,2.8237,2.8174,2.7876,2.7642,0.0,0.0,2.7452,2.7313,2.733,2.7299,2.7299,0.0,0.0,0.0,0.0,0.0,0.0,0.0,0.0,0.0,0.0,0.0,0.0,0.0,0.0,0.0,0.0,0.0,0.0,0.0,0.0,0.0,0.0,0.0,0.0,0.0,0.0,0.0,0.0,0.0,0.0,0.0,0.0,0.0,0.0,0.0,0.0,0.0,0.0,0.0,0.0,0.0,0.0,0.0,0.0,0.0,0.0,0.0,0.0,0.0,0.0,0.0,0.0,0.0,3.0768,3.079,3.0856,3.086,3.086,3.0816,3.0791,3.0785,3.0794,3.063,0.0,0.0,0.0,0.0,0.0,0.0,0.0,0.0,0.0,0.0,0.0,0.0,0.0,0.0,0.0,0.0,0.0,0.0,0.0,0.0,0.0,0.0,0.0,0.0,0.0,0.0,0.0,0.0,2.8977,2.9262,3.0075,0.0,0.0,0.0,0.0,0.0,0.0,0.0,0.0,0.0,0.0,2.8378,2.8282,2.8063,0.0,0.0,2.7766,2.763,2.76,2.7452,2.7362,2.7362,2.7362,0.0,0.0,0.0,0.0,0.0,0.0,0.0,0.0,0.0,0.0,0.0,0.0,0.0,0.0,0.0,0.0,0.0,0.0,0.0,0.0,0.0,0.0,0.0,0.0,0.0,0.0,0.0,0.0,0.0,0.0,0.0,0.0,0.0,0.0,0.0,0.0,0.0,0.0,0.0,0.0,0.0,0.0,0.0,0.0,0.0,0.0,0.0,0.0,0.0,0.0,0.0,0.0,3.0724,3.0796,3.0859,3.0868,3.0855,3.0833,3.0788,3.0798,3.079,3.0786,0.0,0.0,0.0,0.0,0.0,0.0,0.0,0.0,0.0,0.0,0.0,0.0,0.0,0.0,0.0,0.0,0.0,0.0,0.0,0.0,0.0,0.0,0.0,0.0,0.0,0.0,0.0,0.0,2.9379,2.9557,3.0171,0.0,0.0,0.0,0.0,0.0,0.0,0.0,0.0,0.0,0.0,2.8518,2.8414,2.8327,2.8219,2.8191,2.8007,2.7818,2.7789,2.7587,2.7421,2.7407,0.0,0.0,0.0,0.0,0.0,0.0,0.0,0.0,0.0,0.0,0.0,0.0,0.0,0.0,0.0,0.0,0.0,0.0,0.0,0.0,0.0,0.0,0.0,0.0,0.0,0.0,0.0,0.0,0.0,0.0,2.5543,0.0,0.0,0.0,0.0,0.0,0.0,0.0,0.0,0.0,0.0,0.0,0.0,0.0,0.0,0.0,0.0,0.0,0.0,0.0,0.0,0.0,0.0,3.073,3.0788,3.0792,3.08,3.0813,3.0788,3.0788,3.0801,3.0798,3.0801,3.0791,0.0,0.0,0.0,0.0,0.0,0.0,0.0,0.0,0.0,0.0,0.0,0.0,0.0,0.0,0.0,0.0,0.0,0.0,0.0,0.0,0.0,0.0,0.0,0.0,0.0,0.0,3.0452,3.034,3.0267,0.0,0.0,0.0,0.0,0.0,0.0,0.0,0.0,0.0,0.0,2.8815,2.8694,2.8712,2.8637,2.8536,2.8414,2.8282,2.8091,2.776,2.7659,2.7574,0.0,0.0,0.0,0.0,0.0,0.0,0.0,0.0,0.0,0.0,0.0,0.0,0.0,0.0,0.0,0.0,0.0,0.0,0.0,0.0,0.0,0.0,0.0,0.0,0.0,0.0,0.0,2.5443,2.5605,0.0,0.0,0.0,0.0,0.0,0.0,0.0,0.0,0.0,0.0,0.0,2.9481,2.9744,0.0,0.0,0.0,0.0,0.0,0.0,0.0,0.0,0.0,0.0,0.0,0.0,3.0672,3.0728,3.0771,3.0799,3.0792,3.0798,3.08,3.0801,3.0797,3.0786,3.0791,0.0,0.0,0.0,0.0,0.0,0.0,0.0,0.0,0.0,0.0,0.0,0.0,0.0,0.0,0.0,0.0,0.0,0.0,0.0,0.0,0.0,0.0,0.0,0.0,0.0,3.0585,0.0,0.0,0.0,0.0,0.0,0.0,0.0,0.0,0.0,0.0,0.0,2.9144,2.9003,2.8887,2.8815,2.8785,2.8737,2.8712,0.0,0.0,0.0,0.0,0.0,0.0,0.0,0.0,0.0,0.0,0.0,0.0,0.0,0.0,2.861,2.8127,2.7925,2.8047,2.8645,0.0,0.0,0.0,0.0,0.0,0.0,0.0,0.0,0.0,0.0,0.0,0.0,0.0,0.0,2.6379,0.0,2.6724,0.0,0.0,0.0,0.0,0.0,0.0,0.0,0.0,2.97,2.9861,2.991,2.9962,2.9959,0.0,3.0026,3.009,0.0,0.0,0.0,0.0,0.0,0.0,0.0,0.0,3.0634,3.069,3.0728,3.0769,3.0794,3.0794,3.0784,3.079,3.0799,3.08,3.0788,3.0843,3.0886,0.0,0.0,0.0,0.0,0.0,0.0,0.0,0.0,0.0,0.0,0.0,0.0,0.0,0.0,0.0,0.0,0.0,0.0,0.0,0.0,0.0,0.0,0.0,3.0593,0.0,0.0,0.0,0.0,0.0,0.0,0.0,0.0,0.0,2.9641,2.9321,2.9067,2.9003,2.8929,2.8858,2.8858,0.0,0.0,0.0,0.0,0.0,0.0,0.0,2.7876,2.7647,2.7814,2.7983,2.8056,2.8472,2.8799,2.8782,0.0,0.0,2.885,2.868,2.8785,2.935,2.8973,2.8647,2.9019,2.8694,2.8437,0.0,0.0,0.0,0.0,0.0,0.0,0.0,0.0,2.6943,2.7469,0.0,2.8183,0.0,0.0,0.0,0.0,0.0,2.9045,0.0,0.0,2.9874,2.9956,2.9924,3.0022,3.0102,3.0102,3.0038,3.0113,3.0299,3.0367,0.0,0.0,0.0,0.0,0.0,0.0,3.0629,3.071,3.0697,3.0728,3.0801,3.0794,3.0801,3.0788,3.079,3.0796,3.0801,3.0793,3.0823,3.088,3.0898,0.0,0.0,0.0,0.0,0.0,0.0,0.0,0.0,0.0,0.0,0.0,0.0,0.0,0.0,0.0,0.0,0.0,0.0,0.0,0.0,3.069,0.0,0.0,0.0,0.0,0.0,0.0,0.0,0.0,0.0,0.0,2.9551,2.9263,2.9077,2.9021,0.0,0.0,0.0,0.0,2.8828,2.8785,2.8755,2.8674,2.8398,2.838,2.8271,2.7799,0.0,0.0,2.9385,2.9523,2.9541,2.9541,2.9541,2.9472,2.9607,2.9558,2.9523,2.9547,2.9501,2.9313,2.9079,2.9149,2.9081,2.6964,0.0,0.0,0.0,0.0,2.69,2.7328,2.7915,2.8146,2.8341,2.8536,2.8658,0.0,0.0,0.0,0.0,0.0,0.0,2.9357,2.9662,2.9841,2.9943,2.9972,3.0022,3.0053,3.0102,3.0171,3.0199,3.0185,3.0419,3.0472,3.034,0.0,0.0,0.0,0.0,3.0585,3.0688,3.0703,3.0711,3.0722,3.0734,3.0769,3.0788,3.0785,3.0796,3.0798,3.08,3.0801,3.0819,3.082,0.0,0.0,0.0,0.0,0.0,0.0,0.0,0.0,0.0,0.0,0.0,0.0,0.0,0.0,0.0,0.0,0.0,0.0,0.0,3.0704,3.061,3.0576,0.0,0.0,0.0,0.0,0.0,0.0,0.0,0.0,0.0,2.9661,2.9427,2.9208,0.0,0.0,2.9067,2.9017,2.8929,2.8834,2.8761,2.9185,0.0,2.9314,2.9746,3.0012,2.9751,2.9669,2.9595,2.9506,2.9972,3.0351,3.0351,3.0765,3.1145,3.1112,3.059,3.0396,3.0913,3.0585,3.0307,3.064,3.0347,2.981,2.789,2.7654,2.753,2.753,2.766,2.784,2.811,2.8466,2.8651,2.87,2.8662,2.8797,2.8749,2.8543,2.8518,0.0,0.0,0.0,2.9455,2.9787,2.9857,2.9907,2.9956,3.0007,3.0022,3.0053,3.0142,3.0166,3.0152,3.0316,3.0386,3.0364,0.0,0.0,3.0492,3.051,3.0593,3.07,3.0703,3.0697,3.0704,3.0698,3.0734,3.0798,3.0793,3.079,3.0786,3.0788,3.0795,3.08,3.0799,3.0795,0.0,0.0,0.0,0.0,0.0,0.0,0.0,0.0,0.0,0.0,0.0,3.0823,3.0847,0.0,0.0,0.0,3.0769,3.0723,3.0626,3.0593,0.0,0.0,0.0,0.0,0.0,0.0,0.0,3.0209,3.0297,3.0223,2.9839,2.9645,2.9465,2.9307,2.92,2.9263,2.9508,0.0,2.9387,2.9621,3.0057,3.0331,3.0198,3.0567,3.0926,3.1047,3.0778,3.063,3.0747,3.115,3.1411,3.1393,3.167,3.1929,3.1819,3.133,3.1067,3.1591,3.1256,3.1025,3.1376,3.1049,3.0666,2.8138,2.8484,2.7933,2.7829,2.8055,2.812,2.8334,2.8669,2.8619,2.8637,2.8712,2.8761,2.8737,2.8637,2.8687,0.0,2.9293,2.9353,2.957,2.9872,2.9872,2.9888,2.9907,2.9956,2.9988,3.0007,3.0007,3.0064,3.0188,3.0133,3.0174,3.0304,3.0492,3.0548,3.0492,3.0548,3.0629,3.0692,3.0695,3.0697,3.0698,3.0691,3.0728,3.0789,3.0784,3.0784,3.0794,3.0785,3.0799,3.0793,3.0784,3.0796,3.0796,0.0,0.0,0.0,0.0,0.0,0.0,0.0,0.0,0.0,0.0,0.0,0.0,0.0,0.0,0.0,3.07,0.0,3.0511,3.061,0.0,0.0,0.0,3.0453,3.0402,3.1047,3.1159,3.0299,0.0,0.0,3.0222,3.0113,2.9976,2.9679,2.9416,2.9525,3.0305,3.0198,3.0301,3.0937,3.1165,3.1166,3.1028,3.1183,3.1462,3.181,3.1734,3.1838,3.2358,3.2484,3.2488,3.2231,3.2214,3.2126,3.1891,3.18,3.1765,3.1625,3.1585,3.1562,3.1428,3.1411,3.1397,2.7904,2.7748,2.776,2.8045,2.8466,2.8466,2.8543,2.8637,2.8644,2.8687,2.8694,2.8779,2.881,2.8834,2.8923,2.9026,2.923,2.923,2.9416,2.9753,2.9734,2.9805,2.9907,2.9905,2.9924,2.994,2.9972,3.0019,3.0049,3.0133,3.0182,3.0241,3.0321,3.0386,3.0425,3.0449,3.0511,3.0632,3.0629,3.0637,3.0691,3.0697,3.0734,3.0799,3.0789,3.0794,3.0789,3.0793,3.0798,3.0786,3.0802,3.0802,3.079,3.0789,0.0,0.0,0.0,0.0,0.0,0.0,0.0,0.0,0.0,3.0798,3.0792,0.0,3.0714,0.0,3.0649,3.0621,3.0585,3.0602,0.0,0.0,3.0521,3.0409,3.0414,3.0953,3.1264,3.1039,3.1733,3.2137,3.1906,3.1836,3.1803,3.1675,3.0978,3.0482,3.0544,3.0914,3.1139,3.1294,3.1665,3.1936,3.1916,3.2433,3.2744,3.2732,3.2675,3.2652,3.2603,3.2588,3.2573,3.2506,3.2335,3.2213,3.2117,3.194,3.18,3.1765,3.1728,3.1746,3.1671,3.1709,3.1534,2.8132,2.8054,2.7941,2.8279,2.89,2.8585,2.8476,2.8495,2.8605,2.8662,2.8644,2.8718,2.881,2.8858,2.8929,2.9026,2.9148,2.9169,2.9355,2.9608,2.9608,2.9645,2.9717,2.9787,2.9822,2.9822,2.9924,2.9956,2.9972,3.0079,3.0123,3.0104,3.0161,3.0221,3.0266,3.0316,3.0409,3.053,3.0558,3.0563,3.061,3.0672,3.071,3.0716,3.0728,3.0753,3.0753,3.0753,3.0759,3.0764,3.0764,3.0769,3.0755,3.0759,3.0722,0.0,0.0,0.0,0.0,0.0,0.0,0.0,0.0,0.0,0.0,0.0,3.0697,3.0711,3.0653,3.0613,3.0602,3.0621,3.0602,3.0649,3.0492,3.0409,3.0394,3.1278,3.174,3.1397,3.234,3.2897,3.2517,3.2409,3.2409,3.2409,3.226,3.2052,3.1829,3.1955,3.2127,3.2419,3.2639,3.2752,3.2723,3.3103,3.3364,3.3226,3.3196,3.3117,3.2961,3.2961,3.293,3.2802,3.2654,3.2492,3.2262,3.2085,3.1929,3.1837,3.18,3.18,3.18,3.18,3.1627,2.8667,2.8788,2.8335,2.8617,2.9272,2.879,2.8541,2.8515,2.8691,2.8696,2.8587,2.8669,2.8718,2.8785,2.8858,2.8938,2.906,2.9255,2.9418,2.962,2.9714,2.979,2.981,2.9927,2.9982,3.0001,3.0108,3.016,3.016,3.0246,3.0278,3.0278,3.0345,3.0396,3.0392,3.0499,3.0561,3.0537,3.0597,3.0637,3.0646,3.0665,3.0637,3.0595,3.0646,3.0678,3.0658,3.0685,3.0698,3.0691,3.0697,3.0697,3.0703,3.071,3.0698,0.0,3.0691,0.0,0.0,0.0,0.0,0.0,0.0,0.0,0.0,3.0697,3.0704,3.07,3.064,3.0604,3.0613,3.0613,3.0613,3.0595,3.0462,3.0392,3.0455,3.1722,3.2359,3.1638,3.2916,3.3582,3.29,3.2732,3.2732,3.2862,3.3355,3.3639,3.3456,3.3152,3.3198,3.3899,3.3762,3.3524,3.3447,3.3455,3.3481,3.3452,3.3422,3.3422,3.3422,3.3422,3.3345,3.3165,3.3131,3.3033,3.2546,3.2564,3.2511,3.24,3.2295,3.2102,3.1871,3.18,3.18,2.911,2.9041,2.9008,2.9127,2.9417,2.9744,2.9783,2.952,2.9572,2.921,2.8612,2.8687,2.8712,2.8718,2.8785,2.8834,2.89,2.9612,3.0023,3.028,3.095,3.134,3.143,3.1472,3.1493,3.1493,3.1495,3.1514,3.1534,3.1693,3.177,3.1789,3.1919,3.1951,3.1969,0.0,0.0,0.0,3.1333,3.1403,3.1455,3.0791,3.0491,3.0519,3.0535,0.0,3.0543,3.0595,3.0618,3.0618,3.0665,0.0,0.0,0.0,0.0,0.0,0.0,0.0,0.0,0.0,0.0,0.0,3.0801,3.08,3.0784,3.073,3.0665,3.0621,3.0613,3.0615,3.0616,3.0607,3.0607,3.0607,3.0481,3.0409,3.0455,3.1808,3.2656,3.2435,3.3805,3.4737,3.4415,3.4434,3.4396,3.4358,3.4567,3.4643,3.4566,3.4325,3.4244,3.4367,3.4184,3.4018,3.3921,3.3868,3.3807,3.3698,3.3605,3.3549,3.3603,3.3603,3.3567,3.3546,3.3774,3.4033,3.3902,3.4209,3.4359,3.4376,3.3847,3.309,3.2031,3.18,3.18,2.9663,2.9556,2.9346,2.9574,0.0,3.0677,3.085,3.0754,3.0496,3.017,2.9807,2.9797,2.9842,2.9842,2.9893,2.9937,2.9955,3.044,3.0478,3.0246,3.1084,3.1328,3.1034,3.1551,3.1823,3.1823,3.1853,3.1896,3.1918,3.2122,3.2202,3.2202,3.2335,3.2408,3.2425,3.2843,3.2686,3.1962,3.2044,3.2114,3.2192,3.18,3.1603,3.1661,3.1293,0.0,0.0,0.0,0.0,0.0,0.0,0.0,0.0,3.1752,0.0,3.1987,3.2036,3.206,3.2045,3.2077,3.2069,3.2095,3.2077,3.1718,3.0884,3.074,3.0664,3.0615,3.0613,3.0613,3.0626,3.0946,3.1197,3.1217,3.1505,3.1736,3.1841,3.2781,3.3454,3.3499,3.4451,3.515,3.5019,3.4999,3.4963,3.4927,3.4908,3.4908,3.4889,3.4752,3.4607,3.448,3.4375,3.4242,3.4117,3.403,3.3972,3.3834,3.3698,3.3769,3.4116,3.4189,3.4298,3.4681,3.5,3.5095,3.4934,3.5101,3.5204,3.5011,3.4693,3.4235,3.3457,3.3071,3.2773,3.0538,3.0446,3.0009,3.0226,3.0941,3.1368,3.1679,3.1867,0.0,0.0,0.0,3.1003,3.1003,3.1012,3.1057,3.1084,3.1084,3.131,3.1026,3.0451,3.1305,3.1375,3.0796,3.163,3.2059,3.2083,3.2187,3.2218,3.2236,3.2472,3.2594,3.2614,3.2751,3.2842,3.288,3.3562,3.358,3.2933,3.2847,3.2858,3.2886,3.2828,3.2807,3.2889,3.2254,3.1926,3.1904,3.13,3.0945,3.0994,3.1685,3.212,3.2147,3.2869,3.3292,3.3303,3.3351,3.3384,3.3376,3.3386,3.3392,3.3398,3.3389,3.2793,3.134,3.1208,3.1158,3.1078,3.1064,3.1075,3.1061,3.1632,3.2048,3.2058,3.2687,3.3082,3.314,3.3782,3.4166,3.4283,3.4841,3.5277,3.5122,3.5083,3.5066,3.4945,3.4908,3.4908,3.4908,3.4831,3.4693,3.4572,3.4569,3.4508,3.4357,3.4237,3.4142,3.4314,3.4126,3.422,3.4869,3.5078,3.5323,3.5816,3.6097,3.6115,3.5892,3.5981,3.59,3.5611,3.5454,3.5366,3.5313,3.4833,3.4319,3.2295,3.1823,3.1844,3.163,3.1257,3.1685,3.2022,3.2254,3.1386,3.1002,3.1003,3.1003,3.1003,3.1003,3.1012,3.1012,3.1066,3.1819,3.2083,3.201,3.2866,3.3259,3.3204,3.3341,3.3431,3.3503,3.3537,3.3537,3.3571,3.3892,3.4095,3.412,3.4412,3.4529,3.4548,3.4661,3.4661,3.4548,3.3957,3.3631,3.3644,3.3035,3.2747,3.2814,3.2768,3.2744,3.273,3.2675,3.2662,3.2733,3.2861,3.2957,3.3022,3.3161,3.3232,3.3292,3.3327,3.3345,3.3392,3.3395,3.3395,3.3398,3.3378,3.3279,3.3063,3.3029,3.2996,3.2927,3.2812,3.2899,3.2841,3.2919,3.3006,3.2996,3.3064,3.3121,3.3228,3.3915,3.4406,3.4301,3.4936,3.538,3.5168,3.5117,3.5064,3.4945,3.4927,3.4927,3.4945,3.4908,3.4908,3.4927,3.4964,3.4945,3.4906,3.4752,3.4986,3.5458,3.5311,3.5414,3.6167,3.6251,3.625,3.6321,3.6802,3.7071,3.7046,3.754,3.7642,3.7576,3.713,3.6717,3.6666,3.6522,3.6152,3.2847,3.2605,3.2715,3.2655,3.2462,3.2572,3.2772,3.3,3.2225,3.1872,3.1918,3.2173,3.2231,3.2097,3.2231,3.2306,3.2325,3.2697,3.2653,3.2327,3.3156,3.334,3.3003,3.3414,3.3643,3.3716,3.3726,3.3753,3.378,3.4074,3.4245,3.4269,3.4607,3.4791,3.4791,3.487,3.4908,3.4889,3.4566,3.4432,3.4503,3.4156,3.4047,3.4144,3.3782,3.3555,3.3538,3.3198,3.3014,3.3045,3.3528,3.3819,3.3867,3.4315,3.462,3.4652,3.4658,3.4675,3.4711,3.4733,3.4768,3.48,3.482,3.4812,3.4804,3.3945,3.3395,3.3358,3.3364,3.3312,3.3271,3.3646,3.3895,3.3893,3.4265,3.4507,3.4545,3.4826,3.5087,3.506,3.5353,3.5531,3.5331,3.5297,3.5273,3.5136,3.5054,3.5001,3.5021,3.5363,3.5496,3.519,3.5473,3.574,3.5704,3.5989,3.6288,3.6602,3.6423,3.659,3.721,3.7302,3.7405,3.7671,3.7971,3.8125,3.8132,3.8346,3.8491,3.8382,3.8164,3.784,3.7758,3.7744,3.7434,3.3345,3.3299,3.3386,3.3431,3.3414,3.3294,3.3425,3.3616,3.3125,3.295,3.2965,3.314,3.3135,3.3024,3.3226,3.3334,3.3393,3.3393,3.3067,3.2578,3.3161,3.3164,3.2674,3.3276,3.3577,3.3605,3.3643,3.3671,3.3698,3.3947,3.4099,3.4197,3.4473,3.4626,3.4645,3.4751,3.4792,3.4792,3.4792,3.4889,3.5092,3.5127,3.5179,3.5239,3.4726,3.4405,3.4356,3.3878,3.3588,3.3619,3.4292,3.4681,3.471,3.5383,3.5772,3.5779,3.5767,3.5787,3.5807,3.5839,3.5914,3.5962,3.5985,3.5988,3.5876,3.4796,3.3984,3.3984,3.4042,3.4015,3.4069,3.4436,3.4793,3.4836,3.5338,3.5611,3.5679,3.5698,3.5718,3.5716,3.5706,3.5676,3.557,3.5526,3.556,3.5584,3.5493,3.545,3.559,3.6179,3.6272,3.6043,3.6269,3.6631,3.6671,3.7034,3.7432,3.7581,3.7513,3.7713,3.819,3.8396,3.848,3.8859,3.8915,3.8876,3.8873,3.8803,3.8713,3.8603,3.8436,3.8423,3.8328,3.8296,3.8252,3.4442,3.4108,3.4102,3.3832,3.3474,3.3414,3.3536,3.3728,3.3878,3.3973,3.3856,3.3072,3.2838,3.2975,3.3042,3.3196,3.3393,3.3393,3.3357,3.3266,3.3357,3.3415,3.3346,3.3473,3.352,3.3605,3.3605,3.3605,3.3615,3.3868,3.4124,3.434,3.4409,3.4465,3.4465,3.4487,3.4491,3.4473,3.4431,3.4649,3.5075,3.5212,3.5277,3.5312,3.5292,3.5283,3.5206,3.5335,3.5341,3.5372,3.5469,3.556,3.5579,3.5667,3.5728,3.5706,3.5715,3.5741,3.5794,3.5807,3.5833,3.589,3.5914,3.5947,3.5988,3.5857,3.5732,3.5663,3.5703,3.5625,3.5741,3.5706,3.5656,3.5585,3.5715,3.5766,3.5708,3.5766,3.5766,3.5699,3.5728,3.5757,3.5712,3.5767,3.5913,3.6381,3.6447,3.661,3.7067,3.7355,3.7544,3.7431,3.7583,3.7583,3.76,3.7602,3.8099,3.8595,3.8572,3.8788,3.9226,3.9397,3.9451,3.927,3.9272,3.9192,3.9129,3.9007,3.8833,3.8844,3.8707,3.851,3.8415,3.8382,3.8387,3.4828,3.4764,3.481,3.4852,3.4779,3.4372,3.4253,3.4394,3.4094,3.4002,3.395,3.3616,3.3441,3.3377,3.3126,3.3147,3.3393,3.3393,3.3393,3.3393,3.3393,3.3393,3.3422,3.3422,3.347,3.3481,3.352,3.3577,3.3633,3.3807,3.4186,3.4733,3.489,3.5163,3.559,3.577,3.5819,3.5819,3.5866,3.5964,3.609,3.5401,3.5089,3.5277,3.5343,3.5335,3.533,3.5441,3.5515,3.5528,3.5579,3.5616,3.5639,3.5639,3.5643,3.5629,3.5669,3.5708,3.5741,3.5729,3.5772,3.5827,3.5883,3.5894,3.5938,3.5986,3.6004,3.6005,3.6014,3.6016,3.5996,3.5976,3.5945,3.5927,3.5905,3.5832,3.5765,3.5784,3.5775,3.5708,3.5718,3.597,3.6425,3.6908,3.724,3.7456,3.7445,3.7552,3.7764,3.8113,3.8402,3.8479,3.886,3.8936,3.8612,3.8917,3.9299,3.9604,3.9662,3.9812,3.9783,3.987,3.9785,3.9651,3.9532,3.9502,3.9483,3.9408,3.9305,3.9227,3.9055,3.8873,3.8683,3.8609,3.8546,3.4947,3.5088,3.5291,3.552,3.5677,3.5169,3.5018,3.5079,3.4634,3.4418,3.4442,3.4369,3.4254,3.4093,3.3647,3.3559,3.3764,3.3579,3.3471,3.3453,3.3273,3.3196,3.3256,3.3286,3.3334,3.3429,3.3687,3.3975,3.4207,3.4357,3.4752,3.5303,3.5514,3.5882,3.6417,3.657,3.6649,3.6649,3.6701,3.6708,3.6438,3.5547,3.5152,3.5432,3.5272,3.5171,3.5203,3.5281,3.5494,3.5792,3.5809,3.5965,3.6241,3.626,3.6254,3.6272,3.6284,3.6361,3.6396,3.6144,3.6163,3.6414,3.6163,3.5976,3.6156,3.6094,3.602,3.601,3.6009,3.6016,3.6016,3.6016,3.6016,3.5992,3.5962,3.5898,3.5846,3.5976,3.6153,3.6096,3.6435,3.6667,3.7346,3.7919,3.8248,3.8454,3.8434,3.8498,3.8597,3.9073,3.9423,3.9406,3.9978,4.002,3.9489,3.9681,4.0253,4.0329,4.0234,4.0139,4.0098,4.0058,4.0058,3.9935,3.9848,3.9781,3.9739,3.9739,3.967,3.9575,3.9427,3.921,3.896,3.8881,3.8792,3.4947,3.5152,3.54,3.5503,3.5622,3.5571,3.5599,3.5681,3.5664,3.5752,3.5685,3.5164,3.5029,3.5235,3.4676,3.4547,3.4712,3.3986,3.3718,3.3683,3.3044,3.277,3.3006,3.3006,3.3219,3.3635,3.4262,3.4969,3.5739,3.583,3.6003,3.6241,3.625,3.6303,3.6457,3.6515,3.6397,3.6554,3.6536,3.6205,3.5771,3.5597,3.5652,3.5939,3.5268,3.4982,3.5095,3.5098,3.5557,3.6504,3.6546,3.6954,3.7723,3.782,3.7791,3.7775,3.7795,3.7855,3.7764,3.7158,3.7108,3.7725,3.6714,3.62,3.6936,3.6536,3.625,3.6072,3.6172,3.6103,3.6191,3.623,3.6172,3.6211,3.6113,3.6105,3.6005,3.6701,3.7003,3.715,3.7674,3.8149,3.833,3.8361,3.884,3.9286,3.9486,3.9673,4.0146,4.0447,4.0472,4.0458,4.0501,4.05,4.0269,4.0214,4.0272,4.0329,4.031,4.0272,4.0272,4.0272,4.0253,4.0196,4.0077,3.9996,3.9954,3.9889,3.9758,3.9689,3.9665,3.9477,3.9237,3.921,3.9101,3.4994,3.5105,3.54,3.552,3.552,3.5594,3.5622,3.5667,3.5773,3.5817,3.5854,3.5702,3.5668,3.5744,3.5545,3.5235,3.4853,3.4076,3.3969,3.4323,3.3634,3.3649,3.4365,3.4331,3.4464,3.4826,3.511,3.5476,3.5884,3.6,3.6328,3.6868,3.6941,3.7234,3.7741,3.7845,3.7845,3.7845,3.7845,3.7779,3.7516,3.6665,3.6482,3.7094,3.6139,3.5833,3.6379,3.5949,3.6141,3.7126,3.6721,3.69,3.7801,3.7947,3.7694,3.7243,3.7161,3.6972,3.6601,3.6736,3.6974,3.7266,3.7359,3.7356,3.7728,3.7663,3.7552,3.7468,3.7025,3.6997,3.7416,3.718,3.7063,3.7537,3.7616,3.7526,3.76,3.7799,3.7944,3.8052,3.8674,3.9217,3.9324,3.9664,4.0102,4.0335,4.038,4.049,4.0648,4.0694,4.0668,4.0635,4.0621,4.0559,4.0539,4.0392,4.036,4.0342,4.0344,4.031,4.031,4.031,4.0291,4.0273,4.0176,4.0176,4.0137,4.0117,3.9994,3.987,3.9867,3.9735,3.9521,3.9477,3.9324,3.4994,3.5198,3.5354,3.5475,3.5537,3.5594,3.5639,3.5639,3.5667,3.5728,3.5756,3.5844,3.5888,3.5932,3.5949,3.5717,3.522,3.4434,3.4384,3.4766,3.4012,3.4144,3.4854,3.4925,3.5135,3.5591,3.5941,3.624,3.659,3.6703,3.707,3.7619,3.7674,3.7992,3.8548,3.8689,3.8707,3.8707,3.8707,3.8621,3.8354,3.7183,3.6786,3.7236,3.6676,3.6351,3.6716,3.6193,3.6224,3.6861,3.671,3.6939,3.7672,3.7797,3.7597,3.7153,3.7352,3.7281,3.6881,3.7261,3.7751,3.7951,3.7758,3.792,3.853,3.8252,3.817,3.82,3.7769,3.7663,3.843,3.7959,3.7647,3.8407,3.8554,3.8532,3.8524,3.8714,3.8971,3.9276,3.9723,4.0053,4.0178,4.0577,4.082,4.0917,4.0888,4.0826,4.0815,4.0761,4.0694,4.0694,4.0706,4.0706,4.07,4.0635,4.0454,4.0406,4.0375,4.0344,4.0347,4.0329,4.031,4.031,4.0329,4.0329,4.0329,4.0329,4.0234,4.0117,4.0077,3.9996,3.9848,3.9717,3.9599,3.5041,3.5245,3.5308,3.5412,3.5594,3.556,3.5639,3.5639,3.5639,3.5622,3.5622,3.5622,3.5711,3.5773,3.5817,3.5854,3.5754,3.5162,3.4905,3.4922,3.4161,3.4172,3.4791,3.4826,3.5155,3.5759,3.657,3.729,3.7851,3.7969,3.8158,3.8328,3.8337,3.8382,3.8511,3.8621,3.8707,3.8707,3.8707,3.8389,3.7632,3.6943,3.6611,3.6747,3.6575,3.6218,3.5783,3.5773,3.5957,3.6182,3.6732,3.7251,3.7471,3.7622,3.771,3.7819,3.8484,3.8988,3.9065,3.896,3.922,3.9648,3.8318,3.7904,3.8896,3.8227,3.7778,3.8358,3.7981,3.7979,3.9131,3.8395,3.7862,3.8466,3.8812,3.8724,3.8847,3.9326,4.0081,4.0625,4.0791,4.0878,4.0935,4.0906,4.0917,4.0945,4.0936,4.0888,4.0869,4.0859,4.0898,4.0869,4.0859,4.0839,4.0858,4.0826,4.0642,4.0481,4.0454,4.0408,4.0396,4.0381,4.0345,4.0327,4.031,4.031,4.0329,4.0329,4.0329,4.0234,4.0234,4.0196,4.0077,3.9935,3.987,3.4994,3.5152,3.5245,3.5383,3.552,3.5594,3.5639,3.5639,3.5639,3.5639,3.5639,3.5639,3.5622,3.5667,3.5667,3.5667,3.5694,3.5457,3.546,3.5437,3.478,3.4905,3.5578,3.5665,3.5946,3.6518,3.7059,3.7505,3.7791,3.8088,3.8259,3.831,3.834,3.8382,3.8442,3.851,3.8541,3.8578,3.8658,3.8573,3.8295,3.7137,3.6796,3.7165,3.5899,3.512,3.5559,3.6081,3.6459,3.6629,3.6385,3.6572,3.7196,3.7509,3.7604,3.7697,3.7976,3.823,3.8328,3.8435,3.8834,3.9364,3.8912,3.8852,3.9315,3.893,3.8753,3.9135,3.8583,3.8565,3.9388,3.9379,3.9258,4.0196,3.9803,3.9656,4.0072,4.0465,4.0745,4.0924,4.0985,4.0966,4.0936,4.0888,4.0917,4.0936,4.0917,4.0888,4.0888,4.0907,4.0888,4.0888,4.0936,4.0954,4.0936,4.0927,4.0809,4.0662,4.0596,4.0511,4.0454,4.0444,4.0411,4.036,4.0327,4.0329,4.0329,4.0329,4.0329,4.0329,4.0291,4.0234,4.0196,4.0118,4.0038,3.4994,3.5088,3.5245,3.54,3.5492,3.5594,3.5639,3.5639,3.5639,3.5639,3.5577,3.5594,3.5566,3.5532,3.5503,3.5503,3.5503,3.5549,3.5639,3.5739,3.5331,3.5522,3.6224,3.6392,3.6557,3.6917,3.7264,3.7413,3.7468,3.7828,3.8036,3.8101,3.8204,3.8322,3.8368,3.8446,3.851,3.851,3.8627,3.8719,3.8467,3.7284,3.6759,3.6971,3.5595,3.5033,3.5535,3.6278,3.6466,3.6011,3.5521,3.5672,3.6233,3.6666,3.7034,3.7224,3.7828,3.8314,3.8373,3.8823,3.9089,3.9565,3.9161,3.9028,3.9168,3.9,3.864,3.8986,3.8688,3.8661,3.9111,3.894,3.9385,4.0491,4.0427,4.0518,4.1027,4.1113,4.1084,4.1037,4.1023,4.0965,4.0946,4.0907,4.0907,4.0888,4.0888,4.0917,4.0917,4.0945,4.0945,4.0935,4.0963,4.0971,4.098,4.098,4.096,4.0859,4.0757,4.0642,4.0568,4.0526,4.05,4.0454,4.0427,4.0379,4.0362,4.0329,4.0329,4.0329,4.031,4.0291,4.0253,4.0273,4.0215,3.4994,3.5088,3.5245,3.5354,3.5492,3.5549,3.5577,3.5622,3.5594,3.5594,3.5577,3.552,3.5492,3.5492,3.5383,3.5354,3.5354,3.5446,3.5492,3.552,3.5493,3.5749,3.6054,3.6416,3.6638,3.6851,3.7052,3.7111,3.7091,3.7559,3.7684,3.7695,3.808,3.8256,3.8271,3.8382,3.8478,3.8478,3.8609,3.8689,3.8615,3.7256,3.6528,3.6546,3.5718,3.5237,3.5367,3.5925,3.5739,3.4556,3.4605,3.4678,3.4839,3.5558,3.6253,3.6729,3.8154,3.8908,3.9369,3.9665,4.0181,4.0219,3.9027,3.8358,3.8903,3.8003,3.7491,3.8151,3.8315,3.8397,3.8362,3.8163,3.8505,3.9604,4.0382,4.0811,4.1074,4.105,4.0947,4.1047,4.1042,4.0994,4.0975,4.0946,4.0917,4.0917,4.0917,4.0954,4.0963,4.0971,4.098,4.0988,4.0988,4.0976,4.0984,4.103,4.1011,4.0976,4.0906,4.0829,4.0692,4.0642,4.0582,4.0545,4.0515,4.0473,4.0408,4.0379,4.0327,4.0327,4.0346,4.0329,4.0329,4.0329,4.0291,3.4994,3.5105,3.5135,3.5291,3.5492,3.552,3.5583,3.5594,3.5599,3.5667,3.5583,3.5429,3.5501,3.5508,3.5388,3.5308,3.5392,3.5421,3.54,3.5492,3.5537,3.5594,3.5711,3.5854,3.6045,3.6191,3.6533,3.6638,3.6794,3.7356,3.7542,3.7363,3.7946,3.8124,3.7952,3.8189,3.8322,3.8368,3.8496,3.8559,3.8352,3.7245,3.6528,3.638,3.5291,3.4699,3.455,3.4736,3.507,3.5144,3.4561,3.4609,3.5245,3.5816,3.6669,3.7871,3.8626,3.9487,3.9919,3.9854,3.9931,4.0296,3.9008,3.8137,3.8281,3.7376,3.7,3.7348,3.7841,3.8315,3.8435,3.8779,3.9304,3.9667,4.0122,4.0511,4.0869,4.0605,4.0429,4.0956,4.1039,4.1,4.0991,4.0984,4.0954,4.0954,4.0963,4.096,4.0988,4.0988,4.0996,4.0996,4.1003,4.0991,4.1006,4.1052,4.1078,4.1059,4.1025,4.1003,4.0897,4.0819,4.0718,4.0635,4.0621,4.0564,4.05,4.0454,4.0425,4.0394,4.0326,4.0328,4.031,4.031,4.0329,3.5129,3.5459,3.5507,3.5849,3.6212,3.634,3.637,3.64,3.637,3.637,3.6354,3.6229,3.6181,3.6229,3.615,3.6085,3.6069,3.6133,3.6198,3.6293,3.6438,3.619,3.587,3.5684,3.5756,3.5905,3.6191,3.6343,3.655,3.7167,3.7323,3.738,3.7844,3.809,3.8005,3.8158,3.8307,3.8322,3.8382,3.846,3.8368,3.7393,3.6948,3.6656,3.5697,3.5254,3.5658,3.5776,3.5757,3.5497,3.5058,3.507,3.5565,3.6156,3.7154,3.861,3.8899,3.9444,4.0223,4.0062,4.0046,4.0196,3.9219,3.8681,3.8334,3.7469,3.676,3.691,3.7394,3.7665,3.7957,3.893,3.9663,3.9794,3.9837,4.0203,4.101,4.0752,4.066,4.0937,4.1043,4.1018,4.1025,4.1023,4.0999,4.098,4.0988,4.0976,4.0984,4.1011,4.103,4.1038,4.1045,4.1052,4.1032,4.1078,4.1085,4.1085,4.1085,4.1085,4.1011,4.0915,4.0849,4.0761,4.0713,4.0675,4.0629,4.0568,4.0515,4.0473,4.0394,4.0362,4.0363,4.0346,4.0346,3.5512,3.6108,3.6223,3.6654,3.722,3.7419,3.7367,3.7435,3.7335,3.7351,3.7351,3.7336,3.7103,3.727,3.6937,3.7036,3.7036,3.697,3.717,3.7219,3.7282,3.6986,3.6243,3.6051,3.597,3.5922,3.6096,3.6165,3.636,3.6838,3.7073,3.7208,3.7739,3.8072,3.8003,3.8174,3.8292,3.8307,3.8336,3.8401,3.8255,3.7619,3.7234,3.7118,3.6564,3.6656,3.7238,3.7477,3.6994,3.5788,3.5715,3.582,3.5975,3.6713,3.7514,3.834,3.8669,3.9108,4.0063,4.0165,4.0335,4.0277,3.9719,3.9296,3.8931,3.7834,3.6988,3.7021,3.7038,3.7479,3.773,3.8898,3.9687,3.9869,3.9833,4.0344,4.0847,4.103,4.0994,4.1103,4.1033,4.103,4.1046,4.1039,4.0976,4.1003,4.1011,4.1018,4.1025,4.1045,4.1071,4.1078,4.1104,4.1104,4.1104,4.111,4.111,4.111,4.111,4.1085,4.1018,4.096,4.0963,4.0917,4.0837,4.0804,4.0781,4.0725,4.0629,4.0574,4.0519,4.0473,4.0441,4.0427,4.0413,3.6721,3.687,3.6887,3.707,3.732,3.732,3.7452,3.7535,3.7403,3.7503,3.7469,3.7303,3.7269,3.7336,3.7302,3.7119,3.7235,3.7285,3.7219,3.732,3.7468,3.7498,3.7168,3.6874,3.6293,3.6027,3.5851,3.5983,3.6217,3.6683,3.669,3.6783,3.7516,3.7685,3.7594,3.7969,3.8225,3.8225,3.8274,3.8289,3.8227,3.7752,3.7424,3.7363,3.6895,3.7008,3.7405,3.7128,3.6943,3.7035,3.6819,3.6812,3.7237,3.7202,3.7649,3.8294,3.8194,3.8382,3.9191,3.9583,3.9762,4.0319,3.9854,3.9296,3.9238,3.8392,3.7777,3.7868,3.8389,3.8581,3.8806,3.9878,4.0229,4.0064,4.0363,4.0818,4.0925,4.0524,4.0539,4.0902,4.1054,4.0991,4.1026,4.1031,4.1013,4.1025,4.1045,4.1078,4.1085,4.1085,4.1085,4.111,4.111,4.111,4.111,4.111,4.111,4.111,4.111,4.1104,4.1025,4.0984,4.0968,4.0963,4.0907,4.0888,4.0888,4.0815,4.0745,4.0707,4.0662,4.0607,4.0545,4.0519,4.0646,3.7301,3.7615,3.7632,3.7866,3.8199,3.8233,3.8284,3.8335,3.8284,3.8284,3.8284,3.8181,3.8164,3.8233,3.8181,3.8146,3.8129,3.8129,3.8197,3.8266,3.8403,3.8321,3.8053,3.7814,3.7385,3.6789,3.6825,3.6882,3.7107,3.7422,3.7756,3.7575,3.7909,3.7996,3.7668,3.7792,3.7792,3.7933,3.8002,3.8088,3.8132,3.7972,3.7857,3.7882,3.7684,3.7808,3.819,3.7931,3.7913,3.8042,3.7942,3.7755,3.7906,3.7742,3.8037,3.8731,3.8326,3.8439,3.9166,3.9565,3.9848,4.0332,4.0034,3.995,3.9681,3.9084,3.8661,3.8599,3.8719,3.8865,3.9429,4.0242,4.0441,4.0493,4.0687,4.1013,4.1011,4.0677,4.0525,4.0974,4.1064,4.1054,4.1041,4.1042,4.1058,4.1065,4.1059,4.1091,4.1085,4.1104,4.1104,4.111,4.111,4.111,4.111,4.111,4.111,4.111,4.111,4.1091,4.1059,4.1025,4.0984,4.096,4.0943,4.0954,4.0946,4.0888,4.0856,4.0815,4.0761,4.0713,4.07,4.0698,4.0964,3.7798,3.8377,3.8377,3.8725,3.9222,3.9292,3.9242,3.9276,3.9288,3.9159,3.9309,3.9288,3.911,3.9206,3.9226,3.9255,3.9222,3.9226,3.9076,3.9093,3.9182,3.8985,3.8721,3.8673,3.8654,3.8195,3.7882,3.7891,3.8105,3.856,3.846,3.8798,3.8679,3.8483,3.8329,3.7807,3.7678,3.7899,3.7721,3.7774,3.8054,3.805,3.8147,3.8368,3.8475,3.8511,3.8693,3.8667,3.8759,3.8881,3.8881,3.858,3.8201,3.7995,3.832,3.9201,3.8289,3.8376,3.9131,3.9637,3.9833,4.0175,4.0372,4.0454,4.0261,3.9877,3.9585,3.9277,3.9191,3.9008,3.954,4.0268,4.0726,4.0801,4.0866,4.0984,4.1059,4.1103,4.1056,4.1072,4.1088,4.1072,4.1091,4.1091,4.11,4.1123,4.1123,4.1136,4.1149,4.1169,4.1208,4.113,4.111,4.111,4.111,4.1208,4.1188,4.1286,4.1247,4.1247,4.1182,4.1059,4.1025,4.0984,4.0988,4.0999,4.1002,4.0956,4.0917,4.0917,4.0927,4.0912,4.0905,4.0887,4.1384,3.899,3.909,3.9106,3.9172,3.9325,3.9288,3.9288,3.9288,3.9288,3.9288,3.9255,3.9272,3.9222,3.9189,3.9255,3.9255,3.9156,3.9222,3.9288,3.9288,3.9325,3.9196,3.9251,3.9308,3.9412,3.9278,3.8652,3.817,3.8227,3.8242,3.8763,3.8681,3.886,3.9003,3.8859,3.8478,3.8104,3.8026,3.7691,3.7592,3.7703,3.7915,3.8086,3.8446,3.8609,3.8689,3.8719,3.8719,3.8719,3.8719,3.8719,3.8688,3.853,3.8164,3.8154,3.8231,3.7839,3.7966,3.8757,3.8921,3.9352,3.991,4.0325,4.0449,4.0444,4.0364,4.0185,4.0162,4.0085,4.0081,4.0269,4.0552,4.0734,4.0849,4.0943,4.1052,4.1085,4.111,4.1117,4.1109,4.1113,4.1101,4.1112,4.1112,4.1103,4.1199,4.1315,4.1359,4.1401,4.1389,4.1403,4.1266,4.111,4.111,4.111,4.1247,4.1344,4.1539,4.1559,4.1578,4.1461,4.1188,4.1098,4.1493,4.1315,4.1066,4.1057,4.1099,4.1276,4.1461,4.1325,4.1199,4.1556,4.192,4.2307,3.9288,3.9288,3.9288,3.9288,3.9288,3.9288,3.9288,3.9288,3.9272,3.9056,3.8808,3.8709,3.8493,3.8245,3.8162,3.8328,3.8725,3.9139,3.9255,3.9288,3.9325,3.9325,3.9395,3.9537,3.9625,3.9613,3.9194,3.8971,3.92,3.9378,3.9371,3.9542,3.9558,3.9406,3.9259,3.8773,3.845,3.8146,3.7805,3.75,3.7521,3.7721,3.8034,3.8219,3.8528,3.8658,3.8707,3.8707,3.8707,3.8707,3.8707,3.8738,3.8651,3.8538,3.8358,3.8377,3.8108,3.8133,3.8721,3.893,3.9362,3.9884,4.0177,4.0342,4.0466,4.0495,4.0492,4.0508,4.0489,4.0489,4.0466,4.0602,4.0681,4.0807,4.0907,4.0996,4.1071,4.1124,4.1188,4.1227,4.1237,4.1226,4.1111,4.1107,4.1112,4.1247,4.1465,4.1581,4.1676,4.1939,4.2064,4.211,4.2071,4.2065,4.2026,4.2007,4.1987,4.2046,4.2104,4.2104,4.2182,4.2124,4.2273,4.2578,4.2155,4.147,4.1599,4.1824,4.1924,4.2072,4.2248,4.2413,4.2675,4.2995,4.3324,3.9288,3.9288,3.9288,3.9189,3.909,3.9222,3.9073,3.8907,3.8974,3.8626,3.8046,3.7963,3.7682,3.7317,3.74,3.7731,3.8226,3.8887,3.9185,3.9164,3.9218,3.9218,3.9272,3.9432,3.9537,3.9625,3.968,3.9986,4.0068,4.0231,4.0466,4.0388,4.0036,3.9939,3.983,3.9289,3.866,3.8347,3.8074,3.7796,3.7556,3.7685,3.7949,3.8018,3.8387,3.8578,3.8676,3.8707,3.8707,3.8707,3.8707,3.8707,3.8707,3.878,3.8862,3.895,3.8997,3.9082,3.9192,3.9345,3.9557,3.9895,4.01,4.0288,4.043,4.0495,4.0489,4.0489,4.0489,4.0489,4.0504,4.0549,4.0642,4.0773,4.0868,4.0975,4.131,4.152,4.1714,4.1675,4.1539,4.1401,4.1335,4.1499,4.1579,4.1364,4.1581,4.1984,4.2168,4.2889,4.3129,4.3259,4.3286,4.3293,4.3227,4.3111,4.3033,4.2974,4.2994,4.2994,4.3169,4.3325,4.3383,4.3189,4.2753,4.2194,4.2381,4.2521,4.2672,4.2898,4.3306,4.3569,4.3685,4.384,4.4122,3.9288,3.9272,3.9255,3.8854,3.8286,3.8887,3.8457,3.7444,3.806,3.7914,3.7334,3.7235,3.7152,3.7119,3.7698,3.7978,3.8187,3.8731,3.9023,3.8969,3.8969,3.9023,3.9094,3.9379,3.9484,3.9537,3.9677,3.9884,4.0138,4.0387,4.0485,4.0514,4.0607,4.0698,4.0491,3.9922,3.9589,3.933,3.8822,3.8269,3.7837,3.7598,3.7739,3.7862,3.8101,3.8318,3.8564,3.8627,3.8645,3.8707,3.8707,3.8707,3.8719,3.8822,3.8881,3.8939,3.8979,3.9064,3.9192,3.9383,3.9651,3.9873,4.0119,4.0325,4.0447,4.0511,4.0489,4.0489,4.0489,4.0489,4.0534,4.07,4.0761,4.0983,4.1199,4.1591,4.1961,4.2202,4.2377,4.2747,4.2786,4.2085,4.1674,4.1894,4.2056,4.1807,4.1732,4.2167,4.281,4.362,4.4153,4.4294,4.4323,4.4331,4.4377,4.4254,4.413,4.3994,4.3819,4.3799,4.3812,4.3858,4.3598,4.3364,4.3013,4.2909,4.3038,4.3191,4.34,4.346,4.35,4.3967,4.454,4.4695,4.4579,3.7576,3.7821,3.7837,3.7604,3.7321,3.7653,3.7738,3.7541,3.7444,3.7314,3.7036,3.6638,3.6274,3.6241,3.7019,3.7463,3.7675,3.8529,3.8898,3.8788,3.886,3.8914,3.9023,3.9148,3.9255,3.9484,3.9606,3.9729,3.9986,4.0171,4.032,4.0534,4.068,4.0806,4.0871,4.0543,4.0095,3.9595,3.8984,3.8303,3.7843,3.772,3.7648,3.7413,3.7632,3.7966,3.8252,3.8368,3.8483,3.8627,3.8707,3.8707,3.8719,3.8762,3.8851,3.891,3.8968,3.9036,3.9156,3.9298,3.9532,3.9766,3.9981,4.0139,4.0392,4.0492,4.0489,4.0489,4.0489,4.0508,4.0681,4.1041,4.1339,4.159,4.1879,4.2416,4.2843,4.2955,4.3215,4.3643,4.3936,4.3254,4.2572,4.2461,4.2356,4.1759,4.1967,4.2609,4.3515,4.4605,4.503,4.5277,4.5297,4.5289,4.5376,4.5364,4.5274,4.5053,4.4468,4.441,4.4267,4.4169,4.3806,4.3604,4.3383,4.3422,4.3591,4.3596,4.3533,4.3508,4.351,4.3996,4.4384,4.4171,4.419,3.5619,3.6065,3.6303,3.6231,3.6101,3.6352,3.662,3.6771,3.668,3.6519,3.6406,3.6092,3.5645,3.5596,3.6687,3.7446,3.7258,3.841,3.8761,3.875,3.875,3.8805,3.886,3.8969,3.9148,3.9379,3.9448,3.959,3.9781,3.9969,4.0171,4.0485,4.0631,4.0793,4.0888,4.0802,4.0543,4.0077,3.9336,3.8622,3.7992,3.7885,3.7516,3.7242,3.7208,3.7542,3.7861,3.8101,3.8285,3.8433,3.8676,3.8707,3.8707,3.8762,3.8822,3.8881,3.895,3.9026,3.9092,3.9192,3.9376,3.9628,3.9878,4.0101,4.0392,4.0492,4.0492,4.0492,4.0854,4.0854,4.1004,4.1636,4.2121,4.2511,4.2826,4.3374,4.3814,4.3876,4.4182,4.4734,4.491,4.4598,4.3955,4.3371,4.2734,4.185,4.2134,4.2982,4.4015,4.5195,4.5546,4.572,4.5827,4.5792,4.5843,4.5982,4.6064,4.5819,4.5214,4.4707,4.4348,4.4044,4.3707,4.3604,4.3611,4.3325,4.313,4.3389,4.3607,4.3583,4.3596,4.3831,4.3986,4.3782,4.3947,3.3786,3.4343,3.5144,3.5038,3.4422,3.5546,3.5303,3.4626,3.5344,3.5399,3.5202,3.5482,3.5844,3.6141,3.7133,3.7771,3.7642,3.8444,3.8574,3.8544,3.856,3.8616,3.8727,3.8876,3.904,3.9077,3.9218,3.9432,3.9677,3.9781,4.007,4.0419,4.0583,4.0745,4.084,4.0871,4.0853,4.0491,3.9957,3.9267,3.856,3.8088,3.7488,3.7079,3.6992,3.7132,3.7542,3.7844,3.8101,3.8219,3.8533,3.8707,3.8689,3.875,3.8792,3.8833,3.8892,3.8997,3.9036,3.9183,3.9427,3.9628,3.9973,4.0311,4.0572,4.0581,4.0559,4.0844,4.1415,4.1662,4.1963,4.2468,4.3014,4.3291,4.3652,4.4169,4.4558,4.4717,4.509,4.5787,4.5787,4.5377,4.5183,4.4559,4.3507,4.2623,4.2966,4.3802,4.4286,4.5241,4.5659,4.5917,4.6092,4.6106,4.6026,4.6039,4.587,4.5535,4.5008,4.4484,4.4042,4.3778,4.3626,4.3616,4.3565,4.3104,4.2838,4.3284,4.358,4.3583,4.3547,4.3276,4.3676,4.3917,4.4159,3.2656,3.2935,3.3286,3.3677,3.413,3.461,3.4794,3.4732,3.4789,3.502,3.5218,3.5923,3.6268,3.6631,3.7255,3.7793,3.7677,3.8329,3.8479,3.8464,3.8464,3.8504,3.8616,3.8655,3.8805,3.8914,3.9094,3.9272,3.9537,3.9625,3.9867,4.0238,4.0502,4.0648,4.0728,4.0823,4.0871,4.0819,4.0543,4.0043,3.9388,3.8991,3.8338,3.7324,3.7262,3.7236,3.7332,3.7559,3.7879,3.8186,3.8515,3.8627,3.8707,3.8719,3.8799,3.8829,3.8918,3.8995,3.9071,3.9212,3.9298,3.9712,4.0293,4.0883,4.0979,4.1548,4.1944,4.2208,4.2319,4.2566,4.2717,4.333,4.3917,4.4105,4.4434,4.4921,4.5161,4.5317,4.5496,4.5979,4.6091,4.5942,4.5825,4.5689,4.454,4.3526,4.4052,4.4518,4.487,4.5254,4.5662,4.6024,4.6209,4.6269,4.6191,4.5936,4.5637,4.5229,4.4819,4.4409,4.3981,4.3781,4.3674,4.365,4.3616,4.337,4.3273,4.3432,4.3358,4.3047,4.2591,4.2135,4.2811,4.3857,4.4331,3.2104,3.2287,3.2358,3.2873,3.3678,3.3848,3.4239,3.4729,3.4704,3.4982,3.575,3.6453,3.6796,3.6992,3.76,3.7976,3.7975,3.8205,3.8214,3.8164,3.8033,3.8017,3.8075,3.8132,3.8157,3.8511,3.8788,3.8952,3.9362,3.9573,3.9867,4.0121,4.0387,4.0583,4.0697,4.084,4.0871,4.0871,4.0819,4.0474,3.9784,3.9319,3.875,3.7551,3.7249,3.7102,3.7158,3.7413,3.7827,3.8171,3.8483,3.8658,3.8707,3.8726,3.8866,3.8964,3.9006,3.9084,3.9438,3.9249,3.9275,3.9533,4.0541,4.1081,4.1568,4.2298,4.262,4.2846,4.3129,4.3451,4.3511,4.4179,4.4677,4.4874,4.5066,4.5454,4.5576,4.5703,4.5852,4.6091,4.6096,4.6098,4.6118,4.5962,4.528,4.4189,4.3884,4.4345,4.483,4.5236,4.5679,4.6007,4.6273,4.63,4.6264,4.5817,4.539,4.5115,4.4725,4.4433,4.4082,4.3945,4.3768,4.3663,4.3645,4.3626,4.3617,4.3622,4.2988,4.2257,4.2183,4.2412,4.283,4.3893,4.4374,3.2302,3.2586,3.2578,3.2742,3.3027,3.3314,3.3582,3.3857,3.4719,3.5437,3.6093,3.6809,3.7122,3.7268,3.7744,3.7882,3.7923,3.7873,3.7828,3.7669,3.7401,3.7103,3.7147,3.7251,3.7578,3.7578,3.7969,3.8479,3.899,3.9345,3.9713,4.002,4.0271,4.0514,4.068,4.0823,4.0871,4.0853,4.0802,4.0405,3.975,3.9181,3.8491,3.7638,3.7093,3.698,3.7066,3.7431,3.7827,3.8153,3.8533,3.8676,3.8707,3.8817,3.9093,3.9546,3.9264,3.9755,4.0812,3.9785,3.9518,3.9668,4.0702,4.1268,4.1518,4.2258,4.3197,4.3579,4.3864,4.4224,4.4568,4.4932,4.5257,4.5445,4.5603,4.5684,4.5789,4.5829,4.5914,4.6018,4.6041,4.604,4.6137,4.6079,4.5689,4.4949,4.413,4.4215,4.4916,4.5337,4.5821,4.6011,4.6277,4.6306,4.6175,4.5584,4.5155,4.4898,4.4845,4.4815,4.4624,4.4469,4.4217,4.3906,4.4096,4.4461,4.4104,4.3733,4.3547,4.3527,4.3277,4.3412,4.3652,4.3986,4.464,3.2646,3.2817,3.2817,3.2988,3.3191,3.3099,3.3055,3.3303,3.4638,3.5806,3.643,3.6669,3.6587,3.6642,3.6606,3.6811,3.6801,3.7291,3.7222,3.7163,3.6906,3.6966,3.689,3.6829,3.7087,3.7342,3.7679,3.7911,3.827,3.8843,3.9169,3.947,4.007,4.0257,4.0294,4.044,4.0698,4.0302,4.0457,4.0509,3.9784,3.9388,3.8732,3.7594,3.7343,3.7172,3.7083,3.7521,3.8007,3.8298,3.8679,3.8854,3.8927,3.9056,3.935,3.9625,3.9516,4.0565,4.1093,4.0665,4.0378,4.0458,4.1022,4.1736,4.1968,4.359,4.4268,4.4423,4.4537,4.4861,4.5225,4.5337,4.5528,4.5545,4.5616,4.5661,4.5703,4.5747,4.5783,4.5902,4.5969,4.6041,4.6142,4.6196,4.5903,4.5806,4.5105,4.5105,4.5664,4.5793,4.6098,4.6133,4.6245,4.6273,4.612,4.5753,4.5636,4.56,4.5698,4.5818,4.5548,4.5121,4.5208,4.5154,4.5272,4.5343,4.5041,4.4849,4.5123,4.5152,4.4637,4.4305,4.4389,4.4781,4.537,3.2724,3.2826,3.2796,3.3035,3.3236,3.2974,3.3013,3.3529,3.4591,3.5551,3.6059,3.5775,3.5502,3.5506,3.559,3.5654,3.5792,3.6352,3.6677,3.6616,3.643,3.6368,3.6368,3.643,3.6445,3.6799,3.7103,3.7326,3.7679,3.827,3.881,3.9348,3.9868,3.9958,3.9989,4.0129,4.0233,3.9957,4.0146,4.0371,4.0043,3.9715,3.9077,3.8294,3.7863,3.7728,3.751,3.7842,3.851,3.8767,3.9086,3.9282,3.9423,3.946,3.9625,3.968,4.0212,4.0905,4.0799,4.0719,4.0332,4.023,4.1657,4.2197,4.2319,4.3488,4.4113,4.4461,4.4882,4.5016,4.5072,4.5204,4.5568,4.5586,4.562,4.5632,4.5648,4.5677,4.5703,4.5815,4.5879,4.5968,4.6099,4.6162,4.6098,4.6137,4.6137,4.6196,4.6196,4.6209,4.6209,4.622,4.6255,4.6284,4.6292,4.6199,4.6163,4.628,4.63,4.63,4.6225,4.5799,4.6102,4.6301,4.6013,4.5879,4.6014,4.6045,4.5889,4.5754,4.5502,4.5269,4.5168,4.5433,4.5835,3.262,3.2703,3.2767,3.2893,3.2998,3.294,3.3516,3.4515,3.4425,3.4714,3.5248,3.4741,3.4513,3.4572,3.5108,3.5354,3.5553,3.5967,3.6134,3.6085,3.591,3.5733,3.5668,3.5668,3.591,3.607,3.629,3.6784,3.7131,3.7738,3.8535,3.9295,3.9679,3.9712,3.9692,3.9738,3.9819,3.9802,4.0043,4.0267,4.0215,3.9939,3.925,3.8674,3.8434,3.8154,3.8139,3.8655,3.9301,3.9767,4.0258,4.0276,4.0157,3.9918,3.9918,4.0157,4.0763,4.0501,4.0478,4.0436,4.0425,4.0621,4.209,4.207,4.2111,4.2832,4.3479,4.3732,4.3944,4.4192,4.4382,4.4976,4.555,4.5568,4.5586,4.5603,4.5603,4.5618,4.5648,4.5692,4.5733,4.5822,4.5998,4.6091,4.6084,4.6196,4.6196,4.6196,4.6203,4.6209,4.6203,4.6209,4.6245,4.6279,4.6288,4.6296,4.63,4.63,4.63,4.63,4.63,4.63,4.629,4.6293,4.6306,4.6262,4.6207,4.6199,4.6162,4.6027,4.5896,4.5833,4.5608,4.5619,4.5887,3.3652,3.3425,3.341,3.3425,3.3495,3.3428,3.3814,3.4346,3.4025,3.4435,3.5657,3.4615,3.4147,3.425,3.4241,3.4349,3.4696,3.512,3.5499,3.5539,3.5554,3.5489,3.5489,3.5489,3.5604,3.5767,3.607,3.6383,3.6616,3.7222,3.81,3.8882,3.9401,3.9413,3.9501,3.9576,3.9704,3.9853,4.0164,4.025,4.0215,3.9939,3.9319,3.895,3.8891,3.8651,3.8907,3.9274,3.9848,4.0347,4.0542,4.0477,4.001,4.0396,4.0744,4.0689,4.0616,4.0322,4.0777,4.1291,4.125,4.0911,4.2076,4.2058,4.1844,4.1965,4.2768,4.2851,4.3216,4.358,4.4019,4.4593,4.5129,4.5337,4.5432,4.5586,4.5586,4.5603,4.5635,4.5613,4.5623,4.5543,4.5753,4.5861,4.5877,4.6084,4.6196,4.6196,4.6196,4.6209,4.6209,4.6203,4.6215,4.625,4.6284,4.6292,4.6296,4.63,4.63,4.63,4.63,4.63,4.63,4.63,4.63,4.6258,4.6211,4.6204,4.6234,4.6211,4.6092,4.6111,4.6105,4.6003,4.5944,3.4234,3.3966,3.3937,3.382,3.3623,3.336,3.3387,3.3598,3.3534,3.4154,3.4778,3.3878,3.35,3.3441,3.3422,3.3568,3.4006,3.4545,3.5016,3.5409,3.5424,3.5489,3.5489,3.5489,3.5554,3.5668,3.5846,3.61,3.6336,3.6754,3.7578,3.8294,3.8887,3.9222,3.9495,3.9884,4.0169,4.0215,4.0267,4.0267,4.0215,4.0112,3.9681,3.925,3.934,3.9494,3.9406,3.9733,4.0481,4.0885,4.0997,4.125,4.0687,4.0738,4.0304,4.0084,3.9717,3.9625,3.9937,4.0708,4.0735,4.0756,4.1237,4.1064,4.1111,4.1207,4.1561,4.1799,4.2489,4.312,4.3618,4.4134,4.4592,4.5031,4.5299,4.5566,4.5586,4.5586,4.5565,4.5543,4.5449,4.5297,4.5343,4.5462,4.5589,4.5624,4.5889,4.6196,4.6196,4.6203,4.6203,4.6209,4.6209,4.622,4.6255,4.6288,4.6296,4.63,4.63,4.63,4.63,4.63,4.63,4.63,4.63,4.6258,4.6246,4.6247,4.625,4.6241,4.6218,4.6182,4.6125,4.6066,4.6005,3.4414,3.437,3.4356,3.3949,3.3412,3.2832,3.2556,3.2585,3.3129,3.3493,3.3449,3.2977,3.2954,3.3223,3.3223,3.3542,3.3965,3.4395,3.4807,3.5213,3.5439,3.5504,3.5489,3.5489,3.5504,3.5619,3.5797,3.61,3.6163,3.6585,3.7058,3.7605,3.8278,3.8863,3.9547,4.005,4.0343,4.0582,4.0358,4.0238,4.0681,4.0733,4.0578,4.006,4.0193,4.0424,3.9919,4.0341,4.1464,4.157,4.1851,4.2304,4.1665,4.0577,3.9722,3.9221,3.9056,3.8982,3.9276,3.9882,3.9785,3.9676,3.9589,4.0057,4.0397,4.0524,4.0791,4.1015,4.1647,4.2145,4.2622,4.3407,4.4,4.4515,4.4916,4.528,4.5566,4.5413,4.5141,4.5007,4.4633,4.4506,4.4421,4.4541,4.487,4.4996,4.5324,4.5823,4.6196,4.6196,4.6196,4.6196,4.6196,4.6215,4.6226,4.6255,4.6288,4.6296,4.63,4.63,4.63,4.63,4.63,4.63,4.63,4.63,4.629,4.6273,4.6278,4.6282,4.6249,4.621,4.6173,4.6125,4.6074,3.4414,3.4356,3.3891,3.3652,3.3398,3.2788,3.2498,3.2527,3.2658,3.3006,3.3441,3.3746,3.3862,3.3717,3.3703,3.401,3.4317,3.4398,3.4904,3.5184,3.5374,3.5504,3.5489,3.5489,3.5489,3.5619,3.5812,3.6178,3.6367,3.6538,3.6785,3.7254,3.7854,3.8525,3.9246,3.9833,4.0254,4.0614,4.0573,4.0449,4.0802,4.0871,4.0733,4.0612,4.0797,4.0856,4.0568,4.0861,4.1578,4.1866,4.2329,4.2429,4.2132,4.073,3.9937,3.9551,3.9001,3.8762,3.8927,3.9386,3.9601,3.9687,3.9835,4.0015,4.0132,4.0083,4.017,4.0397,4.073,4.1189,4.1742,4.2603,4.3426,4.3961,4.4533,4.503,4.549,4.5124,4.472,4.4275,4.3849,4.3663,4.3564,4.3776,4.4075,4.4413,4.4773,4.5265,4.5959,4.6181,4.6162,4.6169,4.619,4.6209,4.6215,4.625,4.6264,4.6292,4.6296,4.63,4.63,4.63,4.63,4.63,4.63,4.63,4.63,4.6303,4.6284,4.6303,4.6287,4.6245,4.6248,4.6205,4.6158,3.4414,3.4327,3.3732,3.3296,3.2962,3.2353,3.1932,3.1743,3.1946,3.2376,3.2948,3.3527,3.3926,3.3941,3.3912,3.4254,3.4447,3.4383,3.4618,3.4963,3.5294,3.5439,3.5439,3.5489,3.5539,3.5668,3.5973,3.6226,3.6492,3.6492,3.6739,3.6999,3.7476,3.8042,3.8766,3.9342,3.9885,4.0271,4.0551,4.0697,4.0793,4.0871,4.0871,4.0871,4.0918,4.1012,4.1088,4.1209,4.1418,4.1856,4.231,4.2466,4.2097,4.1134,4.0341,3.9753,3.9203,3.8707,3.8946,3.9294,3.9662,3.9601,3.9871,3.9993,3.9536,3.9526,3.9825,4.0063,4.0247,4.0672,4.1036,4.1762,4.2622,4.329,4.4016,4.4647,4.4818,4.4662,4.4182,4.3643,4.3256,4.2945,4.2984,4.3385,4.3789,4.4511,4.4777,4.5122,4.5716,4.5994,4.6021,4.6127,4.615,4.6196,4.6209,4.622,4.6236,4.6264,4.6292,4.6296,4.63,4.63,4.63,4.63,4.63,4.63,4.63,4.63,4.63,4.6303,4.6303,4.6287,4.6273,4.6261,4.6229,3.4356,3.4211,3.3601,3.2977,3.2367,3.1787,3.1264,3.093,3.1348,3.1801,3.2277,3.2895,3.3244,3.344,3.3417,3.3859,3.4167,3.4251,3.4442,3.4817,3.5148,3.5374,3.5504,3.5489,3.5604,3.5782,3.6085,3.6289,3.6492,3.6492,3.6647,3.6816,3.7183,3.7737,3.8232,3.8874,3.9454,3.9885,4.0204,4.0534,4.068,4.0823,4.0871,4.0871,4.0918,4.0982,4.1059,4.1059,4.1161,4.164,4.2169,4.2519,4.241,4.1754,4.0965,4.0267,3.9478,3.9019,3.8891,3.9221,3.9166,3.9111,3.9595,3.9577,3.9135,3.9193,3.9502,3.9735,3.9908,4.0191,4.0578,4.0959,4.1818,4.2678,4.3461,4.4072,4.4107,4.4028,4.347,4.2912,4.2547,4.2181,4.2383,4.2787,4.341,4.4192,4.4808,4.5286,4.56,4.5578,4.56,4.5861,4.6083,4.6115,4.619,4.6215,4.6231,4.626,4.6288,4.6296,4.63,4.63,4.63,4.63,4.63,4.63,4.63,4.63,4.63,4.63,4.63,4.63,4.6303,4.6273,4.6278,3.4109,3.3587,3.2962,3.2338,3.1758,3.1569,3.1391,3.1296,3.1766,3.2012,3.2139,3.2506,3.3072,3.3833,3.3779,3.4031,3.4163,3.4205,3.4545,3.492,3.5228,3.5439,3.5504,3.5554,3.5668,3.591,3.6148,3.6274,3.6492,3.6492,3.6647,3.697,3.6969,3.7449,3.8026,3.8541,3.8865,3.9401,3.9782,4.0104,4.0534,4.0728,4.0871,4.0871,4.0871,4.0982,4.0955,4.0527,4.0837,4.1376,4.2074,4.2609,4.263,4.2252,4.1552,4.0708,3.9918,3.9258,3.9111,3.9019,3.8817,3.8817,3.9124,3.9081,3.887,3.8939,3.9219,3.9458,3.9712,4.0055,4.0367,4.0425,4.1055,4.1951,4.279,4.3131,4.3319,4.2874,4.2335,4.1893,4.1489,4.1316,4.1312,4.1724,4.214,4.2859,4.341,4.4001,4.5196,4.5195,4.5223,4.5567,4.5939,4.6083,4.6176,4.6203,4.622,4.625,4.6264,4.6292,4.63,4.63,4.63,4.63,4.63,4.63,4.63,4.63,4.63,4.63,4.63,4.63,4.63,4.6303,4.629]},{"header":{"parameterUnit":"m.s-1","parameterCategory":1,"la1":31.0,"la2":29.5877,"lo1":-88.7671,"lo2":-86.6584,"dy":0.0162,"dx":0.0185,"nx":115,"ny":88,"refTime":"2023-04-28T18:00:00:Z","depth":0,"parameterNumber":3,"parameterNumberName":"V-component_of_WINDS"},"data":[0.0,0.0,0.0,0.0,0.0,0.0,0.0,0.0,0.0,0.0,0.0,0.0,0.0,0.0,0.0,0.0,0.0,0.0,0.0,0.0,0.0,0.0,0.0,0.0,0.0,0.0,0.0,0.0,0.0,0.0,0.0,0.0,0.0,0.0,0.0,0.0,0.0,0.0,0.0,0.0,0.0,0.0,0.0,0.0,0.0,0.0,0.0,0.0,0.0,0.0,0.0,0.0,0.0,0.0,0.0,0.0,0.0,0.0,0.0,0.0,0.0,0.0,0.0,0.0,0.0,0.0,0.0,0.0,0.0,0.0,0.0,0.0,0.0,0.0,0.0,0.0,0.0,0.0,0.0,0.0,0.0,0.0,0.0,0.0,0.0,0.0,0.0,0.0,0.0,0.0,0.0,0.0,0.0,0.0,0.0,0.0,0.0,0.0,0.0,0.0,0.0,0.0,0.0,0.0,0.0,0.0,0.0,0.0,0.0,0.0,0.0,0.0,0.0,0.0,0.0,0.0,0.0,0.0,0.0,0.0,0.0,0.0,0.0,0.0,0.0,0.0,0.0,0.0,0.0,0.0,0.0,0.0,0.0,0.0,0.0,0.0,0.0,0.0,0.0,0.0,0.0,0.0,0.0,0.0,0.0,0.0,0.0,0.0,0.0,0.0,0.0,0.0,0.0,0.0,0.0,0.0,0.0,0.0,0.0,0.0,0.0,0.0,0.0,0.0,0.0,0.0,0.0,0.0,0.0,0.0,0.0,0.0,0.0,0.0,0.0,0.0,0.0,0.0,0.0,0.0,0.0,0.0,0.0,0.0,0.0,0.0,0.0,0.0,0.0,0.0,0.0,0.0,0.0,0.0,0.0,0.0,0.0,0.0,0.0,0.0,0.0,0.0,0.0,0.0,0.0,0.0,0.0,0.0,0.0,0.0,0.0,0.0,0.0,0.0,0.0,0.0,0.0,0.0,0.0,0.0,0.0,0.0,0.0,0.0,0.0,0.0,0.0,0.0,0.0,0.0,0.0,0.0,0.0,0.0,0.0,0.0,0.0,0.0,0.0,0.0,0.0,0.0,0.0,0.0,0.0,0.0,0.0,0.0,0.0,0.0,0.0,0.0,0.0,0.0,0.0,0.0,0.0,0.0,0.0,0.0,0.0,0.0,0.0,0.0,0.0,0.0,0.0,0.0,0.0,0.0,0.0,0.0,0.0,0.0,0.0,0.0,0.0,0.0,0.0,0.0,0.0,0.0,0.0,0.0,0.0,0.0,0.0,0.0,0.0,0.0,0.0,0.0,0.0,0.0,0.0,0.0,0.0,0.0,0.0,0.0,0.0,0.0,0.0,0.0,0.0,0.0,0.0,0.0,0.0,0.0,0.0,0.0,0.0,0.0,0.0,0.0,0.0,0.0,0.0,0.0,0.0,0.0,0.0,0.0,0.0,0.0,0.0,0.0,0.0,0.0,0.0,0.0,0.0,0.0,0.0,0.0,0.0,0.0,0.0,0.0,0.0,0.0,0.0,0.0,0.0,0.0,0.0,0.0,0.0,0.0,0.0,0.0,0.0,0.0,0.0,0.0,0.0,0.0,0.0,0.0,0.0,0.0,0.0,0.0,0.0,0.0,0.0,0.0,0.0,0.0,0.0,0.0,0.0,0.0,0.0,0.0,0.0,0.0,0.0,0.0,0.0,0.0,0.0,0.0,0.0,0.0,0.0,0.0,0.0,0.0,0.0,0.0,0.0,0.0,0.0,0.0,0.0,0.0,0.0,0.0,0.0,0.0,0.0,0.0,0.0,0.0,0.0,0.0,0.0,0.0,0.0,0.0,0.0,0.0,0.0,0.0,0.0,0.0,0.0,0.0,0.0,0.0,0.0,0.0,0.0,0.0,0.0,0.0,0.0,0.0,0.0,0.0,0.0,0.0,0.0,0.0,0.0,0.0,0.0,0.0,0.0,0.0,0.0,0.0,0.0,0.0,0.0,0.0,0.0,0.0,0.0,0.0,0.0,0.0,0.0,0.0,0.0,0.0,0.0,0.0,0.0,0.0,0.0,0.0,0.0,0.0,0.0,0.0,0.0,0.0,0.0,0.0,0.0,0.0,0.0,0.0,0.0,0.0,0.0,0.0,0.0,0.0,0.0,0.0,0.0,0.0,0.0,0.0,0.0,0.0,0.0,0.0,0.0,0.0,0.0,0.0,0.0,0.0,0.0,0.0,0.0,0.0,0.0,0.0,0.0,0.0,0.0,0.0,0.0,0.0,0.0,0.0,0.0,0.0,0.0,0.0,0.0,0.0,0.0,0.0,0.0,0.0,0.0,0.0,0.0,0.0,0.0,0.0,0.0,0.0,0.0,0.0,0.0,0.0,0.0,0.0,0.0,0.0,0.0,0.0,0.0,0.0,0.0,0.0,0.0,0.0,0.0,0.0,0.0,0.0,0.0,0.0,0.0,0.0,0.0,0.0,0.0,0.0,0.0,0.0,0.0,0.0,0.0,0.0,0.0,0.0,0.0,0.0,0.0,0.0,0.0,0.0,0.0,0.0,0.0,0.0,0.0,0.0,0.0,0.0,0.0,0.0,0.0,0.0,0.0,0.0,0.0,0.0,0.0,0.0,0.0,0.0,0.0,0.0,0.0,0.0,0.0,0.0,0.0,0.0,0.0,0.0,0.0,0.0,0.0,0.0,0.0,0.0,0.0,0.0,0.0,0.0,0.0,0.0,0.0,0.0,0.0,0.0,0.0,0.0,0.0,0.0,0.0,0.0,0.0,0.0,0.0,0.0,0.0,0.0,0.0,0.0,0.0,0.0,0.0,0.0,0.0,0.0,0.0,0.0,0.0,0.0,0.0,0.0,0.0,0.0,0.0,0.0,0.0,0.0,0.0,0.0,0.0,0.0,0.0,0.0,0.0,0.0,0.0,0.0,0.0,0.0,0.0,0.0,0.0,0.0,0.0,0.0,0.0,0.0,0.0,0.0,0.0,0.0,0.0,0.0,0.0,0.0,0.0,0.0,0.0,0.0,0.0,0.0,0.0,0.0,0.0,0.0,0.0,0.0,0.0,0.0,0.0,0.0,0.0,0.0,0.0,0.0,0.0,0.0,0.0,0.0,0.0,0.0,0.0,0.0,0.0,0.0,0.0,0.0,0.0,0.0,0.0,0.0,0.0,0.0,0.0,0.0,0.0,0.0,0.0,0.0,0.0,0.0,0.0,0.0,0.0,0.0,0.0,0.0,0.0,0.0,0.0,0.0,0.0,0.0,0.0,0.0,0.0,0.0,0.0,0.0,0.0,0.0,0.0,0.0,0.0,0.0,0.0,0.0,0.0,0.0,0.0,0.0,0.0,0.0,0.0,0.0,0.0,0.0,0.0,0.0,0.0,0.0,0.0,0.0,0.0,0.0,0.0,0.0,0.0,0.0,0.0,0.0,0.0,0.0,0.0,0.0,0.0,0.0,0.0,0.0,0.0,0.0,0.0,0.0,0.0,0.0,0.0,0.0,0.0,0.0,0.0,0.0,0.0,0.0,0.0,0.0,0.0,0.0,0.0,0.0,0.0,0.0,0.0,0.0,0.0,0.0,0.0,0.0,0.0,0.0,0.0,0.0,0.0,0.0,0.0,0.0,0.0,0.0,0.0,0.0,0.0,0.0,0.0,0.0,0.0,0.0,0.0,0.0,0.0,0.0,0.0,0.0,0.0,0.0,0.0,0.0,0.0,0.0,0.0,0.0,0.0,0.0,0.0,0.0,0.0,0.0,0.0,0.0,0.0,0.0,0.0,0.0,0.0,0.0,0.0,0.0,0.0,0.0,0.0,0.0,0.0,0.0,0.0,0.0,0.0,0.0,0.0,0.0,0.0,0.0,0.0,0.0,0.0,0.0,0.0,0.0,0.0,0.0,0.0,0.0,0.0,0.0,0.0,0.0,0.0,0.0,0.0,0.0,0.0,0.0,0.0,0.0,0.0,0.0,0.0,0.0,0.0,0.0,0.0,0.0,0.0,0.0,0.0,0.0,0.0,0.0,0.0,0.0,0.0,0.0,0.0,0.0,0.0,0.0,0.0,0.0,0.0,0.0,0.0,0.0,0.0,0.0,0.0,0.0,0.0,0.0,0.0,0.0,0.0,0.0,0.0,0.0,0.0,0.0,0.0,0.0,0.0,0.0,0.0,0.0,0.0,0.0,0.0,0.0,0.0,0.0,0.0,0.0,0.0,0.0,0.0,0.0,0.0,0.0,0.0,0.0,0.0,0.0,0.0,0.0,0.0,0.0,0.0,0.0,-0.7956,0.0,0.0,0.0,0.0,0.0,0.0,0.0,0.0,0.0,0.0,0.0,0.0,0.0,0.0,0.0,0.0,0.0,0.0,0.0,0.0,0.0,0.0,0.0,0.0,0.0,0.0,0.0,0.0,0.0,0.0,0.0,0.0,0.0,0.0,0.0,0.0,0.0,0.0,0.0,0.0,0.0,0.0,0.0,0.0,0.0,0.0,0.0,0.0,0.0,0.0,0.0,0.0,0.0,0.0,0.0,0.0,0.0,0.0,0.0,0.0,0.0,0.0,0.0,0.0,0.0,0.0,0.0,0.0,0.0,0.0,0.0,0.0,0.0,0.0,0.0,0.0,0.0,0.0,0.0,0.0,0.0,0.0,0.0,0.0,0.0,0.0,0.0,0.0,0.0,0.0,0.0,0.0,0.0,0.0,0.0,0.0,0.0,0.0,0.0,0.0,0.0,0.0,0.0,0.0,0.0,0.0,0.0,0.0,0.0,0.0,-0.8599,-0.8778,-0.8738,-0.8415,-0.78,0.0,0.0,0.0,0.0,0.0,0.0,0.0,0.0,0.0,0.0,0.0,0.0,0.0,0.0,0.0,0.0,0.0,0.0,0.0,0.0,0.0,0.0,0.0,0.0,0.0,0.0,0.0,0.0,0.0,0.0,0.0,0.0,0.0,0.0,0.0,0.0,0.0,0.0,0.0,0.0,0.0,0.0,0.0,0.0,0.0,0.0,0.0,0.0,0.0,0.0,0.0,0.0,0.0,0.0,0.0,0.0,0.0,0.0,0.0,0.0,0.0,0.0,0.0,0.0,0.0,0.0,0.0,0.0,0.0,0.0,0.0,0.0,0.0,0.0,0.0,0.0,0.0,0.0,0.0,0.0,0.0,0.0,0.0,0.0,0.0,0.0,0.0,0.0,0.0,0.0,0.0,0.0,0.0,0.0,0.0,0.0,0.0,0.0,0.0,0.0,0.0,0.0,0.0,0.0,0.0,0.0,0.0,0.0,0.0,0.0,0.0,0.0,-0.8461,-0.8204,-0.7786,0.0,0.0,0.0,0.0,0.0,0.0,0.0,0.0,0.0,0.0,0.0,0.0,0.0,0.0,0.0,0.0,0.0,0.0,0.0,0.0,0.0,0.0,0.0,0.0,0.0,0.0,0.0,0.0,0.0,0.0,0.0,0.0,0.0,0.0,0.0,0.0,0.0,0.0,0.0,0.0,0.0,0.0,0.0,0.0,0.0,0.0,0.0,0.0,0.0,0.0,0.0,0.0,0.0,0.0,0.0,0.0,0.0,0.0,0.0,0.0,0.0,0.0,0.0,0.0,0.0,0.0,0.0,0.0,0.0,0.0,0.0,0.0,0.0,0.0,0.0,0.0,0.0,0.0,0.0,0.0,0.0,0.0,0.0,0.0,0.0,0.0,0.0,0.0,0.0,0.0,0.0,0.0,0.0,0.0,0.0,0.0,0.0,0.0,0.0,0.0,0.0,0.0,0.0,0.0,0.0,0.0,0.0,0.0,0.0,0.0,-0.8131,-0.7978,-0.7978,0.0,-0.7854,0.0,0.0,0.0,0.0,0.0,0.0,0.0,0.0,0.0,0.0,0.0,0.0,0.0,0.0,0.0,0.0,0.0,0.0,0.0,0.0,0.0,0.0,0.0,0.0,0.0,0.0,0.0,0.0,0.0,0.0,0.0,0.0,0.0,0.0,0.0,0.0,0.0,0.0,0.0,0.0,0.0,0.0,0.0,0.0,0.0,0.0,0.0,0.0,0.0,0.0,0.0,0.0,0.0,0.0,0.0,0.0,0.0,0.0,0.0,0.0,0.0,0.0,0.0,0.0,0.0,0.0,0.0,0.0,0.0,0.0,0.0,0.0,0.0,0.0,0.0,0.0,0.0,0.0,0.0,0.0,0.0,0.0,0.0,0.0,0.0,0.0,0.0,0.0,0.0,0.0,0.0,0.0,0.0,0.0,0.0,0.0,0.0,0.0,0.0,0.0,0.0,0.0,0.0,0.0,0.0,0.0,0.0,0.0,0.0,0.0,-0.7461,-0.7295,-0.7218,-0.7314,0.0,0.0,0.0,0.0,0.0,0.0,0.0,0.0,0.0,0.0,0.0,0.0,0.0,0.0,0.0,0.0,0.0,0.0,0.0,0.0,0.0,0.0,0.0,0.0,0.0,0.0,0.0,0.0,0.0,0.0,0.0,0.0,0.0,0.0,0.0,0.0,0.0,0.0,0.0,0.0,0.0,0.0,0.0,0.0,0.0,0.0,0.0,0.0,0.0,0.0,0.0,0.0,0.0,0.0,0.0,0.0,0.0,0.0,0.0,0.0,0.0,0.0,0.0,0.0,0.0,0.0,0.0,0.0,0.0,0.0,0.0,0.0,0.0,0.0,0.0,0.0,0.0,0.0,0.0,0.0,0.0,0.0,0.0,0.0,0.0,0.0,0.0,0.0,0.0,0.0,0.0,0.0,0.0,0.0,0.0,0.0,0.0,0.0,0.0,0.0,0.0,0.0,0.0,0.0,0.0,0.0,0.0,0.0,0.0,0.0,-0.6802,-0.6761,-0.6686,-0.6616,-0.6804,-0.7344,0.0,0.0,0.0,0.0,0.0,0.0,0.0,0.0,0.0,0.0,0.0,0.0,0.0,0.0,0.0,0.0,0.0,0.0,0.0,0.0,0.0,0.0,0.0,0.0,0.0,0.0,0.0,0.0,0.0,0.0,0.0,0.0,0.0,0.0,0.0,0.0,0.0,0.0,0.0,0.0,0.0,0.0,0.0,0.0,0.0,0.0,0.0,0.0,0.0,0.0,0.0,0.0,0.0,0.0,0.0,0.0,0.0,0.0,0.0,0.0,0.0,0.0,0.0,0.0,0.0,0.0,0.0,0.0,0.0,0.0,0.0,0.0,0.0,0.0,0.0,0.0,0.0,0.0,0.0,0.0,0.0,0.0,0.0,0.0,0.0,0.0,0.0,0.0,0.0,0.0,0.0,0.0,0.0,0.0,0.0,0.0,0.0,0.0,0.0,0.0,0.0,0.0,0.0,0.0,0.0,0.0,0.0,0.0,-0.6334,-0.6168,-0.6105,-0.6253,-0.6162,-0.6374,0.0,0.0,0.0,0.0,0.0,0.0,0.0,0.0,0.0,0.0,0.0,0.0,0.0,0.0,0.0,0.0,0.0,0.0,0.0,0.0,0.0,0.0,0.0,0.0,0.0,0.0,0.0,0.0,0.0,0.0,0.0,0.0,0.0,0.0,0.0,0.0,0.0,0.0,0.0,0.0,0.0,0.0,0.0,0.0,0.0,0.0,0.0,0.0,0.0,0.0,0.0,0.0,0.0,0.0,0.0,0.0,0.0,0.0,0.0,0.0,0.0,0.0,0.0,0.0,0.0,0.0,0.0,0.0,0.0,0.0,0.0,0.0,0.0,0.0,0.0,0.0,0.0,0.0,0.0,0.0,0.0,0.0,0.0,0.0,0.0,0.0,0.0,0.0,0.0,0.0,0.0,0.0,0.0,0.0,0.0,0.0,0.0,0.0,0.0,0.0,0.0,0.0,0.0,0.0,0.0,0.0,0.0,0.0,0.0,-0.6114,-0.586,-0.5782,-0.5823,-0.5766,-0.5941,0.0,0.0,0.0,0.0,0.0,0.0,0.0,0.0,0.0,0.0,0.0,0.0,0.0,0.0,0.0,0.0,0.0,0.0,0.0,0.0,0.0,0.0,0.0,0.0,0.0,0.0,0.0,0.0,0.0,0.0,0.0,0.0,0.0,0.0,0.0,0.0,0.0,0.0,0.0,0.0,0.0,0.0,0.0,0.0,0.0,0.0,0.0,0.0,0.0,0.0,0.0,0.0,0.0,0.0,0.0,0.0,0.0,0.0,0.0,0.0,0.0,0.0,0.0,0.0,0.0,0.0,0.0,0.0,0.0,0.0,0.0,0.0,0.0,0.0,0.0,0.0,0.0,0.0,0.0,0.0,0.0,0.0,0.0,0.0,0.0,0.0,0.0,0.0,0.0,0.0,0.0,0.0,0.0,0.0,0.0,0.0,0.0,0.0,0.0,0.0,0.0,0.0,0.0,0.0,0.0,0.0,0.0,0.0,0.0,-0.5732,0.0,-0.5517,-0.5504,-0.547,-0.5698,0.0,0.0,0.0,0.0,0.0,0.0,0.0,0.0,0.0,0.0,0.0,0.0,0.0,0.0,0.0,0.0,0.0,0.0,0.0,0.0,0.0,0.0,0.0,0.0,0.0,0.0,0.0,0.0,0.0,0.0,0.0,0.0,0.0,0.0,0.0,0.0,0.0,0.0,0.0,0.0,0.0,0.0,0.0,0.0,0.0,0.0,0.0,0.0,0.0,0.0,0.0,0.0,0.0,0.0,0.0,0.0,0.0,0.0,0.0,0.0,0.0,0.0,0.0,0.0,0.0,0.0,0.0,0.0,0.0,0.0,0.0,0.0,0.0,0.0,0.0,0.0,0.0,0.0,0.0,0.0,0.0,0.0,0.0,0.0,0.0,0.0,0.0,0.0,0.0,0.0,0.0,0.0,0.0,0.0,0.0,0.0,0.0,0.0,0.0,0.0,0.0,0.0,0.0,0.0,0.0,0.0,0.0,0.0,-0.5234,-0.5128,-0.5242,-0.5297,-0.5297,-0.5377,-0.5591,0.0,0.0,0.0,0.0,0.0,0.0,0.0,0.0,0.0,0.0,0.0,0.0,0.0,0.0,0.0,0.0,0.0,0.0,0.0,0.0,0.0,0.0,0.0,0.0,0.0,0.0,0.0,0.0,0.0,0.0,0.0,0.0,0.0,0.0,0.0,0.0,0.0,0.0,0.0,0.0,0.0,0.0,0.0,0.0,0.0,0.0,0.0,0.0,0.0,0.0,0.0,0.0,0.0,0.0,0.0,0.0,0.0,0.0,0.0,0.0,0.0,0.0,0.0,0.0,0.0,0.0,0.0,0.0,0.0,0.0,0.0,0.0,0.0,0.0,0.0,0.0,0.0,0.0,0.0,0.0,0.0,0.0,0.0,0.0,0.0,0.0,0.0,0.0,0.0,0.0,0.0,0.0,0.0,0.0,0.0,0.0,0.0,0.0,0.0,0.0,0.0,0.0,0.0,0.0,0.0,0.0,0.0,0.0,0.0,-0.5124,-0.5242,-0.5246,-0.5179,-0.5284,-0.5449,0.0,0.0,0.0,0.0,0.0,0.0,0.0,0.0,0.0,0.0,0.0,0.0,0.0,0.0,0.0,0.0,0.0,0.0,0.0,0.0,0.0,0.0,0.0,0.0,0.0,0.0,0.0,0.0,0.0,0.0,0.0,0.0,0.0,0.0,0.0,0.0,0.0,0.0,0.0,0.0,0.0,0.0,0.0,0.0,0.0,0.0,0.0,0.0,0.0,0.0,0.0,0.0,0.0,0.0,0.0,0.0,0.0,0.0,0.0,0.0,0.0,0.0,0.0,0.0,0.0,0.0,0.0,0.0,0.0,0.0,0.0,0.0,0.0,0.0,0.0,0.0,0.0,0.0,0.0,0.0,0.0,0.0,0.0,0.0,0.0,0.0,0.0,0.0,0.0,0.0,0.0,0.0,0.0,0.0,0.0,0.0,0.0,0.0,0.0,0.0,0.0,0.0,0.0,0.0,0.0,0.0,0.0,0.0,0.0,-0.5007,-0.5128,-0.5187,-0.5073,-0.5247,-0.5398,-0.5602,0.0,0.0,0.0,0.0,0.0,0.0,0.0,0.0,0.0,0.0,0.0,0.0,0.0,0.0,0.0,0.0,0.0,0.0,0.0,0.0,0.0,0.0,0.0,0.0,0.0,0.0,0.0,0.0,0.0,0.0,0.0,0.0,0.0,0.0,0.0,0.0,0.0,0.0,0.0,0.0,0.0,0.0,0.0,0.0,0.0,0.0,0.0,0.0,0.0,0.0,0.0,0.0,0.0,0.0,0.0,0.0,0.0,0.0,0.0,0.0,0.0,0.0,0.0,0.0,0.0,0.0,0.0,0.0,0.0,0.0,0.0,0.0,0.0,0.0,0.0,0.0,0.0,0.0,0.0,0.0,0.0,0.0,0.0,0.0,0.0,0.0,0.0,0.0,0.0,0.0,0.0,0.0,0.0,0.0,0.0,0.0,0.0,0.0,0.0,0.0,0.0,0.0,0.0,0.0,0.0,0.0,0.0,0.0,-0.4842,-0.5014,-0.5073,-0.5073,-0.5238,-0.5407,0.0,0.0,0.0,0.0,0.0,0.0,0.0,0.0,0.0,0.0,0.0,0.0,0.0,0.0,0.0,0.0,0.0,0.0,0.0,0.0,0.0,0.0,0.0,0.0,0.0,0.0,0.0,0.0,0.0,0.0,0.0,0.0,0.0,0.0,0.0,0.0,0.0,0.0,0.0,0.0,0.0,0.0,0.0,0.0,0.0,0.0,0.0,0.0,0.0,0.0,0.0,0.0,0.0,0.0,0.0,0.0,0.0,0.0,0.0,0.0,0.0,0.0,0.0,0.0,0.0,0.0,0.0,0.0,0.0,0.0,0.0,0.0,0.0,0.0,0.0,0.0,0.0,0.0,0.0,0.0,0.0,0.0,0.0,0.0,0.0,0.0,0.0,0.0,0.0,0.0,0.0,0.0,0.0,0.0,0.0,0.0,0.0,0.0,0.0,0.0,0.0,0.0,0.0,0.0,0.0,0.0,0.0,0.0,0.0,-0.4618,-0.4739,-0.4908,-0.5073,-0.5128,-0.5293,0.0,0.0,0.0,0.0,0.0,0.0,0.0,0.0,0.0,0.0,0.0,0.0,0.0,0.0,0.0,0.0,0.0,0.0,0.0,0.0,0.0,0.0,0.0,0.0,0.0,0.0,0.0,0.0,0.0,0.0,0.0,0.0,0.0,0.0,0.0,0.0,0.0,0.0,0.0,0.0,0.0,0.0,0.0,0.0,0.0,0.0,0.0,0.0,0.0,0.0,0.0,0.0,0.0,0.0,0.0,0.0,0.0,0.0,0.0,0.0,0.0,0.0,0.0,0.0,0.0,0.0,0.0,0.0,0.0,0.0,0.0,0.0,0.0,0.0,0.0,0.0,0.0,0.0,0.0,0.0,0.0,0.0,0.0,0.0,0.0,0.0,0.0,0.0,0.0,0.0,0.0,0.0,0.0,0.0,0.0,0.0,0.0,0.0,0.0,0.0,0.0,0.0,0.0,0.0,0.0,0.0,0.0,0.0,-0.3805,-0.4273,-0.4276,-0.4448,-0.478,-0.4938,-0.512,0.0,0.0,0.0,0.0,0.0,0.0,0.0,0.0,0.0,0.0,0.0,0.0,0.0,0.0,0.0,0.0,0.0,0.0,0.0,0.0,0.0,0.0,0.0,0.0,0.0,0.0,0.0,0.0,0.0,0.0,0.0,0.0,0.0,0.0,0.0,0.0,0.0,0.0,0.0,0.0,0.0,0.0,0.0,0.0,0.0,0.0,0.0,0.0,0.0,0.0,0.0,0.0,0.0,0.0,0.0,0.0,0.0,0.0,0.0,0.0,0.0,0.0,0.0,0.0,0.0,0.0,0.0,0.0,0.0,0.0,0.0,0.0,0.0,0.0,0.0,0.0,0.0,0.0,0.0,0.0,0.0,0.0,0.0,0.0,0.0,0.0,0.0,0.0,0.0,0.0,0.0,0.0,0.0,0.0,0.0,0.0,0.0,0.0,0.0,0.0,0.0,0.0,0.0,0.0,0.0,0.0,0.0,0.0,-0.3237,-0.3809,-0.3618,-0.3745,-0.4238,-0.4615,-0.4864,0.0,0.0,0.0,0.0,0.0,0.0,0.0,0.0,0.0,0.0,0.0,0.0,0.0,0.0,0.0,0.0,0.0,0.0,0.0,0.0,0.0,0.0,0.0,0.0,0.0,0.0,0.0,0.0,0.0,0.0,0.0,0.0,0.0,0.0,0.0,0.0,0.0,0.0,0.0,0.0,0.0,0.0,0.0,0.0,0.0,0.0,0.0,0.0,0.0,0.0,0.0,0.0,0.0,0.0,0.0,0.0,0.0,0.0,0.0,0.0,0.0,0.0,0.0,0.0,0.0,0.0,0.0,0.0,0.0,0.0,0.0,0.0,0.0,0.0,0.0,0.0,0.0,0.0,0.0,0.0,0.0,0.0,0.0,0.0,0.0,0.0,0.0,0.0,0.0,0.0,0.0,0.0,0.0,0.0,0.0,0.0,0.0,0.0,0.0,0.0,0.0,0.0,0.0,0.0,0.0,0.0,0.0,0.0,-0.278,-0.2813,-0.2893,-0.299,-0.3287,-0.4068,-0.4582,0.0,0.0,0.0,0.0,0.0,0.0,0.0,0.0,0.0,0.0,0.0,0.0,0.0,0.0,0.0,0.0,0.0,0.0,0.0,0.0,0.0,0.0,0.0,0.0,0.0,0.0,0.0,0.0,0.0,0.0,0.0,0.0,0.0,0.0,0.0,0.0,0.0,0.0,0.0,0.0,0.0,0.0,0.0,0.0,0.0,0.0,0.0,0.0,-1.542,0.0,0.0,0.0,0.0,0.0,0.0,0.0,0.0,0.0,0.0,0.0,0.0,0.0,0.0,0.0,0.0,0.0,0.0,0.0,0.0,0.0,0.0,0.0,0.0,0.0,0.0,0.0,0.0,0.0,0.0,0.0,0.0,0.0,0.0,0.0,0.0,0.0,0.0,0.0,0.0,0.0,0.0,0.0,0.0,0.0,0.0,0.0,0.0,0.0,0.0,0.0,0.0,0.0,0.0,0.0,0.0,0.0,0.0,0.0,-0.2293,-0.2512,-0.2425,-0.2447,-0.2763,-0.3399,-0.3895,0.0,0.0,0.0,0.0,0.0,0.0,0.0,0.0,0.0,0.0,0.0,0.0,0.0,0.0,0.0,0.0,0.0,0.0,0.0,0.0,0.0,0.0,0.0,0.0,0.0,0.0,0.0,0.0,0.0,0.0,0.0,0.0,0.0,0.0,0.0,0.0,0.0,0.0,0.0,0.0,0.0,0.0,0.0,0.0,0.0,0.0,0.0,0.0,0.0,0.0,0.0,0.0,0.0,0.0,0.0,0.0,0.0,0.0,0.0,0.0,0.0,0.0,0.0,0.0,0.0,0.0,0.0,0.0,0.0,0.0,0.0,0.0,0.0,0.0,0.0,0.0,0.0,0.0,0.0,0.0,0.0,0.0,0.0,0.0,0.0,0.0,0.0,0.0,0.0,0.0,0.0,0.0,0.0,0.0,0.0,0.0,0.0,0.0,0.0,0.0,0.0,0.0,0.0,0.0,0.0,0.0,0.0,-0.1684,-0.173,-0.2381,-0.1979,-0.1985,-0.2332,-0.2657,-0.3095,-0.3579,0.0,0.0,0.0,0.0,0.0,0.0,0.0,0.0,0.0,0.0,0.0,0.0,0.0,0.0,0.0,0.0,0.0,0.0,0.0,0.0,0.0,0.0,0.0,0.0,0.0,0.0,0.0,0.0,0.0,0.0,0.0,0.0,0.0,0.0,0.0,0.0,0.0,0.0,-1.1996,-1.3164,0.0,0.0,0.0,0.0,0.0,0.0,0.0,0.0,-1.4647,0.0,0.0,0.0,0.0,0.0,0.0,0.0,0.0,0.0,0.0,0.0,0.0,0.0,0.0,0.0,0.0,0.0,0.0,0.0,0.0,0.0,0.0,0.0,0.0,0.0,0.0,0.0,0.0,0.0,0.0,0.0,0.0,0.0,0.0,0.0,0.0,0.0,0.0,0.0,0.0,0.0,0.0,0.0,0.0,0.0,0.0,0.0,0.0,0.0,0.0,0.0,0.0,0.0,0.0,0.0,0.0,-0.1778,-0.1424,-0.132,-0.1479,-0.1423,-0.144,-0.1533,-0.2071,-0.2499,-0.292,0.0,0.0,0.0,0.0,0.0,0.0,0.0,0.0,0.0,0.0,0.0,0.0,0.0,0.0,0.0,0.0,0.0,0.0,0.0,0.0,0.0,0.0,0.0,0.0,0.0,0.0,0.0,0.0,0.0,0.0,0.0,0.0,0.0,0.0,0.0,0.0,0.0,0.0,0.0,-1.3025,-1.3761,0.0,0.0,0.0,0.0,0.0,0.0,0.0,0.0,-1.4616,0.0,0.0,0.0,0.0,0.0,0.0,0.0,0.0,0.0,0.0,0.0,0.0,0.0,0.0,0.0,0.0,0.0,0.0,0.0,0.0,0.0,0.0,0.0,0.0,0.0,0.0,0.0,0.0,0.0,0.0,0.0,0.0,0.0,0.0,0.0,0.0,0.0,0.0,0.0,0.0,0.0,0.0,0.0,0.0,0.0,0.0,0.0,0.0,0.0,0.0,0.0,0.0,0.0,0.0,0.0,-0.1329,-0.1219,-0.117,-0.1316,-0.1251,-0.1259,-0.1276,-0.1748,-0.2271,0.0,0.0,0.0,0.0,0.0,0.0,0.0,0.0,0.0,0.0,0.0,0.0,0.0,0.0,0.0,0.0,0.0,0.0,0.0,0.0,0.0,0.0,0.0,0.0,0.0,0.0,0.0,0.0,0.0,0.0,0.0,0.0,0.0,0.0,0.0,0.0,0.0,0.0,0.0,0.0,-1.2964,-1.37,-1.4198,0.0,0.0,0.0,0.0,0.0,0.0,-1.4446,-1.4565,0.0,0.0,0.0,0.0,0.0,0.0,0.0,0.0,0.0,0.0,0.0,0.0,0.0,0.0,0.0,0.0,0.0,0.0,0.0,0.0,0.0,0.0,0.0,0.0,0.0,0.0,0.0,0.0,0.0,0.0,0.0,0.0,0.0,0.0,0.0,0.0,0.0,0.0,0.0,0.0,0.0,0.0,0.0,0.0,0.0,0.0,0.0,0.0,0.0,0.0,0.0,0.0,0.0,0.0,0.0,-0.0913,-0.1064,-0.1143,-0.1277,-0.121,-0.121,-0.1277,-0.1681,-0.2214,0.0,0.0,0.0,0.0,0.0,0.0,0.0,0.0,0.0,0.0,0.0,0.0,0.0,0.0,0.0,0.0,0.0,0.0,0.0,0.0,0.0,0.0,0.0,0.0,0.0,0.0,0.0,0.0,0.0,0.0,0.0,0.0,0.0,0.0,0.0,0.0,0.0,0.0,0.0,0.0,0.0,-1.3631,-1.4121,-1.4359,0.0,0.0,0.0,0.0,-1.4198,-1.4387,0.0,0.0,0.0,0.0,0.0,0.0,0.0,0.0,0.0,0.0,0.0,0.0,0.0,0.0,0.0,0.0,0.0,0.0,0.0,0.0,0.0,0.0,0.0,0.0,0.0,0.0,0.0,0.0,0.0,0.0,0.0,0.0,0.0,0.0,0.0,0.0,0.0,0.0,0.0,0.0,0.0,0.0,0.0,0.0,0.0,0.0,0.0,0.0,0.0,0.0,0.0,0.0,0.0,0.0,0.0,0.0,-0.0736,-0.0939,-0.1143,-0.1277,-0.1277,-0.121,-0.1143,-0.1816,-0.2262,0.0,0.0,0.0,0.0,0.0,0.0,0.0,0.0,0.0,0.0,0.0,0.0,0.0,0.0,0.0,0.0,0.0,0.0,0.0,0.0,0.0,0.0,0.0,0.0,0.0,0.0,0.0,0.0,0.0,0.0,0.0,0.0,0.0,0.0,0.0,0.0,0.0,0.0,0.0,0.0,0.0,-1.3511,-1.395,-1.43,-1.4419,0.0,0.0,-1.4276,-1.4267,-1.4387,0.0,0.0,0.0,0.0,0.0,0.0,0.0,0.0,0.0,0.0,0.0,0.0,0.0,0.0,0.0,0.0,0.0,0.0,0.0,0.0,0.0,0.0,0.0,0.0,0.0,0.0,0.0,0.0,0.0,0.0,0.0,0.0,0.0,0.0,0.0,0.0,0.0,0.0,0.0,0.0,0.0,0.0,0.0,0.0,0.0,0.0,0.0,0.0,0.0,0.0,0.0,0.0,0.0,0.0,0.0,0.0269,-0.0539,-0.0942,-0.1143,-0.121,-0.1277,-0.1344,-0.1412,-0.1884,-0.2341,0.0,0.0,0.0,0.0,0.0,0.0,0.0,0.0,0.0,0.0,0.0,0.0,0.0,0.0,0.0,0.0,0.0,0.0,0.0,0.0,0.0,0.0,0.0,0.0,0.0,0.0,0.0,0.0,0.0,0.0,0.0,0.0,0.0,0.0,0.0,0.0,0.0,0.0,0.0,0.0,0.0,0.0,-1.3821,-1.424,0.0,0.0,0.0,-1.4267,-1.4139,0.0,0.0,0.0,0.0,0.0,0.0,0.0,0.0,0.0,0.0,0.0,0.0,0.0,0.0,0.0,0.0,0.0,0.0,0.0,0.0,0.0,0.0,0.0,0.0,0.0,0.0,0.0,0.0,0.0,0.0,0.0,0.0,0.0,0.0,0.0,0.0,0.0,0.0,0.0,0.0,0.0,0.0,0.0,0.0,0.0,0.0,0.0,0.0,0.0,0.0,0.0,0.0,0.0,0.0,0.0,0.0,0.0,-0.0202,-0.0807,-0.1076,-0.1076,-0.121,-0.1344,-0.1547,-0.1883,0.0,0.0,0.0,0.0,0.0,0.0,0.0,0.0,0.0,0.0,0.0,0.0,0.0,0.0,0.0,0.0,0.0,0.0,0.0,0.0,0.0,0.0,0.0,0.0,0.0,0.0,0.0,-0.5456,0.0,0.0,0.0,0.0,0.0,0.0,0.0,0.0,0.0,0.0,0.0,0.0,0.0,0.0,-1.2948,-1.3398,-1.3932,-1.4231,0.0,0.0,-1.4207,-1.4139,-1.4327,-1.4515,0.0,0.0,0.0,0.0,0.0,0.0,0.0,0.0,0.0,0.0,0.0,0.0,0.0,0.0,0.0,0.0,0.0,0.0,0.0,0.0,0.0,0.0,0.0,0.0,0.0,0.0,0.0,0.0,0.0,0.0,0.0,0.0,0.0,0.0,0.0,0.0,0.0,0.0,0.0,0.0,0.0,0.0,0.0,0.0,0.0,0.0,0.0,0.0,0.0,0.0,0.0,0.0,0.0,0.0,0.0,0.0269,-0.0672,-0.1076,-0.1076,-0.1143,-0.121,-0.1344,-0.1547,-0.1662,0.0,0.0,0.0,0.0,0.0,0.0,0.0,0.0,0.0,0.0,0.0,0.0,0.0,0.0,0.0,0.0,0.0,0.0,0.0,0.0,0.0,0.0,0.0,0.0,0.0,0.0,0.0,0.0,0.0,0.0,0.0,0.0,0.0,0.0,0.0,0.0,0.0,0.0,0.0,0.0,0.0,-1.2205,-1.2544,-1.3147,-1.3631,0.0,0.0,-1.4139,-1.4446,-1.4455,-1.4515,-1.4515,0.0,0.0,0.0,0.0,0.0,0.0,0.0,0.0,0.0,0.0,0.0,0.0,0.0,0.0,0.0,0.0,0.0,0.0,0.0,0.0,0.0,0.0,0.0,0.0,0.0,0.0,0.0,0.0,0.0,0.0,0.0,0.0,0.0,0.0,0.0,0.0,0.0,0.0,0.0,0.0,0.0,0.0,0.0,0.0,0.0,0.0,0.0,0.0,0.0,0.0,0.0,0.0,0.0,0.1411,0.0806,-0.0471,-0.1078,-0.1078,-0.1211,-0.1344,-0.1479,-0.1681,-0.1806,0.0,0.0,0.0,0.0,0.0,0.0,0.0,0.0,0.0,0.0,0.0,0.0,0.0,0.0,0.0,0.0,0.0,0.0,0.0,0.0,0.0,0.0,0.0,0.0,0.0,0.0,0.0,0.0,-0.5895,-0.6153,-0.6461,0.0,0.0,0.0,0.0,0.0,0.0,0.0,0.0,0.0,0.0,-1.1973,-1.2297,-1.2789,0.0,0.0,-1.3467,-1.37,-1.3761,-1.4139,-1.4396,-1.4396,-1.4396,0.0,0.0,0.0,0.0,0.0,0.0,0.0,0.0,0.0,0.0,0.0,0.0,0.0,0.0,0.0,0.0,0.0,0.0,0.0,0.0,0.0,0.0,0.0,0.0,0.0,0.0,0.0,0.0,0.0,0.0,0.0,0.0,0.0,0.0,0.0,0.0,0.0,0.0,0.0,0.0,0.0,0.0,0.0,0.0,0.0,0.0,0.0,0.0,0.0,0.0,0.0,0.0,0.1879,0.121,-0.0067,-0.0808,-0.1212,-0.1279,-0.1412,-0.1614,-0.1748,-0.1816,0.0,0.0,0.0,0.0,0.0,0.0,0.0,0.0,0.0,0.0,0.0,0.0,0.0,0.0,0.0,0.0,0.0,0.0,0.0,0.0,0.0,0.0,0.0,0.0,0.0,0.0,0.0,0.0,-0.5777,-0.6081,-0.6001,0.0,0.0,0.0,0.0,0.0,0.0,0.0,0.0,0.0,0.0,-1.174,-1.1988,-1.2243,-1.249,-1.2552,-1.2911,-1.3268,-1.3329,-1.383,-1.4198,-1.4267,0.0,0.0,0.0,0.0,0.0,0.0,0.0,0.0,0.0,0.0,0.0,0.0,0.0,0.0,0.0,0.0,0.0,0.0,0.0,0.0,0.0,0.0,0.0,0.0,0.0,0.0,0.0,0.0,0.0,0.0,1.1911,0.0,0.0,0.0,0.0,0.0,0.0,0.0,0.0,0.0,0.0,0.0,0.0,0.0,0.0,0.0,0.0,0.0,0.0,0.0,0.0,0.0,0.0,0.2082,0.1412,0.0739,-0.0202,-0.1278,-0.1412,-0.1412,-0.1547,-0.1614,-0.1547,-0.1344,0.0,0.0,0.0,0.0,0.0,0.0,0.0,0.0,0.0,0.0,0.0,0.0,0.0,0.0,0.0,0.0,0.0,0.0,0.0,0.0,0.0,0.0,0.0,0.0,0.0,0.0,-0.4619,-0.5418,-0.5815,0.0,0.0,0.0,0.0,0.0,0.0,0.0,0.0,0.0,0.0,-1.0989,-1.1303,-1.131,-1.1498,-1.1747,-1.1988,-1.2297,-1.2728,-1.339,-1.364,-1.3899,0.0,0.0,0.0,0.0,0.0,0.0,0.0,0.0,0.0,0.0,0.0,0.0,0.0,0.0,0.0,0.0,0.0,0.0,0.0,0.0,0.0,0.0,0.0,0.0,0.0,0.0,0.0,1.1662,1.2008,0.0,0.0,0.0,0.0,0.0,0.0,0.0,0.0,0.0,0.0,0.0,0.7693,0.7692,0.0,0.0,0.0,0.0,0.0,0.0,0.0,0.0,0.0,0.0,0.0,0.0,0.3021,0.2621,0.1747,0.1143,0.0739,0.0403,0.0202,0.0,-0.047,-0.0941,-0.1344,0.0,0.0,0.0,0.0,0.0,0.0,0.0,0.0,0.0,0.0,0.0,0.0,0.0,0.0,0.0,0.0,0.0,0.0,0.0,0.0,0.0,0.0,0.0,0.0,0.0,-0.3959,0.0,0.0,0.0,0.0,0.0,0.0,0.0,0.0,0.0,0.0,0.0,-0.9964,-1.0485,-1.08,-1.0989,-1.1122,-1.1247,-1.131,0.0,0.0,0.0,0.0,0.0,0.0,0.0,0.0,0.0,0.0,0.0,0.0,0.0,0.0,-1.5212,-1.4955,-1.5083,-1.5228,-1.5311,0.0,0.0,0.0,0.0,0.0,0.0,0.0,0.0,0.0,0.0,0.0,0.0,0.0,0.0,1.1676,0.0,1.162,0.0,0.0,0.0,0.0,0.0,0.0,0.0,0.0,0.8306,0.7862,0.7596,0.747,0.74,0.0,0.6863,0.6671,0.0,0.0,0.0,0.0,0.0,0.0,0.0,0.0,0.3558,0.3226,0.2621,0.2084,0.1681,0.1277,0.1008,0.0806,0.0336,-0.0269,-0.0873,-0.101,-0.0876,0.0,0.0,0.0,0.0,0.0,0.0,0.0,0.0,0.0,0.0,0.0,0.0,0.0,0.0,0.0,0.0,0.0,0.0,0.0,0.0,0.0,0.0,0.0,-0.3892,0.0,0.0,0.0,0.0,0.0,0.0,0.0,0.0,0.0,-0.8081,-0.9175,-1.0009,-1.0485,-1.0744,-1.0933,-1.0933,0.0,0.0,0.0,0.0,0.0,0.0,0.0,-1.3147,-1.3709,-1.3943,-1.4258,-1.4839,-1.5139,-1.5313,-1.5304,0.0,0.0,-1.5259,-1.5411,-1.571,-1.6019,-1.5895,-1.5879,-1.6335,-1.6235,-1.6253,0.0,0.0,0.0,0.0,0.0,0.0,0.0,0.0,1.2137,1.2158,0.0,1.2328,0.0,0.0,0.0,0.0,0.0,1.0072,0.0,0.0,0.7657,0.733,0.7461,0.7138,0.6881,0.6881,0.7073,0.6745,0.5958,0.515,0.0,0.0,0.0,0.0,0.0,0.0,0.3761,0.3228,0.3159,0.2621,0.1547,0.1277,0.1076,0.0873,0.0806,0.0538,0.0,-0.0672,-0.1009,-0.1078,-0.0067,0.0,0.0,0.0,0.0,0.0,0.0,0.0,0.0,0.0,0.0,0.0,0.0,0.0,0.0,0.0,0.0,0.0,0.0,0.0,0.0,-0.3226,0.0,0.0,0.0,0.0,0.0,0.0,0.0,0.0,0.0,0.0,-0.8544,-0.9227,-0.9799,-1.0491,0.0,0.0,0.0,0.0,-1.1066,-1.1122,-1.1254,-1.1512,-1.2127,-1.2267,-1.2661,-1.3709,0.0,0.0,-1.5542,-1.5698,-1.5707,-1.5707,-1.5873,-1.5836,-1.5413,-1.5633,-1.5947,-1.6632,-1.6353,-1.6249,-1.6704,-1.666,-1.6621,1.3591,0.0,0.0,0.0,0.0,1.3412,1.2889,1.221,1.1515,1.145,1.1747,1.1288,0.0,0.0,0.0,0.0,0.0,0.0,0.9256,0.8296,0.7787,0.7466,0.7265,0.7138,0.7007,0.6881,0.6482,0.635,0.6416,0.4954,0.4622,0.5418,0.0,0.0,0.0,0.0,0.3959,0.3429,0.3295,0.3025,0.2688,0.2554,0.2084,0.1412,0.1479,0.121,0.0403,0.0134,-0.0067,-0.0269,-0.0,0.0,0.0,0.0,0.0,0.0,0.0,0.0,0.0,0.0,0.0,0.0,0.0,0.0,0.0,0.0,0.0,0.0,0.0,0.0,-0.2889,-0.3758,-0.4025,0.0,0.0,0.0,0.0,0.0,0.0,0.0,0.0,0.0,-0.8156,-0.942,-1.02,0.0,0.0,-1.0364,-1.0561,-1.0744,-1.0996,-1.1185,-1.1496,0.0,-1.2217,-1.255,-1.2972,-1.3558,-1.4151,-1.4836,-1.5606,-1.5936,-1.6138,-1.6138,-1.6358,-1.656,-1.6455,-1.6437,-1.659,-1.6784,-1.6693,-1.6713,-1.7159,-1.7082,-1.7038,1.2931,1.3339,1.3726,1.3726,1.3416,1.313,1.2589,1.1864,1.1358,1.1233,1.1435,1.0982,1.1108,1.1677,1.174,0.0,0.0,0.0,0.9005,0.7912,0.7722,0.7526,0.733,0.7204,0.7138,0.7007,0.6613,0.6412,0.6478,0.555,0.5153,0.5286,0.0,0.0,0.4489,0.422,0.3892,0.3498,0.3295,0.3159,0.3092,0.2956,0.2554,0.1951,0.2018,0.1748,0.0941,0.0873,0.0605,0.0202,0.0336,0.0605,0.0,0.0,0.0,0.0,0.0,0.0,0.0,0.0,0.0,0.0,0.0,-0.2155,-0.236,0.0,0.0,0.0,-0.2827,-0.3094,-0.3625,-0.3892,0.0,0.0,0.0,0.0,0.0,0.0,0.0,-0.649,-0.6164,-0.6424,-0.7717,-0.8711,-0.9432,-0.9664,-0.9983,-1.0219,-1.0522,0.0,-1.1354,-1.1668,-1.184,-1.2101,-1.2431,-1.2661,-1.2968,-1.358,-1.4271,-1.4857,-1.5414,-1.5701,-1.5919,-1.6169,-1.6399,-1.6621,-1.683,-1.6834,-1.6868,-1.6886,-1.6971,-1.7109,-1.7482,-1.7388,-1.735,1.2528,1.1872,1.3025,1.3199,1.2712,1.252,1.2027,1.1365,1.149,1.1498,1.131,1.1185,1.1247,1.1498,1.1373,0.0,0.9518,0.9396,0.8689,0.7587,0.7587,0.7521,0.7526,0.733,0.7199,0.7204,0.7204,0.6872,0.621,0.6474,0.6276,0.5617,0.4489,0.409,0.4353,0.409,0.3761,0.3565,0.3362,0.3159,0.2956,0.282,0.2621,0.2356,0.2423,0.2153,0.1681,0.1479,0.1143,0.0672,0.1008,0.121,0.121,0.0,0.0,0.0,0.0,0.0,0.0,0.0,0.0,0.0,0.0,0.0,0.0,0.0,0.0,0.0,-0.3498,0.0,-0.4492,-0.3758,0.0,0.0,0.0,-0.4483,-0.4815,-0.5894,-0.6623,-0.6717,0.0,0.0,-0.7395,-0.7508,-0.7962,-0.9074,-0.9771,-1.0238,-1.0435,-1.1141,-1.186,-1.2109,-1.2276,-1.2434,-1.2773,-1.2757,-1.2952,-1.3832,-1.4295,-1.4678,-1.5089,-1.5234,-1.5409,-1.5895,-1.6061,-1.6281,-1.6778,-1.6908,-1.689,-1.6904,-1.706,-1.7226,-1.751,-1.7501,-1.7404,1.3086,1.3459,1.339,1.2781,1.1864,1.1864,1.1677,1.1498,1.1428,1.1373,1.1303,1.1192,1.1059,1.0996,1.0814,1.0421,0.9709,0.9709,0.9064,0.8042,0.8037,0.7847,0.7526,0.7456,0.7461,0.7396,0.7265,0.7068,0.6937,0.6474,0.6141,0.5947,0.5415,0.5153,0.516,0.4891,0.4492,0.3897,0.3761,0.3355,0.282,0.2753,0.2554,0.2221,0.2356,0.2288,0.2085,0.2018,0.1951,0.1816,0.1884,0.1884,0.1748,0.2085,0.0,0.0,0.0,0.0,0.0,0.0,0.0,0.0,0.0,-0.1614,-0.3372,0.0,-0.2552,0.0,-0.3424,-0.3828,-0.3959,-0.3825,0.0,0.0,-0.4425,-0.502,-0.5226,-0.6368,-0.7146,-0.7166,-0.7108,-0.7272,-0.766,-0.7864,-0.8077,-0.8487,-0.8883,-0.9319,-0.9777,-1.0645,-1.1411,-1.1778,-1.2393,-1.2822,-1.2976,-1.3104,-1.3479,-1.4063,-1.4292,-1.4538,-1.5117,-1.5196,-1.5275,-1.5417,-1.5771,-1.6237,-1.6808,-1.6894,-1.6908,-1.689,-1.6959,-1.6968,-1.7107,-1.7038,-1.7033,1.3873,1.3987,1.3327,1.2739,1.2193,1.1987,1.1941,1.1949,1.163,1.1435,1.1428,1.124,1.1059,1.0933,1.0744,1.0421,0.9894,0.9831,0.9326,0.856,0.856,0.8431,0.8172,0.7912,0.7782,0.7782,0.7461,0.733,0.7265,0.6806,0.6609,0.6605,0.6342,0.6148,0.602,0.555,0.502,0.4495,0.4159,0.382,0.342,0.3021,0.2822,0.2755,0.2621,0.2555,0.2555,0.2555,0.2488,0.2421,0.2421,0.2354,0.2285,0.2488,0.2688,0.0,0.0,0.0,0.0,0.0,0.0,0.0,0.0,0.0,0.0,0.0,-0.2753,-0.3025,-0.356,-0.3894,-0.3825,-0.3828,-0.3825,-0.3763,-0.4489,-0.502,-0.5223,-0.6435,-0.7255,-0.7177,-0.769,-0.805,-0.7957,-0.8231,-0.8306,-0.8231,-0.8418,-0.8889,-0.9655,-1.0615,-1.1377,-1.172,-1.2529,-1.315,-1.3221,-1.3375,-1.3564,-1.3848,-1.392,-1.4057,-1.4418,-1.4418,-1.4489,-1.4776,-1.5054,-1.5672,-1.6616,-1.6702,-1.6621,-1.6839,-1.6908,-1.6908,-1.6908,-1.6908,-1.6817,1.4765,1.4353,1.3591,1.3268,1.334,1.2743,1.2484,1.2399,1.1884,1.1667,1.1622,1.1365,1.124,1.1122,1.0933,1.0604,1.0148,1.0002,0.9701,0.9197,0.9226,0.9179,0.9114,0.8652,0.8385,0.8391,0.7997,0.78,0.78,0.7541,0.7409,0.7409,0.7215,0.7087,0.7017,0.6344,0.5733,0.5316,0.4709,0.4442,0.4375,0.3629,0.3355,0.3553,0.3086,0.2954,0.3155,0.309,0.2956,0.282,0.2753,0.2753,0.2686,0.2822,0.2956,0.0,0.3023,0.0,0.0,0.0,0.0,0.0,0.0,0.0,0.0,-0.2753,-0.3092,-0.3498,-0.383,-0.3961,-0.3894,-0.3894,-0.3894,-0.4028,-0.4553,-0.4882,-0.5096,-0.631,-0.7174,-0.7086,-0.8054,-0.8529,-0.8279,-0.8465,-0.8541,-0.827,-0.8394,-0.8778,-0.9593,-1.0532,-1.1269,-1.1755,-1.2372,-1.2785,-1.3091,-1.3178,-1.3273,-1.3346,-1.3419,-1.3419,-1.3419,-1.3419,-1.3557,-1.3992,-1.432,-1.4881,-1.6315,-1.6236,-1.6298,-1.6687,-1.6722,-1.6711,-1.6857,-1.6908,-1.6908,1.5888,1.6015,1.5668,1.5487,1.5313,1.4267,1.3105,1.2077,1.1948,1.1802,1.156,1.1373,1.131,1.124,1.1122,1.0996,1.0877,1.0924,1.0706,1.0205,1.0356,1.0107,0.9759,0.9622,0.9553,0.9553,0.9479,0.9485,0.9416,0.8938,0.8662,0.8667,0.8255,0.7966,0.7897,0.0,0.0,0.0,0.5525,0.5114,0.4912,0.4465,0.4217,0.4154,0.3885,0.0,0.3818,0.3553,0.3353,0.3353,0.3088,0.0,0.0,0.0,0.0,0.0,0.0,0.0,0.0,0.0,0.0,0.0,0.1076,0.0134,-0.1008,-0.2082,-0.3088,-0.3828,-0.3894,-0.403,-0.4167,-0.4233,-0.4233,-0.4233,-0.4691,-0.502,-0.5096,-0.5967,-0.6718,-0.7191,-0.8116,-0.8661,-0.8581,-0.8665,-0.8656,-0.8566,-0.8618,-0.8718,-0.8939,-0.9681,-1.0306,-1.0507,-1.1025,-1.1465,-1.1929,-1.2077,-1.2305,-1.2599,-1.29,-1.3046,-1.3068,-1.3068,-1.3053,-1.3214,-1.3903,-1.4446,-1.4653,-1.541,-1.6113,-1.6121,-1.6054,-1.6139,-1.6763,-1.6908,-1.6908,1.6783,1.6893,1.6351,1.6057,0.0,1.4714,1.3735,1.2975,1.2476,1.2189,1.2043,1.1963,1.1906,1.1906,1.1775,1.1717,1.1724,1.1609,1.1395,1.1009,1.116,1.094,1.0535,1.0404,1.0263,1.0263,1.0043,0.9904,0.9834,0.9287,0.9006,0.9006,0.8438,0.8155,0.8085,0.8265,0.7923,0.7159,0.6592,0.6242,0.6039,0.5464,0.5218,0.5227,0.4677,0.0,0.0,0.0,0.0,0.0,0.0,0.0,0.0,0.2569,0.0,0.2307,0.217,0.2101,0.203,0.1821,0.1611,0.1471,0.091,0.0138,-0.0944,-0.2217,-0.3291,-0.403,-0.3894,-0.3894,-0.4236,-0.4349,-0.4384,-0.4387,-0.4709,-0.4885,-0.4972,-0.5633,-0.62,-0.6587,-0.748,-0.8115,-0.8246,-0.8161,-0.8313,-0.8627,-0.8703,-0.8703,-0.878,-0.9231,-0.976,-1.0132,-1.0346,-1.0714,-1.1168,-1.1552,-1.1781,-1.2231,-1.2599,-1.2963,-1.3096,-1.3124,-1.3166,-1.3313,-1.3787,-1.4179,-1.447,-1.508,-1.5674,-1.5863,-1.5902,-1.6055,-1.6499,-1.6399,-1.634,1.7809,1.7578,1.6806,1.6412,1.6193,1.5215,1.4604,1.4188,0.0,0.0,0.0,1.2526,1.2526,1.2451,1.239,1.2323,1.2323,1.2176,1.1988,1.1689,1.186,1.1731,1.1438,1.1201,1.1039,1.0969,1.0536,1.0313,1.0319,0.9619,0.9269,0.9198,0.8546,0.8188,0.8198,0.8368,0.8295,0.7983,0.7583,0.736,0.714,0.6456,0.6154,0.6244,0.547,0.5057,0.5196,0.4888,0.4625,0.4425,0.382,0.3447,0.3379,0.2803,0.2401,0.2256,0.2113,0.1896,0.1676,0.1458,0.1312,0.1166,0.0801,-0.0,-0.13,-0.2251,-0.3069,-0.3954,-0.3745,-0.3816,-0.4227,-0.4375,-0.4504,-0.4434,-0.4594,-0.4723,-0.4731,-0.52,-0.5641,-0.5891,-0.6536,-0.7257,-0.7706,-0.7698,-0.7774,-0.847,-0.8703,-0.8703,-0.8703,-0.8927,-0.9377,-0.9669,-0.975,-0.9895,-1.034,-1.0795,-1.1341,-1.1565,-1.2168,-1.2709,-1.3037,-1.3202,-1.3383,-1.357,-1.3766,-1.4044,-1.4501,-1.4904,-1.5146,-1.5669,-1.5878,-1.5931,-1.5907,-1.5783,-1.564,1.9213,1.8745,1.8478,1.7987,1.7415,1.6582,1.5878,1.5126,1.3484,1.2683,1.2526,1.2526,1.2526,1.2526,1.2451,1.2451,1.2473,1.2534,1.2557,1.2529,1.2699,1.2601,1.2415,1.2383,1.2251,1.2111,1.1959,1.1959,1.1806,1.0849,1.0261,1.0107,0.914,0.8609,0.8614,0.8642,0.8642,0.8614,0.8152,0.7919,0.769,0.7097,0.6662,0.6527,0.6147,0.5847,0.5698,0.5321,0.5027,0.4819,0.4472,0.4193,0.3982,0.3632,0.3127,0.2401,0.2184,0.1893,0.1312,0.1239,0.1239,0.1166,0.1166,0.0363,-0.1227,-0.1081,-0.1441,-0.2808,-0.3593,-0.4185,-0.4178,-0.4334,-0.4419,-0.4344,-0.4573,-0.4729,-0.467,-0.4691,-0.4989,-0.5663,-0.5533,-0.6079,-0.7395,-0.7544,-0.7693,-0.847,-0.8627,-0.8627,-0.8551,-0.8623,-0.8703,-0.8627,-0.8475,-0.8551,-0.9027,-0.9231,-0.9785,-1.0335,-1.1218,-1.1849,-1.2365,-1.266,-1.3015,-1.322,-1.3668,-1.3952,-1.4128,-1.4693,-1.5018,-1.5182,-1.519,-1.5115,-1.5188,-1.5128,-1.5253,1.9736,1.9494,1.9271,1.8948,1.846,1.741,1.6518,1.5652,1.4771,1.4274,1.3878,1.3327,1.3186,1.3459,1.3186,1.3053,1.306,1.3128,1.3027,1.2897,1.2977,1.2882,1.2669,1.2743,1.2746,1.2606,1.2526,1.2452,1.2378,1.1484,1.0962,1.0887,0.976,0.916,0.916,0.8856,0.8703,0.8699,0.8538,0.8266,0.7966,0.7729,0.7315,0.6947,0.6566,0.6295,0.6065,0.563,0.5303,0.5234,0.4638,0.4227,0.4158,0.3682,0.3181,0.2803,0.2728,0.2501,0.2275,0.1896,0.1594,0.1291,0.1292,0.0912,0.0152,-0.0074,-0.0437,-0.1165,-0.1895,-0.2402,-0.2911,-0.3685,-0.4087,-0.3937,-0.4283,-0.4543,-0.4701,-0.4662,-0.4775,-0.524,-0.5126,-0.5389,-0.6468,-0.6542,-0.6777,-0.7548,-0.8093,-0.8403,-0.8489,-0.8653,-0.8604,-0.8286,-0.819,-0.8251,-0.8489,-0.889,-0.93,-0.9722,-1.0444,-1.1187,-1.1822,-1.23,-1.2606,-1.3155,-1.3539,-1.3688,-1.3785,-1.4052,-1.4391,-1.4734,-1.465,-1.462,-1.4778,-1.4868,-1.522,2.0234,2.0008,1.9862,1.9594,1.9195,1.8171,1.7215,1.6487,1.6335,1.6071,1.5724,1.4496,1.4065,1.4274,1.3848,1.3637,1.3492,1.3492,1.336,1.3162,1.323,1.3064,1.287,1.294,1.2973,1.29,1.2746,1.2673,1.2599,1.1855,1.1409,1.1111,1.0293,0.9765,0.9771,0.9311,0.9079,0.9079,0.9079,0.878,0.8102,0.7949,0.7718,0.7249,0.6829,0.6532,0.6368,0.5821,0.5545,0.5475,0.4819,0.4412,0.4339,0.3797,0.3444,0.3366,0.3287,0.3288,0.3054,0.2663,0.2118,0.157,0.1492,0.1414,0.1253,0.0759,0.0222,0.0,-0.0297,-0.0742,-0.1487,-0.2559,-0.3427,-0.3585,-0.4026,-0.4373,-0.4618,-0.4621,-0.4623,-0.4781,-0.4859,-0.4935,-0.5395,-0.5547,-0.5951,-0.6917,-0.7463,-0.794,-0.8462,-0.8602,-0.8374,-0.8238,-0.8124,-0.8205,-0.8298,-0.8635,-0.8987,-0.9283,-0.9789,-1.0547,-1.1222,-1.1556,-1.1949,-1.2626,-1.3021,-1.3197,-1.3385,-1.3646,-1.3899,-1.4146,-1.4371,-1.4461,-1.4713,-1.4796,-1.5068,2.121,2.0595,2.0491,2.0028,1.9326,1.9195,1.8781,1.8313,1.7824,1.7685,1.753,1.5863,1.4792,1.4338,1.4281,1.392,1.3492,1.3492,1.3477,1.344,1.3477,1.3331,1.3135,1.3185,1.3119,1.29,1.29,1.29,1.282,1.2077,1.1335,1.0663,1.0438,1.0455,1.0455,1.038,1.0299,1.0293,1.0363,0.9609,0.8178,0.7565,0.7257,0.7184,0.678,0.6619,0.6605,0.5992,0.5597,0.5523,0.5143,0.4919,0.4921,0.4854,0.4545,0.4068,0.399,0.3756,0.321,0.3054,0.2741,0.2195,0.2118,0.1884,0.1414,0.1252,0.0858,0.0233,-0.0,0.0,-0.0234,-0.1091,-0.2181,-0.3348,-0.399,-0.4233,-0.4384,-0.4233,-0.4233,-0.4462,-0.4387,-0.447,-0.5098,-0.5266,-0.5849,-0.6907,-0.7085,-0.7365,-0.8133,-0.8281,-0.8237,-0.8298,-0.8246,-0.8246,-0.8164,-0.825,-0.8534,-0.8733,-0.926,-0.9851,-1.0419,-1.0833,-1.1219,-1.1632,-1.21,-1.2357,-1.2619,-1.3052,-1.3561,-1.347,-1.3802,-1.4398,-1.465,-1.4734,-1.4831,2.1552,2.1095,2.1019,2.0529,1.9878,1.9645,1.938,1.8967,1.8416,1.8175,1.8147,1.7313,1.631,1.5211,1.4576,1.3985,1.3492,1.3492,1.3492,1.3492,1.3492,1.3492,1.3419,1.3419,1.3353,1.3273,1.3119,1.2973,1.2826,1.2305,1.1938,1.179,1.1505,1.1425,1.1564,1.1193,1.1036,1.1036,1.088,1.0483,0.967,0.8744,0.794,0.7257,0.703,0.6868,0.6788,0.6409,0.6103,0.6025,0.5715,0.5482,0.5326,0.5326,0.5168,0.4849,0.4696,0.4384,0.3756,0.3677,0.3444,0.282,0.2588,0.2431,0.2041,0.1886,0.1493,0.0864,0.0314,0.0,0.0,0.0,-0.0941,-0.1883,-0.3062,-0.4003,-0.4075,-0.4077,-0.4155,-0.4384,-0.4307,-0.4337,-0.4634,-0.4859,-0.5317,-0.61,-0.6518,-0.7129,-0.7769,-0.8101,-0.8338,-0.8443,-0.8437,-0.8454,-0.8383,-0.845,-0.8533,-0.8599,-0.8793,-0.9191,-0.9735,-1.0033,-1.0289,-1.0717,-1.1149,-1.1327,-1.1322,-1.158,-1.1923,-1.218,-1.2784,-1.3385,-1.3984,-1.4243,-1.4412,2.1731,2.1502,2.1205,2.0819,2.0391,2.0101,1.9812,1.9545,1.9099,1.8883,1.8798,1.8564,1.7737,1.6444,1.5512,1.4854,1.4332,1.4167,1.4122,1.4114,1.4038,1.392,1.3775,1.3702,1.3637,1.3506,1.344,1.3297,1.3131,1.2845,1.2735,1.2762,1.2402,1.2355,1.2539,1.2148,1.1908,1.1908,1.1748,1.1398,1.088,1.0025,0.9091,0.8018,0.7658,0.7476,0.7322,0.6938,0.6659,0.6553,0.6234,0.6018,0.5902,0.5905,0.5823,0.5583,0.5504,0.511,0.455,0.4518,0.42,0.3506,0.3243,0.291,0.2608,0.205,0.1573,0.1336,0.0707,0.0,0.0,0.0,0.0,-0.055,-0.1963,-0.2904,-0.3688,-0.394,-0.4119,-0.4272,-0.4232,-0.4259,-0.4172,-0.432,-0.4696,-0.5233,-0.5916,-0.6615,-0.7066,-0.7595,-0.7842,-0.7928,-0.7952,-0.8142,-0.8484,-0.8616,-0.8648,-0.8572,-0.8644,-0.8807,-0.9257,-0.934,-0.934,-0.9772,-1.012,-1.0381,-1.0463,-1.0463,-1.0722,-1.1068,-1.1585,-1.2363,-1.313,-1.3483,-1.3737,2.1731,2.1436,2.1061,2.0809,2.0566,2.0537,2.045,2.0187,2.0178,2.0022,1.9781,1.9391,1.8822,1.805,1.7383,1.685,1.6187,1.5758,1.5544,1.5528,1.5234,1.4848,1.4266,1.4266,1.4015,1.3675,1.3843,1.3863,1.3719,1.3754,1.3461,1.2923,1.3015,1.3213,1.336,1.32,1.3068,1.3034,1.3028,1.2555,1.145,1.1224,1.0645,0.963,0.8712,0.8318,0.8264,0.754,0.7153,0.7096,0.6773,0.6599,0.6737,0.6754,0.6579,0.6321,0.6325,0.608,0.5644,0.547,0.5133,0.4465,0.4021,0.3486,0.2907,0.1835,0.1187,0.126,0.1184,0.0867,0.0,0.0,0.0079,-0.0,-0.0158,-0.1419,-0.3467,-0.3776,-0.3889,-0.3987,-0.4043,-0.401,-0.3775,-0.3863,-0.4339,-0.4737,-0.5023,-0.5399,-0.6089,-0.6316,-0.641,-0.6498,-0.6596,-0.6959,-0.8193,-0.8456,-0.8468,-0.848,-0.8476,-0.8652,-0.8652,-0.8652,-0.874,-0.8911,-0.9345,-0.9602,-0.9777,-1.0038,-1.0467,-1.0727,-1.0814,-1.1413,-1.2277,-1.2363,-1.2705,2.1655,2.1512,2.1061,2.0819,2.0819,2.0654,2.0566,2.0489,2.0342,2.0264,2.0079,1.979,1.9568,1.9307,1.9099,1.805,1.6438,1.598,1.5931,1.6096,1.5863,1.5601,1.53,1.5375,1.5075,1.4425,1.4453,1.4333,1.4045,1.3909,1.3763,1.3601,1.3628,1.3736,1.383,1.3774,1.3774,1.3774,1.3774,1.3378,1.2644,1.2357,1.1854,1.1341,0.9937,0.9267,0.9493,0.9047,0.8593,0.8231,0.7889,0.7507,0.7177,0.7033,0.6901,0.6651,0.6552,0.627,0.5879,0.5901,0.5773,0.5403,0.5167,0.4587,0.3716,0.2882,0.2215,0.1554,0.1374,0.105,0.0653,0.073,0.0728,0.0409,-0.0328,-0.0983,-0.2053,-0.3141,-0.3904,-0.3999,-0.4065,-0.4122,-0.4046,-0.4169,-0.4303,-0.4506,-0.4958,-0.5331,-0.5622,-0.5991,-0.6169,-0.6254,-0.6343,-0.6605,-0.6966,-0.7669,-0.7937,-0.8025,-0.8116,-0.8476,-0.8568,-0.8568,-0.8656,-0.8744,-0.8999,-0.8999,-0.9174,-0.9262,-0.9694,-1.0033,-1.0125,-1.0554,-1.1332,-1.1413,-1.1929,2.1655,2.1359,2.1138,2.0896,2.0829,2.0654,2.0576,2.0576,2.0489,2.042,2.0333,2.0177,2.0098,2.002,2.0029,1.9192,1.756,1.7168,1.705,1.7334,1.7051,1.6653,1.6253,1.6286,1.5827,1.4925,1.4795,1.4734,1.4598,1.4365,1.423,1.4159,1.4179,1.411,1.4126,1.4082,1.4088,1.4088,1.4088,1.3866,1.3394,1.2894,1.2487,1.2188,1.1038,1.0338,1.0269,1.0037,0.9622,0.9105,0.8983,0.8613,0.7922,0.7604,0.7308,0.7138,0.6923,0.6658,0.6337,0.6319,0.6233,0.6096,0.5812,0.5245,0.4305,0.3768,0.292,0.2169,0.1814,0.1562,0.1426,0.1491,0.1479,0.0922,0.0168,-0.0504,-0.0925,-0.2707,-0.3838,-0.4128,-0.4175,-0.421,-0.4134,-0.4265,-0.42,-0.421,-0.4659,-0.5013,-0.5102,-0.5366,-0.5719,-0.5719,-0.563,-0.563,-0.5811,-0.6254,-0.7224,-0.7489,-0.7757,-0.8116,-0.8392,-0.848,-0.8568,-0.8568,-0.8572,-0.8572,-0.8572,-0.8572,-0.8828,-0.9262,-0.9345,-0.9602,-1.012,-1.0549,-1.0982,2.1578,2.1282,2.1215,2.0964,2.0654,2.0634,2.0576,2.0576,2.0576,2.0566,2.0566,2.0566,2.0411,2.0342,2.0264,2.0079,1.9615,1.9191,1.9051,1.906,1.8742,1.7979,1.7063,1.708,1.6393,1.5179,1.4961,1.5161,1.5389,1.5148,1.4935,1.4713,1.4525,1.435,1.4112,1.4153,1.4088,1.4088,1.4088,1.3878,1.3326,1.2811,1.2517,1.2296,1.1884,1.1333,1.0684,1.0512,1.0226,0.978,0.9842,0.9634,0.891,0.8341,0.793,0.7694,0.7655,0.7314,0.6888,0.6695,0.6563,0.6368,0.5898,0.5496,0.4862,0.4018,0.3388,0.3019,0.2822,0.2573,0.2308,0.218,0.1901,0.1511,0.1101,0.0676,-0.0254,-0.2319,-0.4124,-0.418,-0.4287,-0.4206,-0.4032,-0.4119,-0.421,-0.4123,-0.4212,-0.4478,-0.4476,-0.4565,-0.4389,-0.4476,-0.4565,-0.4743,-0.4746,-0.5013,-0.6074,-0.6956,-0.7224,-0.758,-0.7852,-0.8032,-0.8208,-0.8296,-0.8568,-0.8568,-0.8572,-0.8572,-0.8572,-0.8828,-0.8828,-0.8911,-0.9345,-0.9772,-1.0033,2.1655,2.1436,2.1282,2.1051,2.0819,2.0654,2.0576,2.0576,2.0576,2.0576,2.0576,2.0576,2.0566,2.0489,2.0489,2.0489,2.0401,2.0265,2.0062,1.9744,1.9478,1.9051,1.862,1.8665,1.8118,1.7029,1.6403,1.6114,1.6041,1.5582,1.5264,1.5187,1.5006,1.4734,1.4468,1.4398,1.4314,1.4328,1.4166,1.3944,1.3561,1.2969,1.258,1.2525,1.1751,1.1242,1.1212,1.1376,1.1147,1.0503,1.0433,1.0056,0.9533,0.8919,0.8509,0.8271,0.7899,0.7431,0.7017,0.6864,0.6848,0.6764,0.6512,0.6153,0.57,0.5212,0.4587,0.3768,0.3376,0.312,0.2582,0.2409,0.2143,0.1755,0.1303,0.0952,0.0699,-0.053,-0.2135,-0.3941,-0.4308,-0.4306,-0.4212,-0.4297,-0.421,-0.4212,-0.421,-0.4297,-0.4297,-0.43,-0.4297,-0.4297,-0.4212,-0.4034,-0.4212,-0.4302,-0.483,-0.5805,-0.6248,-0.6779,-0.7224,-0.7496,-0.7672,-0.7937,-0.8296,-0.848,-0.848,-0.8572,-0.8572,-0.8572,-0.8656,-0.8828,-0.8911,-0.917,-0.9428,2.1655,2.1502,2.1282,2.1061,2.0906,2.0654,2.0576,2.0576,2.0576,2.0576,2.0644,2.0654,2.0741,2.0722,2.0809,2.0809,2.0809,2.0731,2.0576,2.0323,2.0091,1.9792,1.9362,1.9045,1.8727,1.8006,1.7277,1.6952,1.6878,1.6154,1.5658,1.5394,1.5242,1.4999,1.4824,1.4566,1.4398,1.4398,1.425,1.3997,1.3717,1.302,1.2567,1.255,1.1737,1.1383,1.1546,1.1787,1.1585,1.101,1.0606,1.0229,0.9963,0.9397,0.8891,0.8508,0.8127,0.7708,0.7199,0.702,0.698,0.6976,0.6905,0.6531,0.6028,0.5829,0.5173,0.427,0.3725,0.3382,0.2906,0.2552,0.2323,0.2122,0.1323,0.0884,0.0806,0.0,-0.0896,-0.251,-0.3499,-0.4125,-0.4304,-0.43,-0.43,-0.4297,-0.4297,-0.421,-0.421,-0.4123,-0.4123,-0.4032,-0.3944,-0.3855,-0.3765,-0.3765,-0.3764,-0.4385,-0.5095,-0.5802,-0.6425,-0.6691,-0.6959,-0.7224,-0.7584,-0.794,-0.8028,-0.848,-0.8572,-0.8572,-0.8568,-0.8656,-0.874,-0.8744,-0.8915,2.1655,2.1502,2.1282,2.1138,2.0906,2.0731,2.0644,2.0566,2.0654,2.0654,2.0644,2.0819,2.0906,2.0906,2.1051,2.1138,2.1138,2.0984,2.0906,2.0819,2.0595,2.0226,1.9678,1.8957,1.8567,1.8273,1.7772,1.7602,1.7691,1.6722,1.6093,1.5614,1.5289,1.5166,1.5075,1.4734,1.4482,1.4482,1.4243,1.4082,1.4055,1.3101,1.2578,1.2584,1.1864,1.1449,1.1492,1.1673,1.1612,1.1145,1.0663,1.0355,1.0155,0.9694,0.9039,0.848,0.8284,0.7828,0.7297,0.7083,0.7085,0.7092,0.6881,0.6505,0.6075,0.5764,0.5352,0.4684,0.4112,0.3697,0.3441,0.3004,0.2608,0.2249,0.1498,0.089,0.0179,-0.0627,-0.0893,-0.0806,-0.242,-0.4218,-0.4216,-0.4304,-0.421,-0.421,-0.421,-0.4034,-0.3944,-0.3855,-0.3765,-0.3676,-0.3676,-0.3585,-0.3496,-0.3409,-0.3408,-0.3585,-0.4119,-0.4652,-0.5447,-0.5802,-0.6337,-0.6694,-0.6871,-0.7228,-0.758,-0.794,-0.8296,-0.8296,-0.83,-0.848,-0.8572,-0.8572,-0.8656,2.1655,2.1512,2.1425,2.1205,2.0906,2.0819,2.0751,2.0654,2.0761,2.08,2.0751,2.0974,2.1121,2.0916,2.1158,2.1215,2.1265,2.1178,2.1061,2.0906,2.0829,2.0654,2.0411,2.0079,1.9775,1.9548,1.8816,1.8567,1.8345,1.7123,1.6421,1.6343,1.5621,1.5597,1.6012,1.5333,1.4999,1.4824,1.4489,1.4321,1.4149,1.3189,1.2578,1.2527,1.1723,1.1274,1.1226,1.1286,1.1395,1.1419,1.1063,1.0912,1.0775,0.9933,0.9228,0.883,0.8034,0.7408,0.7219,0.7027,0.7041,0.7105,0.6878,0.6639,0.6492,0.6339,0.586,0.5249,0.4646,0.4112,0.3701,0.3137,0.2662,0.2166,0.1664,0.1149,0.0892,0.0266,-0.0265,-0.0268,-0.1702,-0.3047,-0.3857,-0.4127,-0.4034,-0.4034,-0.3944,-0.3764,-0.3676,-0.3676,-0.3587,-0.3587,-0.3497,-0.3406,-0.3227,-0.3141,-0.3053,-0.3051,-0.3229,-0.3497,-0.4208,-0.4741,-0.5542,-0.6254,-0.6343,-0.6697,-0.6959,-0.7224,-0.7492,-0.776,-0.8204,-0.8388,-0.8568,-0.8568,-0.8572,2.1845,2.1943,2.1865,2.1754,2.1758,2.162,2.1531,2.1441,2.1531,2.1531,2.1521,2.1768,2.1847,2.1768,2.1936,2.2005,2.1995,2.1926,2.1857,2.1699,2.1571,2.1105,2.0605,2.0498,2.0333,2.0108,1.9548,1.9222,1.8825,1.7529,1.7009,1.674,1.5966,1.568,1.5937,1.5514,1.509,1.4999,1.4734,1.4475,1.4441,1.3702,1.3266,1.2981,1.2291,1.171,1.1672,1.1624,1.1618,1.1534,1.1306,1.1142,1.1128,1.0453,0.9695,0.9269,0.8535,0.7935,0.7183,0.6974,0.7061,0.6997,0.6915,0.682,0.6759,0.6607,0.6234,0.5928,0.5339,0.4792,0.4325,0.3663,0.286,0.2347,0.1913,0.158,0.1432,0.0889,0.0532,0.0,-0.0985,-0.215,-0.3229,-0.3499,-0.3767,-0.3765,-0.3676,-0.3585,-0.3496,-0.3408,-0.3409,-0.332,-0.323,-0.3141,-0.3139,-0.3053,-0.2963,-0.2963,-0.2963,-0.2963,-0.3408,-0.403,-0.4654,-0.5366,-0.5722,-0.5988,-0.6163,-0.6425,-0.6871,-0.7228,-0.776,-0.8028,-0.812,-0.83,-0.83,2.219,2.2563,2.2415,2.2572,2.2808,2.2706,2.2452,2.2605,2.2544,2.2554,2.2554,2.2768,2.2737,2.2951,2.2857,2.3143,2.3143,2.2878,2.2778,2.2585,2.2291,2.1678,2.0819,2.0605,2.0351,2.0117,1.9803,1.9636,1.9231,1.8167,1.7683,1.735,1.6312,1.5673,1.5839,1.5423,1.518,1.509,1.4908,1.4741,1.4685,1.4159,1.3736,1.3601,1.2948,1.2443,1.2369,1.2267,1.2109,1.1714,1.1432,1.1294,1.1257,1.1049,1.0315,0.947,0.9105,0.8402,0.7516,0.7173,0.7112,0.7102,0.7004,0.6929,0.6865,0.6671,0.6522,0.6445,0.5866,0.5434,0.5051,0.4174,0.3298,0.2701,0.2349,0.1938,0.1605,0.1433,0.1342,0.0897,-0.0358,-0.1433,-0.1972,-0.278,-0.3585,-0.3497,-0.3408,-0.3318,-0.3229,-0.323,-0.3142,-0.3053,-0.2964,-0.2964,-0.2964,-0.2875,-0.2875,-0.2875,-0.2875,-0.2963,-0.3318,-0.3764,-0.3944,-0.4391,-0.4924,-0.5191,-0.5369,-0.5633,-0.6163,-0.6517,-0.6962,-0.7228,-0.7404,-0.7584,-0.7764,2.2946,2.3039,2.3049,2.294,2.2869,2.2869,2.2727,2.2665,2.2808,2.2869,2.2737,2.2971,2.3063,2.2992,2.3196,2.3194,2.3267,2.3185,2.3032,2.2869,2.2625,2.2309,2.1676,2.1289,2.0849,2.0487,2.0284,2.0048,1.9664,1.8994,1.8594,1.854,1.7196,1.6484,1.6738,1.5922,1.5347,1.5347,1.5173,1.5082,1.4866,1.4303,1.3899,1.3784,1.3065,1.2743,1.2789,1.2694,1.2631,1.2482,1.2141,1.1784,1.1473,1.0843,1.0264,0.9814,0.8993,0.8246,0.7707,0.7426,0.7101,0.72,0.7027,0.6929,0.6919,0.677,0.6661,0.6592,0.608,0.5594,0.5109,0.4191,0.3608,0.3241,0.2645,0.2228,0.2055,0.1858,0.1947,0.1696,0.0179,-0.1431,-0.1522,-0.2599,-0.3138,-0.3229,-0.323,-0.3053,-0.2963,-0.2963,-0.2963,-0.2875,-0.2875,-0.2875,-0.2875,-0.2875,-0.2875,-0.2875,-0.2875,-0.2964,-0.3229,-0.3496,-0.3674,-0.3944,-0.43,-0.4478,-0.4659,-0.5102,-0.5636,-0.5902,-0.6077,-0.6432,-0.6694,-0.6962,-0.7258,2.3308,2.3505,2.3515,2.3546,2.3638,2.3659,2.3576,2.3492,2.3576,2.3576,2.3576,2.3742,2.3732,2.3659,2.3742,2.3836,2.3826,2.3826,2.3753,2.368,2.3418,2.314,2.2752,2.2274,2.1693,2.124,2.0941,2.0761,2.0357,1.9689,1.9342,1.9352,1.7879,1.7416,1.7565,1.6727,1.6237,1.5906,1.5741,1.5582,1.5213,1.4766,1.4248,1.4069,1.353,1.3296,1.315,1.3061,1.3054,1.3099,1.2787,1.2359,1.1952,1.1359,1.0907,1.0378,1.0001,0.9228,0.8773,0.841,0.8107,0.7566,0.7239,0.7044,0.6997,0.6892,0.6817,0.6719,0.6479,0.6069,0.5454,0.5119,0.4608,0.3721,0.3291,0.2868,0.2598,0.231,0.2213,0.2237,0.0896,-0.0269,-0.1075,-0.2061,-0.2781,-0.2962,-0.3051,-0.2873,-0.2963,-0.2964,-0.2964,-0.2875,-0.2875,-0.2875,-0.2875,-0.2875,-0.2875,-0.2875,-0.2875,-0.2873,-0.3051,-0.3229,-0.3496,-0.3764,-0.3942,-0.4034,-0.4304,-0.4659,-0.4926,-0.5102,-0.5366,-0.5722,-0.6083,-0.6355,-0.6671,2.3619,2.3981,2.3981,2.4198,2.4509,2.4433,2.4402,2.4423,2.455,2.4351,2.4444,2.455,2.432,2.4498,2.4392,2.4529,2.4509,2.4392,2.4299,2.431,2.4129,2.389,2.3497,2.3123,2.2656,2.2163,2.1651,2.1438,2.1014,2.0503,2.0021,1.9662,1.876,1.8356,1.8179,1.773,1.7171,1.6775,1.6598,1.6229,1.5665,1.547,1.5123,1.4441,1.4099,1.3827,1.3607,1.3503,1.3535,1.3483,1.3483,1.3096,1.2689,1.2254,1.1807,1.1241,1.116,1.0643,0.9847,0.9425,0.9013,0.8356,0.7665,0.7224,0.719,0.7121,0.698,0.6926,0.6734,0.6528,0.6174,0.5659,0.5181,0.4378,0.3935,0.3496,0.3051,0.2694,0.2511,0.2242,0.1435,0.0448,-0.0448,-0.1345,-0.2064,-0.2695,-0.2695,-0.2786,-0.2877,-0.2879,-0.2882,-0.2876,-0.2875,-0.2875,-0.2875,-0.2882,-0.288,-0.2887,-0.2884,-0.2884,-0.297,-0.3051,-0.3229,-0.3496,-0.3676,-0.3767,-0.3948,-0.4214,-0.4391,-0.4391,-0.4663,-0.5114,-0.5476,-0.5746,-0.6,2.4364,2.4426,2.4436,2.4478,2.4454,2.455,2.455,2.455,2.455,2.455,2.4529,2.454,2.4509,2.4488,2.4529,2.4529,2.4467,2.4509,2.455,2.455,2.4454,2.4255,2.4053,2.3735,2.3448,2.3021,2.2428,2.1816,2.1518,2.1089,2.0828,2.0567,1.98,1.934,1.9058,1.8456,1.7971,1.7631,1.7376,1.6934,1.6394,1.5899,1.5484,1.4566,1.4243,1.4082,1.3997,1.3997,1.3997,1.3997,1.3997,1.3795,1.3361,1.2862,1.2397,1.1962,1.184,1.1427,1.0657,0.9885,0.9357,0.8757,0.8113,0.768,0.7496,0.739,0.7176,0.7082,0.7068,0.6977,0.6919,0.6151,0.5272,0.4654,0.3942,0.3141,0.2963,0.2875,0.2785,0.2604,0.1795,0.0987,0.0269,-0.0359,-0.0897,-0.1619,-0.2075,-0.2349,-0.2623,-0.2804,-0.2895,-0.2886,-0.2875,-0.2875,-0.2875,-0.2884,-0.2891,-0.2905,-0.2906,-0.2907,-0.2899,-0.288,-0.3054,-0.3266,-0.3524,-0.3683,-0.3773,-0.3957,-0.4156,-0.4266,-0.4435,-0.4512,-0.4827,-0.524,-0.5288,2.455,2.455,2.455,2.455,2.455,2.455,2.455,2.455,2.454,2.4405,2.425,2.4188,2.4053,2.3898,2.3846,2.395,2.4198,2.4457,2.4529,2.455,2.4454,2.4454,2.4378,2.411,2.3927,2.3567,2.2972,2.25,2.2178,2.194,2.1712,2.1358,2.0703,2.0404,2.022,1.9756,1.8961,1.8605,1.8235,1.7786,1.6902,1.6304,1.556,1.5151,1.4405,1.4166,1.4088,1.4088,1.4088,1.4088,1.4088,1.4004,1.3782,1.3458,1.3021,1.2655,1.2474,1.2206,1.1562,1.098,1.0363,0.9483,0.8723,0.8025,0.7591,0.7323,0.7231,0.7143,0.7139,0.7139,0.7044,0.634,0.5808,0.501,0.43,0.3587,0.3142,0.2966,0.288,0.2883,0.2432,0.189,0.1346,0.0718,0.0269,-0.045,-0.1267,-0.1815,-0.2275,-0.2473,-0.2665,-0.2852,-0.285,-0.2941,-0.2939,-0.2937,-0.2936,-0.294,-0.2944,-0.2944,-0.295,-0.2946,-0.3049,-0.3164,-0.3318,-0.3537,-0.3639,-0.3751,-0.3945,-0.4236,-0.444,-0.4551,-0.4485,-0.4614,-0.484,2.455,2.455,2.455,2.4488,2.4426,2.4509,2.4416,2.4312,2.4353,2.4136,2.3774,2.3722,2.3546,2.3318,2.337,2.3577,2.4002,2.4418,2.4605,2.4711,2.4625,2.4625,2.454,2.4282,2.411,2.3927,2.3607,2.3319,2.2785,2.2416,2.2315,2.1929,2.1512,2.1236,2.1067,2.0671,2.0018,1.9644,1.9191,1.8742,1.7713,1.6582,1.5816,1.565,1.4831,1.4328,1.4173,1.4088,1.4088,1.4088,1.4088,1.4088,1.4088,1.3828,1.3476,1.3222,1.3143,1.2887,1.2357,1.1655,1.0692,0.9854,0.8982,0.8197,0.7676,0.7323,0.7139,0.7139,0.7139,0.7139,0.7051,0.6786,0.6074,0.5277,0.4656,0.4216,0.3342,0.2903,0.2917,0.2914,0.2905,0.2623,0.2076,0.1903,0.1361,0.0541,-0.0272,-0.0824,-0.1288,-0.1873,-0.2166,-0.2646,-0.2837,-0.3027,-0.3118,-0.3109,-0.3103,-0.3099,-0.3101,-0.3101,-0.3113,-0.3125,-0.3129,-0.3115,-0.3177,-0.3321,-0.3429,-0.3627,-0.3921,-0.4225,-0.4456,-0.4579,-0.4591,-0.4608,-0.4735,2.455,2.454,2.4529,2.4397,2.4273,2.4418,2.4148,2.374,2.3898,2.3691,2.3329,2.3267,2.3215,2.3194,2.3557,2.3846,2.4211,2.4556,2.4861,2.4946,2.4946,2.4861,2.4786,2.4368,2.4196,2.411,2.3841,2.3493,2.3057,2.2618,2.2441,2.2227,2.1933,2.164,2.153,2.1227,2.0939,2.0802,2.0425,1.971,1.8659,1.7532,1.6605,1.5974,1.5394,1.4901,1.4419,1.425,1.4257,1.4088,1.4088,1.4088,1.3997,1.3652,1.3483,1.3313,1.3137,1.2881,1.2357,1.1666,1.0717,0.9941,0.8986,0.8113,0.7588,0.7234,0.7139,0.7139,0.7139,0.7139,0.6874,0.6083,0.5366,0.4851,0.433,0.373,0.3026,0.2951,0.2963,0.2989,0.2992,0.2943,0.264,0.2562,0.248,0.1551,0.0728,0.0184,-0.0467,-0.1047,-0.1542,-0.1934,-0.2517,-0.2711,-0.2909,-0.2998,-0.3086,-0.3076,-0.3064,-0.3063,-0.316,-0.3067,-0.3144,-0.3127,-0.3102,-0.3189,-0.3293,-0.3589,-0.3892,-0.4089,-0.4284,-0.4524,-0.4681,-0.4698,-0.4685,2.4402,2.4094,2.4105,2.4072,2.4006,2.4103,2.4042,2.3916,2.374,2.3544,2.3143,2.2894,2.2666,2.2646,2.3132,2.3637,2.3886,2.4546,2.502,2.5189,2.5115,2.5031,2.4861,2.47,2.4529,2.4196,2.4034,2.3754,2.3319,2.296,2.2696,2.2353,2.2087,2.1811,2.1731,2.1557,2.1319,2.1053,2.0619,2.0152,1.9386,1.8499,1.7655,1.6952,1.646,1.5726,1.5068,1.4824,1.458,1.425,1.4088,1.4088,1.3997,1.3822,1.3568,1.3398,1.3228,1.2966,1.2534,1.2015,1.1149,1.0284,0.9414,0.8715,0.7669,0.7231,0.7139,0.7139,0.7139,0.7143,0.7173,0.6684,0.5902,0.5199,0.4402,0.3711,0.3278,0.3098,0.3022,0.3052,0.3072,0.3025,0.2977,0.2876,0.2683,0.2188,0.1466,0.0837,0.0095,-0.0584,-0.0884,-0.1186,-0.178,-0.2374,-0.2577,-0.2775,-0.2967,-0.3052,-0.3012,-0.3008,-0.3095,-0.3089,-0.2967,-0.3049,-0.3129,-0.3132,-0.3239,-0.3431,-0.3713,-0.3998,-0.4189,-0.443,-0.4665,-0.4643,-0.4645,2.4138,2.3645,2.4029,2.4208,2.4122,2.4061,2.4009,2.3993,2.3594,2.3265,2.297,2.2662,2.2382,2.2351,2.3036,2.3627,2.385,2.4588,2.5052,2.5285,2.5285,2.52,2.5115,2.4946,2.47,2.4368,2.4292,2.4024,2.3667,2.3309,2.296,2.2441,2.2176,2.1919,2.1741,2.1695,2.1557,2.131,2.0915,2.0428,1.9989,1.9303,1.8603,1.7963,1.735,1.6617,1.5876,1.5394,1.4985,1.4657,1.4173,1.4088,1.4088,1.3822,1.3652,1.3483,1.3222,1.3058,1.2796,1.2357,1.1757,1.0804,0.9758,0.8798,0.7669,0.7231,0.7231,0.7231,0.7204,0.7204,0.7138,0.7154,0.6483,0.5691,0.5069,0.4368,0.3641,0.3357,0.3186,0.3128,0.314,0.3119,0.3074,0.3033,0.2895,0.2651,0.2116,0.1501,0.0864,0.0197,-0.0199,-0.0499,-0.11,-0.1599,-0.1801,-0.2209,-0.2515,-0.2702,-0.2666,-0.2637,-0.2421,-0.2597,-0.2673,-0.2762,-0.2954,-0.3125,-0.3111,-0.332,-0.3528,-0.3813,-0.4102,-0.4317,-0.4526,-0.4602,-0.4716,2.3767,2.3165,2.4723,2.5108,2.4894,2.4659,2.415,2.3687,2.3283,2.2878,2.2643,2.2713,2.2835,2.2914,2.3429,2.4063,2.4445,2.4966,2.5411,2.5633,2.5644,2.5559,2.5391,2.5126,2.4871,2.4775,2.4625,2.4282,2.3841,2.3667,2.3135,2.252,2.2264,2.2008,2.183,2.1731,2.1722,2.153,2.1245,2.0879,2.0503,1.9933,1.9308,1.8386,1.7942,1.7513,1.6617,1.5966,1.5394,1.5151,1.4503,1.4088,1.4082,1.3913,1.3737,1.3561,1.3392,1.3143,1.2966,1.2448,1.1585,1.0804,0.9781,0.8844,0.807,0.7613,0.7517,0.7478,0.7396,0.7346,0.7211,0.6916,0.6717,0.6181,0.5553,0.4837,0.4094,0.3617,0.3351,0.3202,0.3202,0.3173,0.3159,0.3116,0.3042,0.2794,0.2628,0.2008,0.1643,0.1086,0.0697,0.0301,-0.0402,-0.0805,-0.0904,-0.1206,-0.1602,-0.169,-0.167,-0.1553,-0.1346,-0.1624,-0.2,-0.2572,-0.276,-0.292,-0.3089,-0.3407,-0.3621,-0.3813,-0.4001,-0.4167,-0.4494,-0.481,-0.4934,2.4945,2.4706,2.5311,2.492,2.3787,2.3676,2.3579,2.3427,2.3026,2.2851,2.2871,2.3218,2.344,2.3562,2.3963,2.4426,2.482,2.5249,2.5589,2.5822,2.5822,2.5728,2.5559,2.5464,2.52,2.5031,2.4786,2.454,2.411,2.3927,2.3484,2.2882,2.2451,2.2185,2.1998,2.182,2.1731,2.1704,2.1557,2.1291,2.0943,2.0732,2.0171,1.9326,1.9191,1.8464,1.7408,1.6624,1.5884,1.5235,1.4496,1.425,1.4088,1.3997,1.3835,1.375,1.3496,1.3332,1.3168,1.2552,1.2015,1.1013,0.9953,0.897,0.8617,0.817,0.7869,0.7728,0.7557,0.7506,0.7436,0.7445,0.7251,0.669,0.6047,0.5317,0.4747,0.4164,0.368,0.3518,0.3324,0.3213,0.3204,0.3195,0.3115,0.3044,0.2791,0.2528,0.2155,0.1877,0.1395,0.1004,0.0403,0.0,-0.0101,-0.0401,-0.0797,-0.0691,-0.0685,-0.0678,-0.0576,-0.086,-0.1239,-0.1906,-0.2572,-0.2748,-0.3026,-0.3514,-0.3698,-0.3671,-0.3726,-0.3779,-0.4311,-0.4997,-0.5149,2.5652,2.5453,2.5394,2.4659,2.3582,2.3372,2.3422,2.3536,2.3188,2.3264,2.3662,2.4014,2.4239,2.4368,2.4652,2.4898,2.5254,2.5648,2.6019,2.6229,2.6385,2.6373,2.629,2.6207,2.6102,2.5611,2.5189,2.4935,2.4358,2.4013,2.3484,2.3047,2.2618,2.2264,2.2097,2.183,2.1731,2.1731,2.1704,2.152,2.1154,2.0906,2.0604,1.9861,1.9598,1.8904,1.7823,1.6952,1.6057,1.5325,1.458,1.4166,1.4088,1.4095,1.405,1.3894,1.3717,1.3553,1.3484,1.2942,1.2289,1.1429,1.0485,0.9768,0.9311,0.8702,0.8285,0.8038,0.7799,0.7662,0.777,0.7691,0.7677,0.7208,0.6735,0.6085,0.5596,0.5005,0.4314,0.383,0.3527,0.3224,0.3225,0.3214,0.3166,0.309,0.2972,0.2809,0.2546,0.2272,0.1994,0.1607,0.1212,0.0909,0.0707,0.05,0.0297,0.0394,0.039,0.0097,0.0,-0.0192,-0.0382,-0.0857,-0.1524,-0.2382,-0.3146,-0.3816,-0.3667,-0.3511,-0.369,-0.4177,-0.4502,-0.5195,-0.5448,2.5465,2.5004,2.5111,2.4897,2.455,2.4093,2.3954,2.4039,2.3862,2.4128,2.469,2.5062,2.5157,2.5256,2.5459,2.5672,2.5821,2.6273,2.661,2.6869,2.7174,2.758,2.7487,2.7313,2.6928,2.6928,2.634,2.5589,2.484,2.4348,2.3744,2.3222,2.2784,2.2227,2.2087,2.182,2.1731,2.1722,2.1695,2.1484,2.1135,2.0833,2.0466,1.9907,1.9516,1.8842,1.7878,1.696,1.6057,1.5318,1.4503,1.4173,1.4088,1.4128,1.4229,1.4296,1.3808,1.3883,1.4352,1.3312,1.2555,1.1939,1.1097,1.0481,0.9872,0.9175,0.8592,0.8471,0.8229,0.7997,0.7959,0.7923,0.7878,0.7707,0.7223,0.6828,0.6232,0.5932,0.5231,0.4431,0.3725,0.3219,0.3226,0.3222,0.3195,0.3143,0.3086,0.2995,0.2747,0.2574,0.2301,0.2009,0.1717,0.1415,0.1209,0.1393,0.138,0.147,0.1272,0.088,0.0682,0.0582,0.0386,0.0,-0.0673,-0.165,-0.2891,-0.4115,-0.4001,-0.4,-0.4358,-0.4754,-0.507,-0.5401,-0.5679,2.7151,2.6104,2.6104,2.5889,2.5468,2.4716,2.4348,2.4307,2.4593,2.5072,2.5508,2.5915,2.6098,2.6257,2.6474,2.6623,2.6737,2.7093,2.7418,2.7499,2.781,2.773,2.7799,2.7879,2.7568,2.7255,2.6753,2.6423,2.5935,2.5105,2.4594,2.4069,2.3018,2.2086,2.1651,2.1502,2.164,2.1429,2.1511,2.1539,2.1154,2.0943,2.0594,1.9989,1.9543,1.894,1.7887,1.6902,1.6133,1.5376,1.4558,1.4142,1.4168,1.4215,1.4322,1.4422,1.409,1.4464,1.4552,1.4002,1.351,1.2756,1.1763,1.1086,1.0659,0.9664,0.9107,0.8836,0.8556,0.8314,0.828,0.8096,0.8028,0.7928,0.7633,0.7232,0.683,0.6531,0.6129,0.5331,0.4528,0.3725,0.3429,0.323,0.321,0.3203,0.3154,0.3154,0.2993,0.2801,0.2618,0.2317,0.2019,0.1818,0.1711,0.1598,0.1594,0.1493,0.1496,0.14,0.1292,0.1182,0.0789,0.0394,-0.0296,-0.089,-0.2262,-0.3431,-0.4345,-0.4646,-0.4692,-0.4852,-0.5156,-0.5498,-0.5973,2.8446,2.7544,2.7519,2.7232,2.6675,2.5302,2.4765,2.5151,2.5948,2.6426,2.6561,2.6714,2.6752,2.6877,2.7186,2.7359,2.734,2.7894,2.8143,2.8223,2.8462,2.8542,2.8542,2.8462,2.8474,2.7983,2.758,2.7244,2.6753,2.5935,2.5084,2.4231,2.3367,2.2263,2.1599,2.1337,2.1392,2.1245,2.1346,2.1465,2.1291,2.1117,2.0778,2.0254,1.9815,1.9224,1.7992,1.7046,1.6347,1.5466,1.4808,1.4394,1.4349,1.4362,1.4422,1.4442,1.4636,1.4787,1.4448,1.432,1.3887,1.3461,1.224,1.1405,1.0944,0.994,0.9276,0.8945,0.8724,0.8547,0.8354,0.8174,0.8137,0.8038,0.7839,0.7534,0.7434,0.7132,0.683,0.6032,0.5532,0.473,0.3729,0.343,0.3224,0.3226,0.3226,0.323,0.323,0.3029,0.2725,0.2523,0.2222,0.2021,0.1819,0.1714,0.1612,0.1616,0.1617,0.1617,0.1513,0.1399,0.1006,0.0808,0.0502,-0.01,-0.1406,-0.2514,-0.341,-0.4104,-0.4482,-0.4658,-0.5046,-0.5478,-0.6034,2.9243,2.9061,2.899,2.8846,2.8308,2.6201,2.5718,2.6725,2.7629,2.7986,2.7912,2.7388,2.733,2.7255,2.7553,2.7746,2.7777,2.8482,2.8743,2.8961,2.9209,2.9456,2.9534,2.9534,2.9209,2.8949,2.8609,2.7971,2.7476,2.667,2.5505,2.4317,2.3724,2.2582,2.1776,2.124,2.1172,2.1163,2.1291,2.141,2.1383,2.1236,2.0869,2.0455,2.0114,1.9335,1.8396,1.7616,1.6783,1.6067,1.5353,1.4859,1.4616,1.4529,1.4529,1.4616,1.4836,1.4641,1.4533,1.4418,1.4216,1.3888,1.2768,1.1865,1.0891,1.0086,0.944,0.9096,0.8841,0.859,0.8326,0.8336,0.8237,0.8137,0.8038,0.7939,0.7939,0.7736,0.7434,0.7033,0.6631,0.5829,0.4429,0.383,0.3425,0.323,0.323,0.323,0.313,0.3029,0.2826,0.2725,0.2424,0.2122,0.192,0.1718,0.1617,0.1617,0.1617,0.1617,0.1617,0.1617,0.1313,0.1212,0.1415,0.0808,-0.0605,-0.1714,-0.252,-0.3118,-0.3814,-0.4514,-0.4794,-0.5399,-0.5939,3.0168,2.9572,2.9559,2.9572,2.9374,2.8677,2.8373,2.8313,2.8424,2.8512,2.8746,2.8662,2.84,2.8612,2.8987,2.895,2.9114,2.9338,2.9524,2.9689,2.9702,2.9779,2.9779,2.9779,2.9611,2.9353,2.8949,2.8554,2.8223,2.7418,2.6185,2.5009,2.4145,2.31,2.2122,2.1376,2.1222,2.119,2.1355,2.1401,2.1383,2.1236,2.0906,2.0601,2.0462,1.9694,1.8871,1.8418,1.7534,1.6301,1.597,1.5436,1.4563,1.4703,1.483,1.481,1.4783,1.4676,1.4741,1.4927,1.481,1.4187,1.3469,1.2259,1.1212,1.0269,0.9579,0.9108,0.8891,0.8669,0.8457,0.8366,0.8262,0.8096,0.8011,0.8038,0.8038,0.7939,0.7637,0.7531,0.7226,0.6299,0.491,0.4214,0.3812,0.3425,0.323,0.323,0.323,0.3029,0.3029,0.2826,0.2624,0.2323,0.2021,0.1819,0.1718,0.1617,0.1617,0.1617,0.1617,0.1617,0.1617,0.1617,0.1617,0.1009,0.0,-0.0806,-0.1211,-0.2321,-0.3021,-0.3831,-0.4541,-0.514,-0.5641,3.069,3.0316,3.029,3.0186,2.9878,2.9645,2.9409,2.9078,2.9151,2.93,2.9441,2.9321,2.925,2.9198,2.931,2.9439,2.9561,2.9504,2.9643,2.9844,2.9856,2.9779,2.9779,2.9779,2.9702,2.9534,2.9287,2.8973,2.8645,2.8075,2.6928,2.583,2.4893,2.3801,2.2803,2.1995,2.1471,2.1383,2.141,2.141,2.1383,2.1328,2.1099,2.0869,2.0698,2.0232,1.954,1.9272,1.8555,1.7249,1.6982,1.6145,1.5212,1.513,1.4669,1.4589,1.4456,1.4422,1.4536,1.4816,1.4625,1.4333,1.3898,1.2849,1.1595,1.0561,0.9691,0.9076,0.8934,0.8773,0.8676,0.8479,0.8265,0.8143,0.8089,0.8035,0.8038,0.8038,0.7932,0.7826,0.7198,0.6366,0.5567,0.4879,0.4189,0.3791,0.341,0.323,0.323,0.313,0.313,0.3029,0.2725,0.2523,0.2222,0.192,0.1718,0.1617,0.1617,0.1617,0.1617,0.1617,0.1617,0.1617,0.1617,0.1009,0.0605,0.0504,0.0101,-0.0908,-0.1715,-0.2117,-0.3124,-0.4334,-0.4937,3.0986,3.0947,3.0934,3.0568,3.0085,2.9562,2.9314,2.934,2.9699,3.0025,2.9986,2.9693,2.9542,2.9652,2.9652,2.9675,2.9786,2.9768,2.9859,3.0075,2.9869,2.9792,2.9779,2.9779,2.9792,2.9624,2.9378,2.8973,2.8895,2.8327,2.7672,2.6823,2.5819,2.4639,2.3411,2.2659,2.2133,2.1692,2.1572,2.1507,2.163,2.1658,2.1575,2.13,2.1259,2.1155,2.056,2.0334,2.0223,1.8945,1.7873,1.6985,1.5994,1.5171,1.4556,1.4275,1.4215,1.4188,1.4295,1.4516,1.4382,1.405,1.3825,1.3112,1.2158,1.0858,0.9887,0.9187,0.9042,0.8766,0.8575,0.8536,0.8453,0.825,0.8122,0.8086,0.8035,0.8007,0.7858,0.7835,0.7469,0.6651,0.6144,0.537,0.4716,0.4234,0.3866,0.3506,0.323,0.323,0.323,0.323,0.2927,0.2624,0.2423,0.2222,0.192,0.1718,0.1617,0.1617,0.1617,0.1617,0.1617,0.1617,0.1617,0.1617,0.1313,0.1212,0.101,0.0808,0.0202,-0.0202,-0.131,-0.2821,-0.4031,3.0986,3.0934,3.0516,3.0168,3.0072,2.9523,2.9261,2.9287,2.9405,2.9719,3.0111,3.0385,3.049,3.0359,3.0346,3.0355,3.0361,3.0033,3.0075,3.005,2.9946,2.9792,2.9779,2.9779,2.9779,2.9624,2.939,2.8907,2.8669,2.8419,2.8099,2.7441,2.6505,2.5378,2.4286,2.3464,2.2775,2.2167,2.1915,2.1734,2.1695,2.1731,2.1658,2.1594,2.1578,2.1382,2.1006,2.082,2.0167,1.919,1.8295,1.7143,1.5752,1.4925,1.4536,1.4396,1.4195,1.4108,1.4168,1.4335,1.4316,1.4249,1.4009,1.3486,1.2557,1.121,1.0202,0.9605,0.903,0.8755,0.8493,0.8571,0.854,0.8346,0.8153,0.8041,0.8021,0.7957,0.7885,0.7707,0.7535,0.7111,0.6608,0.5958,0.5314,0.4766,0.4311,0.3861,0.3516,0.3432,0.343,0.333,0.3027,0.2725,0.2624,0.2323,0.202,0.1819,0.1718,0.1617,0.1617,0.1617,0.1617,0.1617,0.1617,0.1617,0.1617,0.1516,0.1515,0.1516,0.1414,0.0706,0.0404,-0.0706,-0.2217,3.0986,3.0908,3.0372,2.998,2.968,2.9131,2.8752,2.8582,2.8765,2.928,2.9928,3.0453,3.0682,3.0695,3.0668,3.0843,3.0745,3.0286,3.0226,3.0126,3.0011,2.9869,2.9869,2.9779,2.9689,2.9534,2.9131,2.8816,2.851,2.851,2.8191,2.7881,2.7103,2.6268,2.5295,2.4464,2.3377,2.2784,2.2362,2.2097,2.1919,2.1731,2.1731,2.1731,2.1642,2.1463,2.1275,2.0997,2.0538,1.9629,1.8727,1.7157,1.5844,1.5073,1.4683,1.4469,1.4269,1.4088,1.4175,1.4302,1.4436,1.4316,1.4315,1.3673,1.3133,1.1802,1.0671,0.9989,0.9477,0.911,0.8629,0.8592,0.8478,0.8317,0.8158,0.8073,0.8004,0.7875,0.779,0.7695,0.753,0.7379,0.6904,0.6484,0.5862,0.5761,0.5201,0.4743,0.4301,0.3822,0.3723,0.363,0.3328,0.2927,0.2725,0.2523,0.2221,0.202,0.1819,0.1718,0.1617,0.1617,0.1617,0.1617,0.1617,0.1617,0.1617,0.1617,0.1617,0.1516,0.1516,0.1414,0.1212,0.0908,-0.0403,3.0934,3.0803,3.0255,2.9693,2.9144,2.8621,2.815,2.785,2.835,2.9013,2.9707,3.0275,3.0329,3.0375,3.0487,3.0755,3.0764,3.0436,3.0338,3.0266,3.0152,2.9946,2.9792,2.9779,2.9611,2.9365,2.8961,2.8736,2.851,2.851,2.8375,2.825,2.7766,2.7042,2.6646,2.5487,2.4059,2.3377,2.2862,2.2353,2.2087,2.182,2.1731,2.1731,2.1642,2.1562,2.1374,2.1033,2.0747,2.0085,1.8996,1.7287,1.6068,1.5197,1.491,1.4656,1.4369,1.4202,1.4155,1.4275,1.4255,1.4235,1.4216,1.3918,1.3284,1.2546,1.1327,1.0554,1.0043,0.9371,0.881,0.852,0.8413,0.8296,0.8153,0.8069,0.7876,0.7763,0.7665,0.7567,0.7502,0.7438,0.7188,0.6777,0.6584,0.6506,0.6198,0.5862,0.5397,0.4891,0.4491,0.4214,0.393,0.3528,0.3027,0.2624,0.2322,0.2121,0.192,0.1718,0.1617,0.1617,0.1617,0.1617,0.1617,0.1617,0.1617,0.1617,0.1617,0.1617,0.1617,0.1617,0.1516,0.1212,0.101,3.0712,3.0241,2.968,2.9118,2.8595,2.8425,2.8389,2.8552,2.9108,2.9591,2.9971,3.0579,3.0975,3.1275,3.1362,3.132,3.1031,3.0664,3.0428,3.0355,3.0088,2.9869,2.9792,2.9702,2.9534,2.9209,2.8882,2.8724,2.851,2.851,2.8375,2.8113,2.7985,2.7208,2.6257,2.5389,2.4999,2.4145,2.3551,2.3038,2.2353,2.1998,2.1731,2.1731,2.1731,2.1562,2.132,2.0873,2.0695,2.018,1.9063,1.7323,1.6258,1.5483,1.5124,1.4816,1.4529,1.4289,1.4235,1.4202,1.4128,1.4128,1.4143,1.4031,1.3574,1.3313,1.2272,1.1408,1.0641,0.9524,0.8949,0.8685,0.8539,0.8345,0.8124,0.7897,0.7736,0.756,0.7465,0.7387,0.7316,0.7285,0.7192,0.6982,0.6863,0.6692,0.6584,0.6184,0.595,0.5649,0.5253,0.499,0.4626,0.393,0.3229,0.2826,0.2523,0.2323,0.202,0.1819,0.1617,0.1617,0.1617,0.1617,0.1617,0.1617,0.1617,0.1617,0.1617,0.1617,0.1617,0.1617,0.1617,0.1516,0.1313]}]]